     2              OBSERVATION DATA    GPS                 RINEX VERSION / TYPE
teqc 1997Jul24 19970902 21:13:27UTC                         PGM / RUN BY / DATE
                                                            COMMENT
BIT 2 OF LLI FLAGS DATA COLLECTED UNDER A-S CONDITION       COMMENT
BIT 2 OF LLI FLAGS DATA COLLECTED UNDER A-S CONDITION       COMMENT
Original Marker Name: 55455.SAND                            COMMENT
Campaign Name: Salt. Tr. Crust. Monit. May-Jun 1986         COMMENT
4-Character Station Name: SAND                              COMMENT
6-Character Antenna Code: TI4100                            COMMENT
Vertical Measurement Point: PAE                             COMMENT
Vertical Offset to Rinex Ref. Point: 0.0000                 COMMENT
Radial Measurement Point: RRP                               COMMENT
Radial Offset to Rinex Ref. Point: 0.0000                   COMMENT
Antenna Height from Field Measurement: 1.2610 m             COMMENT
Original XYZ: -2337013.7104 -4728587.9163 3573986.5301      COMMENT
New XYZ position is based on association with SCEC monument COMMENT
E1F2G8K4+0012. Position of that monument is believed to be  COMMENT
valid to within 1 m horizontally; vertical accuracy         COMMENT
should be no worse than 3-times this value.                 COMMENT
                                                            COMMENT
Revised Rinex header created by UCSD GPS archive for        COMMENT
GSAC on 14-Apr-1999 (1999:104) 17:45:19 GMT                 COMMENT
For assistance contact dagnew@ucsd.edu or hjohnson@ucsd.edu COMMENT
                                                            COMMENT
SAND HILL 1939 1981                                         MARKER NAME
5 NATIONAL GEODETIC SURVEY                                  OBSERVER / AGENCY
UT-16 TI 4100 1.0                                           REC # / TYPE / VERS
4011 TI 4100                                                ANT # / TYPE
 -2336820.0000 -4732587.0000  3570330.0000                  APPROX POSITION XYZ
        1.2610        0.0000        0.0000                  ANTENNA: DELTA H/E/N
     1     1     0                                          WAVELENGTH FACT L1/2
     4    P1    P2    L1    L2                              # / TYPES OF OBSERV
     6                                                      INTERVAL
  1986     6    12     2    58   17.000000                  TIME OF FIRST OBS
  1986     6    12     4    35   29.000000                  TIME OF LAST OBS
     0                                                      # OF SATELLITES
                                                            END OF HEADER
 86  6 12  2 58 17.0800000  0  4G12G13G 9G11
  21200966.924    21200968.892     8007121.505 9 -18574765.196 8
  20711020.736    20711023.123    30578984.837 9 -45251535.516 8
  21180126.990    21180128.604    65293492.614 9-106488290.471 8
  24148545.106    24148547.499    92362217.160 9 -85423640.099 9
 86  6 12  2 58 23.0800000  0  4G12G13G 9G11
  21199215.567    21199216.734     7997917.849 9 -18581936.876 8
  20711776.917    20711778.156    30582954.181 9 -45248442.528 9
  21183301.509    21183303.500    65310174.441 9-106475291.645 9
  24151680.958    24151683.343    92378693.514 9 -85410801.376 9
 86  6 12  2 58 29.0800000  0  4G12G13G 9G11
  21197468.261    21197469.403     7988736.370 9 -18589091.273 8
  20712534.134    20712536.268    30586935.589 9 -45245340.129 9
  21186479.807    21186481.375    65326876.650 9-106462276.940 9
  24154816.388    24154817.740    92395168.186 9 -85397963.974 9
 86  6 12  2 58 35.0800000  0  4G12G13G 9G11
  21195725.155    21195727.478     7979577.006 9 -18596228.442 9
  20713293.205    20713296.418    30590929.044 9 -45242228.342 9
  21189662.688    21189663.763    65343599.204 9-106449246.395 8
  24157950.099    24157953.170    92411641.186 9 -85385127.868 9
 86  6 12  2 58 41.0800000  0  4G12G13G 9G11
  21193986.809    21193987.331     7970439.798 9 -18603348.339 9
  20714055.802    20714057.427    30594934.549 9 -45239107.172 9
  21192848.914    21192850.149    65360342.097 9-106436199.981 8
  24161084.655    24161086.355    92428112.570 9 -85372293.025 9
 86  6 12  2 58 47.0800000  0  4G12G13G 9G11
  21192251.875    21192253.260     7961324.830 9 -18610450.908 8
  20714820.740    20714823.129    30598952.181 8 -45235976.549 9
  21196038.576    21196040.194    65377105.283 9-106423137.761 8
  24164218.753    24164221.099    92444582.276 9 -85359459.492 9
 86  6 12  2 58 53.0800000  0  4G12G13G 9G11
  21190521.991    21190523.123     7952232.146 9 -18617536.128 9
  20715589.064    20715589.667    30602981.875 9 -45232836.524 9
  21199231.875    21199234.134    65393888.848 9-106410059.669 8
  24167353.210    24167355.142    92461050.349 9 -85346627.227 9
 86  6 12  2 58 59.0800000  0  4G12G13G 9G11
  21188796.035    21188797.590     7943161.672 9 -18624604.019 9
  20716357.258    20716359.444    30607023.477 8 -45229687.228 9
  21202430.524    21202431.551    65410692.620 9-106396965.824 8
  24170486.184    24170488.875    92477516.792 9 -85333796.222 9
 86  6 12  2 59  5.0800000  0  4G12G13G 9G11
  21187073.225    21187076.112     7934113.553 9 -18631654.506 8
  20717128.510    20717129.651    30611077.039 9 -45226528.599 9
  21205631.976    21205633.078    65427516.669 8-106383856.175 9
  24173619.247    24173622.581    92493981.522 9 -85320966.558 9
 86  6 12  2 59 11.0800000  0  4G12G13G 9G11
  21185355.964    21185358.338     7925087.746 9 -18638687.609 8
  20717902.236    20717904.036    30615142.538 9 -45223360.679 9
  21208836.943    21208838.893    65444361.003 8-106370730.730 8
  24176751.682    24176754.692    92510444.617 9 -85308138.186 9
 86  6 12  2 59 17.0800000  0  4G12G13G 9G11
  21183643.191    21183644.592     7916084.245 9 -18645703.323 8
  20718678.215    20718678.941    30619220.138 9 -45220183.341 8
  21212046.209    21212047.128    65461225.612 9-106357589.475 8
  24179884.134    24179887.934    92526906.025 9 -85295311.107 8
 86  6 12  2 59 23.0800000  0  4G12G13G 9G11
  21181933.804    21181934.795     7907103.073 9 -18652701.630 9
  20719456.807    20719457.516    30623309.650 9 -45216996.699 9
  21215259.170    21215261.113    65478110.366 8-106344432.526 8
  24183017.251    24183019.094    92543365.750 9 -85282485.353 9
 86  6 12  2 59 29.0800000  0  4G12G13G 9G11
  21180228.463    21180230.900     7898144.282 9 -18659682.523 9
  20720236.377    20720238.643    30627411.077 9 -45213800.783 8
  21218476.160    21218476.845    65495015.343 9-106331259.823 9
  24186148.048    24186151.439    92559823.761 9 -85269660.925 9
 86  6 12  2 59 35.0800000  0  4G12G13G 9G11
  21178528.525    21178530.612     7889207.915 9 -18666645.921 9
  20721019.788    20721021.717    30631524.460 9 -45210595.550 9
  21221696.014    21221698.487    65511940.352 8-106318071.511 8
  24189280.077    24189282.119    92576280.064 9 -85256837.838 9
 86  6 12  2 59 41.0800000  0  4G12G13G 9G11
  21176832.619    21176834.242     7880293.902 9 -18673591.894 9
  20721804.447    20721806.427    30635649.738 9 -45207381.042 9
  21224922.308    21224924.337    65528885.568 9-106304867.453 8
  24192410.747    24192413.708    92592734.666 9 -85244016.066 9
 86  6 12  2 59 47.0800000  0  4G12G13G 9G11
  21175140.222    21175141.848     7871402.302 9 -18680520.419 8
  20722591.407    20722593.942    30639786.850 8 -45204157.322 9
  21228149.404    21228151.293    65545850.942 8-106291647.684 8
  24195542.155    24195543.917    92609187.604 9 -85231195.598 9
 86  6 12  2 59 53.0800000  0  4G12G13G 9G11
  21173452.694    21173453.689     7862533.119 9 -18687431.479 9
  20723380.582    20723382.596    30643935.909 9 -45200924.292 9
  21231382.273    21231382.990    65562836.390 9-106278412.279 8
  24198673.040    24198675.703    92625638.781 9 -85218376.485 8
 86  6 12  2 59 59.0800000  0  4G12G13G 9G11
  21171769.542    21171771.232     7853686.309 9 -18694325.091 8
  20724172.699    20724175.623    30648096.855 9 -45197681.991 9
  21234619.186    21234620.371    65579841.893 9-106265161.238 9
  24201802.606    24201805.258    92642088.187 9 -85205558.772 9
 86  6 12  3  0  5.0800000  0  4G12G13G 9G11
  21170089.919    21170091.647     7844861.992 9 -18701201.186 9
  20724967.062    20724968.765    30652269.642 9 -45194430.472 8
  21237857.559    21237858.873    65596867.411 9-106251894.601 8
  24204933.007    24204935.097    92658535.871 9 -85192742.392 9
 86  6 12  3  0 11.0800000  0  4G12G13G 9G11
  21168415.241    21168415.453     7836060.165 9 -18708059.747 8
  20725764.078    20725764.333    30656454.257 9 -45191169.725 8
  21241101.337    21241103.025    65613913.000 9-106238612.332 8
  24208062.576    24208064.778    92674981.786 9 -85179927.403 8
 86  6 12  3  0 17.0800000  0  4G12G13G 9G11
  21166744.766    21166745.880     7827280.872 9 -18714900.758 8
  20726562.057    20726563.885    30660650.689 9 -45187899.786 9
  21244349.318    21244350.997    65630978.574 9-106225314.484 8
  24211191.161    24211194.131    92691425.957 9 -85167113.762 9
 86  6 12  3  0 23.0800000  0  4G12G13G 9G11
  21165078.803    21165079.538     7818524.072 9 -18721724.235 8
  20727362.003    20727364.364    30664858.944 9 -45184620.620 8
  21247600.737    21247601.914    65648064.120 9-106212001.078 8
  24214320.349    24214322.961    92707868.358 9 -85154301.494 8
 86  6 12  3  0 29.0800000  0  4G12G13G 9G11
  21163416.009    21163418.546     7809789.823 9 -18728530.148 8
  20728165.819    20728167.722    30669078.978 8 -45181332.291 8
  21250856.196    21250856.741    65665169.663 9-106198672.083 8
  24217449.765    24217451.574    92724308.897 9 -85141490.692 9
 86  6 12  3  0 35.0800000  0  4G12G13G 9G11
  21161757.604    21161759.252     7801078.209 9 -18735318.421 9
  20728970.754    20728973.329    30673310.851 9 -45178034.725 9
  21254114.286    21254116.317    65682295.140 8-106185327.563 8
  24220577.002    24220579.473    92740747.662 9 -85128681.260 9
 86  6 12  3  0 41.0800000  0  4G12G13G 9G11
  21160104.932    21160106.595     7792389.101 9 -18742089.153 9
  20729779.681    20729780.963    30677554.476 9 -45174727.997 9
  21257376.493    21257378.021    65699440.519 9-106171967.526 8
  24223704.960    24223707.475    92757184.673 9 -85115873.191 8
 86  6 12  3  0 47.0800000  0  4G12G13G 9G11
  21158455.284    21158457.373     7783722.565 9 -18748842.296 8
  20730588.328    20730590.697    30681809.810 9 -45171412.155 9
  21260643.250    21260643.630    65716605.826 8-106158591.975 9
  24226831.444    24226835.163    92773619.865 9 -85103066.560 9
 86  6 12  3  0 53.0800000  0  4G12G13G 9G11
  21156810.592    21156811.958     7775078.598 9 -18755577.857 9
  20731399.877    20731401.273    30686076.864 9 -45168087.175 8
  21263913.472    21263914.919    65733791.019 8-106145200.913 9
  24229959.610    24229962.182    92790053.253 9 -85090261.326 9
 86  6 12  3  0 59.0800000  0  4G12G13G 9G11
  21155169.699    21155171.295     7766457.259 9 -18762295.775 8
  20732214.336    20732215.529    30690355.561 9 -45164753.130 8
  21267187.506    21267189.963    65750996.092 8-106131794.368 8
  24233087.121    24233088.305    92806484.839 9 -85077457.500 9
 86  6 12  3  1  5.0800000  0  4G12G13G 9G11
  21153533.692    21153535.370     7757858.497 9 -18768996.115 8
  20733030.939    20733032.092    30694645.971 9 -45161409.954 9
  21270465.735    21270467.186    65768221.024 9-106118372.345 8
  24236212.500    24236215.525    92822914.628 9 -85064655.071 9
 86  6 12  3  1 11.0800000  0  4G12G13G 9G11
  21151901.474    21151903.959     7749282.320 9 -18775678.856 8
  20733849.519    20733851.654    30698948.133 8 -45158057.613 8
  21273747.062    21273748.294    65785465.741 8-106104934.912 8
  24239339.673    24239341.712    92839342.624 9 -85051854.039 9
 86  6 12  3  1 17.0800000  0  4G12G13G 9G11
  21150273.441    21150275.168     7740728.793 9 -18782343.939 9
  20734671.216    20734672.251    30703261.955 9 -45154696.199 8
  21277032.339    21277034.445    65802730.286 8-106091482.019 8
  24242464.866    24242467.500    92855768.777 9 -85039054.435 9
 86  6 12  3  1 23.0800000  0  4G12G13G 9G11
  21148650.904    21148652.559     7732198.050 9 -18788991.272 9
  20735494.181    20735495.877    30707587.467 9 -45151325.660 8
  21280321.079    21280322.864    65820014.565 7-106078013.760 8
  24245590.997    24245593.268    92872193.051 9 -85026256.303 9
 86  6 12  3  1 29.0800000  0  4G12G13G 9G11
  21147031.695    21147032.783     7723690.116 9 -18795620.837 9
  20736319.738    20736320.945    30711924.565 9 -45147946.104 8
  21283614.165    21283617.028    65837318.638 7-106064530.067 8
  24248715.906    24248718.127    92888615.485 9 -85013459.592 9
 86  6 12  3  1 35.0800000  0  4G12G13G 9G11
  21145417.036    21145418.570     7715204.874 9 -18802232.704 9
  20737147.605    20737147.914    30716273.341 9 -45144557.458 8
  21286911.404    21286912.378    65854642.484 8-106051030.962 9
  24251840.800    24251842.696    92905036.096 9 -85000664.310 9
 86  6 12  3  1 41.0800000  0  4G12G13G 9G11
  21143806.461    21143808.975     7706742.294 9 -18808826.927 8
  20737975.500    20737978.728    30720633.785 9 -45141159.706 9
  21290211.443    21290212.966    65871986.026 8-106037516.518 8
  24254964.210    24254967.264    92921454.846 9 -84987870.474 9
 86  6 12  3  1 47.0800000  0  4G12G13G 9G11
  21142199.946    21142202.251     7698302.457 9 -18815403.415 9
  20738808.281    20738810.018    30725005.912 9 -45137752.853 9
  21293515.669    21293517.582    65889349.259 8-106023986.731 8
  24258088.279    24258091.764    92937871.744 9 -84975078.078 8
 86  6 12  3  1 53.0800000  0  4G12G13G 9G11
  21140598.291    21140600.465     7689885.462 9 -18821962.116 9
  20739643.180    20739643.838    30729389.667 9 -45134336.938 9
  21296823.093    21296826.094    65906732.180 8-106010441.601 8
  24261211.559    24261215.067    92954286.732 9 -84962287.177 8
 86  6 12  3  1 59.0800000  0  4G12G13G 9G11
  21139001.311    21139003.264     7681491.214 9 -18828503.094 9
  20740479.320    20740480.616    30733784.966 9 -45130912.033 9
  21300134.413    21300137.157    65924134.703 8-105996881.203 8
  24264335.256    24264337.822    92970699.786 9 -84949497.772 9
 86  6 12  3  2  5.0800000  0  4G12G13G 9G11
  21137408.115    21137409.441     7673119.796 9 -18835026.272 9
  20741316.952    20741320.199    30738191.777 9 -45127478.149 9
  21303448.588    21303451.711    65941556.886 8-105983305.487 8
  24267458.076    24267460.998    92987111.018 9 -84936709.805 8
 86  6 12  3  2 11.0800000  0  4G12G13G 9G11
  21135819.987    21135822.527     7664771.180 9 -18841531.693 9
  20742158.924    20742159.325    30742610.144 9 -45124035.262 9
  21306769.295    21306770.702    65958998.742 9-105969714.426 8
  24270582.347    24270583.330    93003520.305 9 -84923923.340 8
 86  6 12  3  2 17.0800000  0  4G12G13G 9G11
  21134236.096    21134237.452     7656445.430 9 -18848019.287 9
  20743001.204    20743001.964    30747040.002 9 -45120583.426 9
  21310092.004    21310093.608    65976460.235 8-105956108.078 8
  24273702.389    24273705.418    93019927.693 8 -84911138.352 8
 86  6 12  3  2 23.0800000  0  4G12G13G 9G11
  21132655.041    21132656.328     7648142.592 9 -18854489.034 8
  20743846.305    20743849.097    30751481.370 9 -45117122.624 9
  21313418.432    21313420.382    65993941.155 9-105942486.588 8
  24276824.405    24276828.218    93036333.156 9 -84898354.866 8
 86  6 12  3  2 29.0800000  0  4G12G13G 9G11
  21131079.974    21131081.123     7639862.578 9 -18860940.991 9
  20744694.763    20744695.274    30755934.216 9 -45113652.873 8
  21316749.210    21316749.961    66011441.649 8-105928849.845 9
  24279946.267    24279948.983    93052736.616 9 -84885572.946 9
 86  6 12  3  2 35.0800000  0  4G12G13G 9G11
  21129508.259    21129510.087     7631605.448 9 -18867375.116 9
  20745543.178    20745545.069    30760398.537 9 -45110174.177 9
  21320083.083    21320084.812    66028961.695 9-105915197.853 8
  24283067.419    24283070.562    93069138.142 8 -84872792.544 9
 86  6 12  3  2 41.0800000  0  4G12G13G 9G11
  21127941.312    21127943.550     7623371.242 9 -18873791.383 9
  20746394.437    20746397.341    30764874.437 9 -45106686.459 9
  21323419.869    21323421.817    66046501.180 8-105901530.726 8
  24286188.294    24286190.410    93085537.734 9 -84860013.639 8
 86  6 12  3  2 47.0800000  0  4G12G13G 9G11
  21126378.395    21126380.614     7615159.896 9 -18880189.830 9
  20747249.148    20747250.432    30769361.794 9 -45103189.814 9
  21326761.809    21326765.033    66064060.114 9-105887848.451 7
  24289308.204    24289311.875    93101935.442 9 -84847236.203 9
 86  6 12  3  2 53.0800000  0  4G12G13G 9G11
  21124820.470    21124822.726     7606971.486 9 -18886570.419 9
  20748105.244    20748106.935    30773860.613 8 -45099684.249 9
  21330106.380    21330108.159    66081638.557 9-105874150.963 8
  24292428.550    24292431.289    93118331.228 9 -84834460.274 9
 86  6 12  3  2 59.0800000  0  4G12G13G 9G11
  21123267.579    21123269.532     7598806.114 9 -18892933.039 8
  20748962.943    20748965.343    30778370.820 9 -45096169.793 8
  21333455.993    21333456.996    66099236.486 9-105860438.288 7
  24295548.214    24295551.173    93134725.057 9 -84821685.848 8
 86  6 12  3  3  5.0800000  0  4G12G13G 9G11
  21121717.846    21121719.638     7590663.678 9 -18899277.795 8
  20749823.815    20749825.989    30782892.426 9 -45092646.474 9
  21336808.235    21336810.579    66116853.827 9-105846710.505 8
  24298667.166    24298670.634    93151116.936 9 -84808912.962 8
 86  6 12  3  3 11.0800000  0  4G12G13G 9G11
  21120171.412    21120174.131     7582544.175 9 -18905604.676 9
  20750686.213    20750688.616    30787425.447 9 -45089114.249 8
  21340164.798    21340165.958    66134490.521 9-105832967.630 8
  24301785.742    24301789.354    93167506.821 8 -84796141.628 8
 86  6 12  3  3 17.0800000  0  4G12G13G 9G11
  21118631.285    21118633.840     7574447.658 9 -18911913.652 9
  20751551.728    20751552.817    30791969.891 9 -45085573.115 9
  21343523.512    21343525.843    66152146.556 9-105819209.686 8
  24304904.810    24304907.403    93183894.748 8 -84783371.822 9
 86  6 12  3  3 23.0800000  0  4G12G13G 9G11
  21117094.784    21117096.371     7566374.126 9 -18918204.720 9
  20752417.817    20752420.647    30796525.625 9 -45082023.202 9
  21346887.941    21346889.261    66169821.929 8-105805436.674 8
  24308023.824    24308026.006    93200280.688 8 -84770603.573 9
 86  6 12  3  3 29.0800000  0  4G12G13G 9G11
  21115562.271    21115564.927     7558323.634 9 -18924477.836 9
  20753286.471    20753289.089    30801092.695 9 -45078464.443 9
  21350255.066    21350256.852    66187516.714 8-105791648.529 9
  24311140.319    24311143.394    93216664.563 7 -84757836.918 8
 86  6 12  3  3 35.0800000  0  4G12G13G 9G11
  21114035.261    21114037.744     7550296.212 9 -18930732.961 9
  20754158.384    20754160.175    30805670.994 9 -45074896.935 9
  21353626.055    21353627.186    66205230.753 8-105777845.393 8
  24314258.854    24314262.105    93233046.420 8 -84745071.845 8
 86  6 12  3  3 41.0800000  0  4G12G13G 9G11
  21112512.268    21112513.868     7542291.810 9 -18936970.162 9
  20755031.531    20755033.197    30810260.609 9 -45071320.610 8
  21357000.736    21357002.599    66222964.038 8-105764027.252 9
  24317375.297    24317377.603    93249426.252 9 -84732308.342 8
 86  6 12  3  3 47.0800000  0  4G12G13G 9G11
  21110992.861    21110995.241     7534310.540 9 -18943189.332 8
  20755907.059    20755909.675    30814861.574 9 -45067735.447 9
  21360378.277    21360380.375    66240716.672 9-105750194.034 9
  24320492.823    24320494.870    93265804.145 8 -84719546.371 8
 86  6 12  3  3 53.0800000  0  4G12G13G 9G11
  21109478.975    21109480.870     7526352.456 9 -18949390.435 8
  20756784.640    20756786.743    30819473.892 9 -45064141.431 8
  21363760.480    21363761.651    66258488.630 8-105736345.753 8
  24323606.800    24323610.509    93282179.994 7 -84706785.975 8
 86  6 12  3  3 59.0800000  0  4G12G13G 9G11
  21107969.215    21107971.431     7518417.507 9 -18955573.521 9
  20757664.724    20757667.319    30824097.428 9 -45060538.673 9
  21367145.435    21367148.154    66276279.658 8-105722482.623 8
  24326725.566    24326726.502    93298553.794 8 -84694027.183 8
 86  6 12  3  4  5.0800000  0  4G12G13G 9G11
  21106462.599    21106464.756     7510505.670 9 -18961738.579 8
  20758546.588    20758549.040    30828732.311 9 -45056927.072 9
  21370534.649    21370536.669    66294089.918 7-105708604.507 8
  24329838.411    24329842.115    93314925.554 8 -84681269.979 7
 86  6 12  3  4 11.0800000  0  4G12G13G 9G11
  21104962.743    21104965.125     7502617.026 9 -18967885.576 9
  20759430.318    20759433.148    30833378.460 9 -45053306.699 8
  21373927.878    21373928.719    66311919.348 9-105694711.444 8
  24332953.759    24332956.133    93331295.255 8 -84668514.369 8
 86  6 12  3  4 17.0800000  0  4G12G13G 9G11
  21103465.453    21103467.707     7494751.563 9 -18974014.512 9
  20760316.497    20760319.505    30838035.845 9 -45049677.574 9
  21377324.850    21377326.411    66329767.915 8-105680803.473 9
  24336070.538    24336072.147    93347662.898 7 -84655760.365 8
 86  6 12  3  4 23.0800000  0  4G12G13G 9G11
  21101973.361    21101975.568     7486909.291 9 -18980125.376 8
  20761206.255    20761207.481    30842704.444 9 -45046039.709 9
  21380725.403    21380725.800    66347635.687 9-105666880.544 8
  24339182.587    24339187.468    93364028.496 9 -84643007.964 8
 86  6 12  3  4 29.0800000  0  4G12G13G 9G11
  21100485.567    21100487.775     7479090.206 9 -18986218.158 9
  20762095.803    20762098.200    30847384.260 9 -45042393.089 9
  21384127.753    21384129.625    66365522.603 9-105652942.684 9
  24342297.839    24342300.938    93380392.025 8 -84630257.169 7
 86  6 12  3  4 35.0800000  0  4G12G13G 9G11
  21099002.411    21099003.675     7471294.325 9 -18992292.874 8
  20762988.856    20762990.601    30852075.267 9 -45038737.754 8
  21387535.286    21387537.272    66383428.643 9-105638989.922 8
  24345412.198    24345413.957    93396753.505 8 -84617507.970 7
 86  6 12  3  4 41.0800000  0  4G12G13G 9G11
  21097523.793    21097524.987     7463521.578 9 -18998349.564 8
  20763883.919    20763885.779    30856777.491 9 -45035073.691 9
  21390946.827    21390948.167    66401353.669 9-105625022.376 8
  24348524.288    24348526.737    93413112.841 7 -84604760.427 7
 86  6 12  3  4 47.0800000  0  4G12G13G 9G11
  21096048.214    21096049.813     7455772.041 9 -19004388.169 8
  20764779.735    20764782.021    30861490.883 9 -45031400.915 9
  21394361.799    21394362.745    66419297.673 9-105611040.047 9
  24351636.106    24351640.332    93429470.082 8 -84592014.562 7
 86  6 12  3  4 53.0800000  0  4G12G13G 9G11
  21094577.887    21094579.538     7448045.867 9 -19010408.564 8
  20765679.829    20765682.035    30866215.317 9 -45027719.536 9
  21397779.777    21397782.168    66437260.746 8-105597042.846 8
  24354750.286    24354752.886    93445825.194 7 -84579270.323 8
 86  6 12  3  4 59.0800000  0  4G12G13G 9G11
  21093111.757    21093113.451     7440343.036 9 -19016410.770 9
  20766579.250    20766582.735    30870950.884 9 -45024029.487 9
  21401201.448    21401203.582    66455242.875 9-105583030.801 8
  24357859.566    24357865.193    93462178.312 8 -84566527.641 7
 86  6 12  3  5  5.0800000  0  4G12G13G 9G11
  21091650.809    21091651.129     7432663.534 9 -19022394.791 9
  20767484.264    20767485.314    30875697.522 9 -45020330.803 9
  21404627.213    21404628.415    66473243.979 9-105569003.965 9
  24360971.909    24360974.790    93478529.286 8 -84553786.631 8
 86  6 12  3  5 11.0800000  0  4G12G13G 9G11
  21090193.887    21090196.118     7425007.251 9 -19028360.735 8
  20768389.461    20768391.166    30880455.229 9 -45016623.502 8
  21408056.663    21408057.039    66491264.004 8-105554962.398 8
  24364083.058    24364086.307    93494878.118 7 -84541047.289 7
 86  6 12  3  5 17.0800000  0  4G12G13G 9G11
  21088741.349    21088743.489     7417374.289 9 -19034308.496 9
  20769297.015    20769298.380    30885224.067 9 -45012907.515 9
  21411488.752    21411489.742    66509303.006 9-105540906.040 9
  24367194.477    24367196.198    93511224.870 8 -84528309.571 8
 86  6 12  3  5 23.0800000  0  4G12G13G 9G11
  21087293.747    21087294.776     7409764.724 9 -19040238.023 8
  20770206.361    20770207.466    30890003.966 9 -45009182.929 9
  21414924.622    21414926.025    66527360.944 8-105526834.924 8
  24370304.442    24370307.772    93527569.578 8 -84515573.460 7
 86  6 12  3  5 29.0800000  0  4G12G13G 9G11
  21085849.731    21085851.101     7402178.553 9 -19046149.337 8
  20771117.923    20771120.043    30894794.977 9 -45005449.672 8
  21418365.237    21418366.069    66545437.782 9-105512749.074 8
  24373414.109    24373416.543    93543912.116 8 -84502839.010 8
 86  6 12  3  5 35.0800000  0  4G12G13G 9G11
  21084410.876    21084412.819     7394615.648 9 -19052042.503 9
  20772032.172    20772033.164    30899597.023 9 -45001707.821 9
  21421809.173    21421811.247    66563533.359 9-105498648.626 9
  24376523.618    24376526.465    93560252.501 8 -84490106.250 8
 86  6 12  3  5 41.0800000  0  4G12G13G 9G11
  21082975.950    21082977.624     7387076.133 9 -19057917.458 8
  20772948.120    20772950.154    30904410.107 9 -44997957.354 9
  21425255.799    21425257.405    66581647.871 9-105484533.429 8
  24379632.490    24379635.220    93576590.722 7 -84477375.174 7
 86  6 12  3  5 47.0800000  0  4G12G13G 9G11
  21081546.260    21081547.183     7379560.082 9 -19063774.110 8
  20773865.639    20773867.042    30909234.307 9 -44994198.245 9
  21428705.798    21428708.474    66599781.209 8-105470403.557 8
  24382741.430    24382745.227    93592926.844 7 -84464645.740 7
 86  6 12  3  5 53.0800000  0  4G12G13G 9G11
  21080120.256    21080121.990     7372067.409 9 -19069612.574 7
  20774785.083    20774786.396    30914069.421 9 -44990430.615 8
  21432160.781    21432162.945    66617933.342 8-105456259.046 8
  24385849.728    24385852.303    93609260.773 7 -84451918.003 8
 86  6 12  3  5 59.0800000  0  4G12G13G 9G11
  21078698.819    21078699.587     7364598.213 9 -19075432.725 9
  20775708.240    20775709.986    30918915.506 9 -44986654.456 9
  21435618.229    21435620.730    66636104.300 9-105442099.857 9
  24388956.506    24388960.351    93625592.553 9 -84439191.944 7
 86  6 12  3  6  5.0800000  0  4G12G13G 9G11
  21077282.504    21077282.998     7357152.433 9 -19081234.636 8
  20776631.807    20776634.794    30923772.575 9 -44982869.722 8
  21439080.936    21439082.009    66654294.061 8-105427926.015 8
  24392065.672    24392067.859    93641922.155 8 -84426467.598 8
 86  6 12  3  6 11.0800000  0  4G12G13G 9G11
  21075870.104    21075871.244     7349730.081 9 -19087018.281 8
  20777558.928    20777559.517    30928640.681 9 -44979076.381 9
  21442545.558    21442546.823    66672502.446 9-105413737.674 8
  24395170.899    24395174.639    93658249.548 8 -84413744.961 7
 86  6 12  3  6 17.0800000  0  4G12G13G 9G11
  21074460.353    21074462.868     7342331.258 9 -19092783.596 9
  20778487.229    20778488.550    30933519.713 9 -44975274.546 9
  21446013.596    21446015.545    66690729.636 9-105399534.667 8
  24398279.577    24398282.132    93674574.809 8 -84401023.991 7
 86  6 12  3  6 23.0800000  0  4G12G13G 9G11
  21073057.777    21073060.076     7334955.915 9 -19098530.622 8
  20779417.787    20779419.340    30938409.650 9 -44971464.211 9
  21449486.151    21449487.495    66708975.444 9-105385317.169 9
  24401384.422    24401387.814    93690897.858 7 -84388304.755 7
 86  6 12  3  6 29.0800000  0  4G12G13G 9G11
  21071659.197    21071660.151     7327604.150 9 -19104259.263 9
  20780349.552    20780351.773    30943310.470 9 -44967645.387 9
  21452961.880    21452963.199    66727239.920 9-105371085.104 9
  24404490.822    24404493.326    93707218.715 7 -84375587.204 9
 86  6 12  3  6 35.0800000  0  4G12G13G 9G11
  21070264.089    21070265.515     7320275.964 9 -19109969.548 8
  20781285.059    20781286.472    30948222.236 9 -44963818.034 9
  21456440.361    21456442.206    66745523.150 9-105356838.438 8
  24407596.000    24407599.273    93723537.410 8 -84362871.356 7
 86  6 12  3  6 41.0800000  0  4G12G13G 9G11
  21068874.419    21068876.133     7312971.278 9 -19115661.514 8
  20782221.781    20782223.278    30953144.765 9 -44959982.300 9
  21459923.044    21459923.631    66763824.992 9-105342577.271 8
  24410701.241    24410703.331    93739853.882 8 -84350157.219 8
 86  6 12  3  6 47.0800000  0  4G12G13G 9G11
  21067489.089    21067490.840     7305690.147 9 -19121335.125 8
  20783160.299    20783161.709    30958078.094 9 -44956138.143 9
  21463410.479    21463411.754    66782145.388 9-105328301.635 8
  24413804.808    24413807.427    93756168.134 8 -84337444.834 8
 86  6 12  3  6 53.0800000  0  4G12G13G 9G11
  21066107.506    21066108.400     7298432.561 9 -19126990.388 8
  20784100.839    20784103.597    30963022.219 9 -44952285.576 8
  21466900.264    21466900.676    66800484.325 9-105314011.559 8
  24416909.419    24416912.087    93772480.114 8 -84324734.202 8
 86  6 12  3  6 59.0800000  0  4G12G13G 9G11
  21064731.051    21064732.004     7291198.549 9 -19132627.286 8
  20785044.213    20785045.732    30967977.267 9 -44948424.500 9
  21470392.111    21470394.368    66818841.834 9-105299707.016 8
  24420011.795    24420015.305    93788789.812 9 -84312025.341 8
 86  6 12  3  7  5.0800000  0  4G12G13G 9G11
  21063358.971    21063360.614     7283988.156 9 -19138245.773 8
  20785989.447    20785990.929    30972943.151 9 -44944554.986 9
  21473890.070    21473890.371    66837217.870 9-105285388.030 9
  24423116.047    24423118.584    93805097.259 9 -84299318.239 8
 86  6 12  3  7 11.0800000  0  4G12G13G 9G11
  21061991.080    21061992.467     7276801.476 9 -19143845.783 7
  20786936.323    20786937.568    30977919.968 9 -44940676.948 8
  21477389.984    21477391.348    66855612.442 9-105271054.600 9
  24426219.378    24426222.684    93821402.514 8 -84286612.862 7
 86  6 12  3  7 17.0800000  0  4G12G13G 9G11
  21060627.823    21060629.680     7269638.460 9 -19149427.356 8
  20787885.460    20787887.056    30982907.591 9 -44936790.486 9
  21480893.681    21480894.762    66874025.411 9-105256706.834 9
  24429322.100    24429323.473    93837705.523 9 -84273909.209 8
 86  6 12  3  7 23.0800000  0  4G12G13G 9G11
  21059269.052    21059271.058     7262499.075 9 -19154990.516 9
  20788836.875    20788838.526    30987905.980 9 -44932895.644 8
  21484400.745    21484402.344    66892456.888 9-105242344.650 8
  24432422.816    24432425.833    93854006.318 9 -84261207.309 8
 86  6 12  3  7 29.0800000  0  4G12G13G 9G11
  21057915.391    21057916.909     7255383.365 9 -19160535.222 8
  20789790.274    20789790.855    30992915.065 9 -44928992.459 9
  21487911.419    21487913.324    66910906.786 9-105227968.107 9
  24435524.617    24435528.018    93870304.835 8 -84248507.147 8
 86  6 12  3  7 35.0800000  0  4G12G13G 9G11
  21056566.466    21056567.670     7248291.343 9 -19166061.472 8
  20790746.237    20790747.396    30997934.869 9 -44925080.916 9
  21491427.017    21491427.945    66929375.140 9-105213577.189 9
  24438625.770    24438628.604    93886601.094 9 -84235808.771 7
 86  6 12  3  7 41.0800000  0  4G12G13G 9G11
  21055221.195    21055222.990     7241223.047 9 -19171569.237 8
  20791702.002    20791704.532    31002965.363 9 -44921161.047 8
  21494944.958    21494945.306    66947861.940 9-105199171.886 9
  24441726.996    24441728.460    93902895.083 9 -84223112.145 7
 86  6 12  3  7 47.0800000  0  4G12G13G 9G11
  21053880.289    21053881.532     7234178.372 9 -19177058.599 8
  20792661.723    20792663.351    31008006.532 9 -44917232.868 9
  21498465.649    21498467.464    66966367.137 9-105184752.262 9
  24444826.349    24444828.560    93919186.728 9 -84210417.354 8
 86  6 12  3  7 53.0800000  0  4G12G13G 9G11
  21052544.268    21052545.875     7227157.413 9 -19182529.470 9
  20793621.743    20793625.054    31013058.374 8 -44913296.364 9
  21501990.833    21501992.548    66984890.678 9-105170318.329 8
  24447926.341    24447928.554    93935476.025 8 -84197724.388 8
 86  6 12  3  7 59.0800000  0  4G12G13G 9G11
  21051212.978    21051213.997     7220160.247 9 -19187981.807 8
  20794585.863    20794588.715    31018120.924 9 -44909351.526 9
  21505519.308    21505521.254    67003432.488 9-105155870.174 9
  24451026.295    24451027.779    93951763.114 9 -84185033.147 8
 86  6 12  3  8  5.0800000  0  4G12G13G 9G11
  21049885.832    21049887.604     7213186.858 9 -19193415.627 8
  20795551.295    20795552.479    31023194.131 9 -44905398.376 8
  21509049.988    21509051.935    67021992.623 9-105141407.737 9
  24454125.167    24454127.131    93968047.869 9 -84172343.730 8
 86  6 12  3  8 11.0800000  0  4G12G13G 9G11
  21048564.102    21048565.009     7206237.304 9 -19198830.856 8
  20796519.103    20796521.412    31028278.109 9 -44901436.836 8
  21512586.474    21512586.360    67040571.069 8-105126931.030 9
  24457222.909    24457225.281    93984330.321 9 -84159656.100 8
 86  6 12  3  8 17.0800000  0  4G12G13G 9G11
  21047244.909    21047246.895     7199311.506 9 -19204227.588 8
  20797488.746    20797490.717    31033372.727 9 -44897467.002 8
  21516124.878    21516126.580    67059167.673 9-105112440.180 8
  24460320.639    24460322.757    94000610.416 9 -84146970.303 9
 86  6 12  3  8 23.0800000  0  4G12G13G 9G11
  21045931.956    21045933.004     7192409.562 9 -19209605.724 8
  20798460.240    20798461.287    31038477.957 9 -44893488.901 9
  21519667.004    21519667.990    67077782.600 9-105097935.043 8
  24463419.422    24463421.931    94016888.236 9 -84134286.276 7
 86  6 12  3  8 29.0800000  0  4G12G13G 9G11
  21044622.894    21044624.678     7185531.439 9 -19214965.304 8
  20799433.780    20799435.456    31043593.836 9 -44889502.509 9
  21523212.535    21523213.778    67096415.765 8-105083415.696 8
  24466515.377    24466518.472    94033163.695 9 -84121604.099 8
 86  6 12  3  8 35.0800000  0  4G12G13G 9G11
  21043319.444    21043320.269     7178677.148 9 -19220306.302 8
  20800408.714    20800411.297    31048720.275 9 -44885507.879 7
  21526762.446    21526764.333    67115067.111 9-105068882.190 8
  24469612.869    24469615.496    94049436.786 9 -84108923.751 8
 86  6 12  3  8 41.0800000  0  4G12G13G 9G11
  21042018.221    21042020.752     7171846.679 9 -19225628.745 8
  20801385.491    20801388.466    31053857.292 9 -44881505.008 8
  21530314.185    21530315.836    67133736.537 9-105054334.580 8
  24472708.624    24472711.789    94065707.566 9 -84096245.239 8
 86  6 12  3  8 47.0800000  0  4G12G13G 9G11
  21040723.449    21040726.032     7165040.039 8 -19230932.619 9
  20802365.900    20802367.547    31059004.859 9 -44877493.919 8
  21533871.449    21533872.438    67152424.186 8-105039772.782 8
  24475805.185    24475807.456    94081976.013 9 -84083568.511 7
 86  6 12  3  8 53.0800000  0  4G12G13G 9G11
  21039432.178    21039436.156     7158257.271 9 -19236217.898 8
  20803347.822    20803349.730    31064162.989 9 -44873474.601 9
  21537430.030    21537432.824    67171129.945 9-105025196.872 8
  24478899.566    24478901.834    94098242.090 9 -84070893.630 7
 86  6 12  3  8 59.0800000  0  4G12G13G 9G11
  21038146.822    21038148.422     7151498.410 9 -19241484.539 8
  20804331.556    20804332.646    31069331.780 9 -44869446.972 8
  21540993.194    21540995.412    67189853.770 9-105010606.887 9
  24481995.258    24481996.645    94114505.822 9 -84058220.587 8
 86  6 12  3  9  5.0800000  0  4G12G13G 9G11
  21036864.673    21036867.092     7144763.462 9 -19246732.550 8
  20805316.942    20805320.163    31074511.161 9 -44865411.089 8
  21544560.077    21544562.217    67208595.696 8-104996002.792 9
  24485089.395    24485092.079    94130767.211 9 -84045549.377 8
 86  6 12  3  9 11.0800000  0  4G12G13G 9G11
  21035586.968    21035589.731     7138052.392 9 -19251961.959 9
  20806304.711    20806306.056    31079701.032 9 -44861367.033 8
  21548131.044    21548130.920    67227355.673 9-104981384.621 8
  24488182.928    24488185.174    94147026.253 9 -84032879.975 8
 86  6 12  3  9 17.0800000  0  4G12G13G 9G11
  21034315.176    21034318.134     7131365.305 9 -19257172.675 9
  20807294.048    20807296.108    31084901.415 9 -44857314.780 8
  21551702.960    21551705.126    67246133.694 9-104966752.407 8
  24491276.968    24491279.421    94163282.956 9 -84020212.411 7
 86  6 12  3  9 23.0800000  0  4G12G13G 9G11
  21033046.685    21033049.856     7124702.140 9 -19262364.751 9
  20808286.382    20808287.278    31090112.355 9 -44853254.312 9
  21555279.773    21555281.505    67264929.747 9-104952106.132 8
  24494369.463    24494371.562    94179537.295 9 -84007546.678 8
 86  6 12  3  9 29.0800000  0  4G12G13G 9G11
  21031783.833    21031786.682     7118062.982 9 -19267538.118 9
  20809279.165    20809280.976    31095333.812 9 -44849185.638 9
  21558860.047    21558861.690    67283743.769 9-104937445.864 8
  24497463.063    24497465.607    94195789.237 9 -83994882.813 9
 86  6 12  3  9 35.0800000  0  4G12G13G 9G11
  21030524.951    21030527.325     7111447.750 9 -19272692.841 8
  20810275.054    20810277.194    31100565.623 9 -44845108.904 9
  21562444.211    21562445.241    67302575.746 9-104922771.590 9
  24500554.895    24500556.939    94212038.724 9 -83982220.876 8
 86  6 12  3  9 41.0800000  0  4G12G13G 9G11
  21029270.989    21029273.402     7104856.540 9 -19277828.849 9
  20811271.746    20811273.514    31105807.892 9 -44841024.020 8
  21566031.070    21566032.355    67321425.729 9-104908083.297 8
  24503647.052    24503648.577    94228285.835 9 -83969560.781 9
 86  6 12  3  9 47.0800000  0  4G12G13G 9G11
  21028021.586    21028023.032     7098289.358 9 -19282946.129 9
  20812271.939    20812273.521    31111060.511 9 -44836931.064 8
  21569621.642    21569622.576    67340293.654 9-104893381.023 8
  24506737.428    24506740.351    94244530.557 9 -83956902.553 8
 86  6 12  3  9 53.0800000  0  4G12G13G 9G11
  21026776.222    21026778.288     7091746.324 9 -19288044.601 8
  20813273.531    20813275.491    31116323.565 9 -44832829.976 8
  21573215.251    21573216.089    67359179.458 9-104878664.821 9
  24509828.232    24509831.017    94260772.912 9 -83944246.158 8
 86  6 12  3  9 59.0800000  0  4G12G13G 9G11
  21025535.649    21025537.215     7085227.319 8 -19293124.343 9
  20814277.192    20814279.172    31121597.027 9 -44828720.785 9
  21576812.526    21576813.116    67378083.092 9-104863934.724 9
  24512918.281    24512921.109    94277012.812 9 -83931591.670 9
 86  6 12  3 10  5.0800000  0  4G12G13G 9G11
  21024299.816    21024301.682     7078732.367 9 -19298185.350 8
  20815283.140    20815284.278    31126880.882 9 -44824603.498 8
  21580412.778    21580414.338    67397004.554 9-104849190.724 9
  24516008.552    24516010.634    94293250.245 9 -83918939.114 9
 86  6 12  3 10 11.0800000  0  4G12G13G 9G11
  21023069.215    21023070.759     7072261.366 9 -19303227.676 8
  20816289.222    20816291.731    31132175.094 9 -44820478.136 9
  21584016.721    21584018.394    67415943.792 8-104834432.880 8
  24519098.544    24519100.358    94309485.239 9 -83906288.466 8
 86  6 12  3 10 17.0800000  0  4G12G13G 9G11
  21021841.076    21021843.570     7065814.415 8 -19308251.279 8
  20817299.912    20817301.130    31137479.646 9 -44816344.721 9
  21587624.037    21587625.810    67434900.897 9-104819661.109 9
  24522187.092    24522190.380    94325717.804 9 -83893639.697 8
 86  6 12  3 10 23.0800000  0  4G12G13G 9G11
  21020618.719    21020620.927     7059391.575 9 -19313256.097 9
  20818311.102    20818313.111    31142794.520 9 -44812203.265 9
  21591235.275    21591236.933    67453875.786 8-104804875.479 8
  24525275.518    24525278.532    94341947.952 9 -83880992.815 9
 86  6 12  3 10 29.0800000  0  4G12G13G 9G11
  21019401.868    21019404.262     7052992.833 9 -19318242.115 8
  20819324.662    20819326.671    31148119.731 9 -44808053.742 9
  21594849.148    21594851.325    67472868.404 8-104790076.049 8
  24528363.754    24528367.296    94358175.697 9 -83868347.811 9
 86  6 12  3 10 35.0800000  0  4G12G13G 9G11
  21018188.333    21018190.719     7046618.208 9 -19323209.360 9
  20820339.167    20820341.753    31153455.199 9 -44803896.228 9
  21598466.822    21598468.900    67491878.787 8-104775262.773 8
  24531450.915    24531453.617    94374400.950 9 -83855704.749 9
 86  6 12  3 10 41.0800000  0  4G12G13G 9G11
  21016981.010    21016983.186     7040267.773 9 -19328157.751 8
  20821356.991    20821358.278    31158800.984 9 -44799730.692 9
  21602087.853    21602089.411    67510906.906 9-104760435.670 9
  24534538.620    24534541.048    94390623.785 9 -83843063.569 9
 86  6 12  3 10 47.0800000  0  4G12G13G 9G11
  21015776.357    21015778.148     7033941.479 9 -19333087.331 9
  20822376.123    20822378.243    31164157.088 9 -44795557.088 9
  21605712.485    21605712.845    67529952.651 9-104745594.836 8
  24537624.741    24537628.122    94406844.154 9 -83830424.314 9
 86  6 12  3 10 53.0800000  0  4G12G13G 9G11
  21014577.229    21014579.161     7027639.396 9 -19337998.040 9
  20823396.683    20823399.055    31169523.473 8 -44791375.494 9
  21609340.038    21609341.583    67549016.090 9-104730740.203 9
  24540710.922    24540714.240    94423062.043 9 -83817786.986 8
 86  6 12  3 10 59.0800000  0  4G12G13G 9G11
  21013381.839    21013385.394     7021361.455 9 -19342889.938 9
  20824419.567    20824422.185    31174900.062 9 -44787185.949 9
  21612971.019    21612971.571    67568097.208 8-104715871.806 9
  24543796.993    24543800.212    94439277.465 9 -83805151.594 8
 86  6 12  3 11  5.0800000  0  4G12G13G 9G11
  21012192.296    21012195.024     7015107.676 8 -19347763.018 9
  20825445.605    20825447.250    31180286.838 9 -44782988.460 8
  21616606.215    21616606.388    67587195.866 8-104700989.729 9
  24546882.546    24546884.294    94455490.299 9 -83792518.202 9
 86  6 12  3 11 11.0800000  0  4G12G13G 9G11
  21011007.763    21011009.393     7008878.117 9 -19352617.218 8
  20826472.224    20826474.416    31185683.863 9 -44778782.989 8
  21620242.351    21620243.268    67606312.112 9-104686093.962 8
  24549966.757    24549970.263    94471700.660 9 -83779886.760 8
 86  6 12  3 11 17.0800000  0  4G12G13G 9G11
  21009825.759    21009827.765     7002672.721 9 -19357452.576 8
  20827501.195    20827502.663    31191091.098 9 -44774569.557 9
  21623883.926    21623885.413    67625445.966 9-104671184.472 9
  24553051.411    24553053.805    94487908.499 9 -83767257.272 9
 86  6 12  3 11 23.0800000  0  4G12G13G 9G11
  21008650.182    21008651.892     6996491.647 9 -19362269.004 9
  20828532.341    20828533.703    31196508.558 9 -44770348.152 9
  21627529.249    21627529.408    67644597.457 9-104656261.246 8
  24556134.584    24556137.874    94504113.908 9 -83754629.682 9
 86  6 12  3 11 29.0800000  0  4G12G13G 9G11
  21007478.195    21007480.365     6990334.802 9 -19367066.542 8
  20829565.101    20829567.479    31201936.176 9 -44766118.839 9
  21631177.091    21631177.320    67663766.306 8-104641324.475 8
  24559217.713    24559221.193    94520316.728 9 -83742004.091 8
 86  6 12  3 11 35.0800000  0  4G12G13G 9G11
  21006310.952    21006313.009     6984202.214 9 -19371845.185 8
  20830598.503    20830601.530    31207373.913 9 -44761881.650 8
  21634827.047    21634828.924    67682952.734 9-104626374.018 8
  24562300.565    24562302.570    94536517.128 9 -83729380.397 8
 86  6 12  3 11 41.0800000  0  4G12G13G 9G11
  21005148.591    21005150.979     6978093.899 9 -19376604.913 8
  20831637.013    20831638.386    31212821.788 9 -44757636.549 9
  21638480.874    21638483.447    67702156.684 8-104611409.903 8
  24565383.244    24565385.170    94552715.037 9 -83716758.641 9
 86  6 12  3 11 47.0800000  0  4G12G13G 9G11
  21003991.733    21003992.458     6972009.876 9 -19381345.710 8
  20832674.243    20832676.889    31218279.778 9 -44753383.563 9
  21642139.389    21642140.179    67721378.119 9-104596432.160 8
  24568464.929    24568467.402    94568910.446 9 -83704138.834 9
 86  6 12  3 11 53.0800000  0  4G12G13G 9G11
  21002838.031    21002840.052     6965950.096 9 -19386067.617 8
  20833715.088    20833716.825    31223747.945 9 -44749122.656 8
  21645800.598    21645801.695    67740616.913 8-104581440.899 9
  24571546.874    24571549.175    94585103.309 9 -83691521.009 8
 86  6 12  3 11 59.0800000  0  4G12G13G 9G11
  21001690.148    21001692.030     6959914.671 9 -19390770.540 9
  20834757.827    20834760.148    31229226.209 9 -44744853.883 8
  21649465.719    21649466.654    67759873.113 9-104566436.078 8
  24574627.971    24574628.838    94601293.642 9 -83678905.157 9
 86  6 12  3 12  5.0800000  0  4G12G13G 9G11
  21000545.554    21000546.976     6953903.550 9 -19395454.532 8
  20835801.858    20835803.998    31234714.586 9 -44740577.231 9
  21653132.198    21653134.557    67779146.633 9-104551417.748 8
  24577707.072    24577709.569    94617481.445 9 -83666291.273 8
 86  6 12  3 12 11.0800000  0  4G12G13G 9G11
  20999406.630    20999408.131     6947916.792 9 -19400119.540 9
  20836847.725    20836850.847    31240213.094 9 -44736292.666 8
  21656803.360    21656804.795    67798437.561 9-104536385.868 9
  24580787.891    24580789.251    94633666.744 9 -83653679.344 9
 86  6 12  3 12 17.0800000  0  4G12G13G 9G11
  20998272.046    20998273.004     6941954.378 9 -19404765.566 8
  20837897.880    20837898.652    31245721.615 9 -44732000.319 9
  21660476.932    21660478.479    67817745.790 9-104521340.492 8
  24583867.646    24583869.501    94649849.448 9 -83641069.455 9
 86  6 12  3 12 23.0800000  0  4G12G13G 9G11
  20997142.079    20997144.001     6936016.342 9 -19409392.610 9
  20838946.423    20838949.811    31251240.153 9 -44727700.154 9
  21664155.820    21664157.045    67837071.352 9-104506281.620 9
  24586945.896    24586948.102    94666029.585 9 -83628461.549 8
 86  6 12  3 12 29.0800000  0  4G12G13G 9G11
  20996017.003    20996018.994     6930102.686 9 -19414000.652 8
  20839998.606    20840001.285    31256768.786 9 -44723392.130 9
  21667835.632    21667837.367    67856414.120 9-104491209.344 8
  24590024.589    24590027.020    94682207.144 9 -83615855.667 9
 86  6 12  3 12 35.0800000  0  4G12G13G 9G11
  20994896.118    20994898.050     6924213.374 9 -19418589.725 9
  20841053.394    20841055.013    31262307.418 9 -44719076.312 9
  21671518.877    21671521.365    67875774.093 9-104476123.647 8
  24593102.603    24593105.281    94698382.084 9 -83603251.803 9
 86  6 12  3 12 41.0800000  0  4G12G13G 9G11
  20993780.392    20993782.132     6918348.529 9 -19423159.740 9
  20842109.736    20842111.227    31267856.050 9 -44714752.707 9
  21675206.753    21675207.484    67895151.477 9-104461024.390 9
  24596179.683    24596182.167    94714554.465 9 -83590649.956 9
 86  6 12  3 12 47.0800000  0  4G12G13G 9G11
  20992668.444    20992670.103     6912508.067 9 -19427710.751 9
  20843166.893    20843168.378    31273414.685 9 -44710421.297 9
  21678897.154    21678899.570    67914546.029 8-104445911.751 9
  24599257.473    24599259.442    94730724.249 9 -83578050.120 9
 86  6 12  3 12 53.0800000  0  4G12G13G 9G11
  20991562.411    20991563.630     6906692.012 9 -19432242.735 9
  20844227.648    20844228.855    31278983.318 9 -44706082.104 8
  21682592.244    21682592.690    67933957.774 9-104430785.729 9
  24602332.807    24602336.522    94746891.466 9 -83565452.283 9
 86  6 12  3 12 59.0800000  0  4G12G13G 9G11
  20990459.337    20990460.993     6900900.413 8 -19436755.670 9
  20845288.666    20845288.972    31284561.947 9 -44701735.114 9
  21686288.248    21686290.197    67953386.696 9-104415646.308 8
  24605410.413    24605411.860    94763056.050 9 -83552856.509 9
 86  6 12  3 13  5.0800000  0  4G12G13G 9G11
  20989363.203    20989363.134     6895133.213 9 -19441249.583 8
  20846351.533    20846353.524    31290150.451 9 -44697380.448 9
  21689988.808    21689991.741    67972832.711 9-104400493.576 9
  24608485.286    24608487.388    94779218.023 9 -83540262.777 9
 86  6 12  3 13 11.0800000  0  4G12G13G 9G11
  20988269.458    20988271.248     6889390.510 9 -19445724.426 8
  20847417.622    20847420.120    31295748.858 9 -44693018.038 8
  21693694.203    21693694.558    67992295.885 9-104385327.469 7
  24611560.667    24611561.817    94795377.450 9 -83527671.010 8
 86  6 12  3 13 17.0800000  0  4G12G13G 9G11
  20987181.435    20987182.316     6883672.205 9 -19450180.249 8
  20848484.298    20848486.086    31301357.201 9 -44688647.905 8
  21697400.740    21697402.411    68011776.093 9-104370148.089 8
  24614634.370    24614636.611    94811534.276 9 -83515081.292 8
 86  6 12  3 13 23.0800000  0  4G12G13G 9G11
  20986098.668    20986100.318     6877978.440 9 -19454616.951 8
  20849553.272    20849554.937    31306975.360 9 -44684270.118 8
  21701111.226    21701112.801    68031273.410 9-104354955.369 8
  24617708.615    24617711.421    94827688.499 9 -83502493.598 8
 86  6 12  3 13 29.0800000  0  4G12G13G 9G11
  20985019.373    20985021.356     6872309.221 9 -19459034.525 8
  20850624.358    20850625.739    31312603.388 9 -44679884.638 9
  21704823.487    21704825.706    68050787.835 8-104339749.337 8
  24620781.212    24620784.870    94843840.091 9 -83489907.946 9
 86  6 12  3 13 35.0800000  0  4G12G13G 9G11
  20983945.406    20983947.586     6866664.435 9 -19463433.052 8
  20851697.330    20851698.792    31318241.186 8 -44675491.554 9
  21708539.673    21708540.790    68070319.233 9-104324530.074 9
  24623855.081    24623857.384    94859989.048 9 -83477324.343 8
 86  6 12  3 13 41.0800000  0  4G12G13G 9G11
  20982875.448    20982876.654     6861044.226 9 -19467812.433 8
  20852772.795    20852773.916    31323888.854 9 -44671090.772 9
  21712260.863    21712261.193    68089867.619 9-104309297.553 8
  24626927.148    24626930.700    94876135.403 9 -83464742.781 8
 86  6 12  3 13 47.0800000  0  4G12G13G 9G11
  20981810.531    20981812.843     6855448.543 9 -19472172.715 9
  20853848.503    20853850.442    31329546.395 9 -44666682.291 9
  21715984.111    21715985.257    68109432.933 9-104294051.862 8
  24630000.028    24630002.343    94892279.091 8 -83452163.289 9
 86  6 12  3 13 53.0800000  0  4G12G13G 9G11
  20980749.586    20980752.773     6849877.419 9 -19476513.853 8
  20854927.324    20854928.852    31335213.826 9 -44662266.110 8
  21719709.909    21719711.229    68129015.196 9-104278792.974 9
  24633071.759    24633074.737    94908420.117 9 -83439585.877 9
 86  6 12  3 13 59.0800000  0  4G12G13G 9G11
  20979694.746    20979696.264     6844330.878 9 -19480835.831 8
  20856007.656    20856008.360    31340891.174 9 -44657842.206 9
  21723439.059    21723440.859    68148614.406 9-104263520.860 8
  24636142.366    24636145.095    94924558.554 9 -83427010.483 9
 86  6 12  3 14  5.0800000  0  4G12G13G 9G11
  20978644.220    20978645.050     6838808.934 9 -19485138.640 8
  20857089.818    20857091.291    31346578.269 9 -44653410.698 9
  21727172.726    21727173.583    68168230.596 8-104248235.522 9
  24639213.754    24639215.836    94940694.285 9 -83414437.200 9
 86  6 12  3 14 11.0800000  0  4G12G13G 9G11
  20977597.992    20977598.572     6833311.519 9 -19489422.344 8
  20858173.736    20858175.636    31352275.177 9 -44648971.549 8
  21730907.882    21730909.675    68187863.562 9-104232937.108 8
  24642283.294    24642284.975    94956827.346 8 -83401865.994 9
 86  6 12  3 14 17.0800000  0  4G12G13G 9G11
  20976556.781    20976558.155     6827838.758 9 -19493686.832 8
  20859258.685    20859261.446    31357981.848 9 -44644524.791 8
  21734648.478    21734650.064    68207513.426 9-104217625.526 9
  24645352.353    24645355.543    94972957.796 9 -83389296.828 9
 86  6 12  3 14 23.0800000  0  4G12G13G 9G11
  20975518.895    20975521.626     6822390.675 8 -19497932.098 9
  20860347.964    20860349.855    31363698.291 9 -44640070.424 9
  21738390.101    21738390.818    68227180.155 9-104202300.805 8
  24648421.677    24648424.018    94989085.543 8 -83376729.767 9
 86  6 12  3 14 29.0800000  0  4G12G13G 9G11
  20974488.071    20974490.120     6816967.176 9 -19502158.188 9
  20861437.002    20861438.636    31369424.497 9 -44635608.441 9
  21742136.191    21742137.433    68246863.723 9-104186962.971 8
  24651489.854    24651492.762    95005210.623 8 -83364164.779 9
 86  6 12  3 14 35.0800000  0  4G12G13G 9G11
  20973460.624    20973461.564     6811568.385 9 -19506365.045 8
  20862529.569    20862530.221    31375160.470 9 -44631138.847 9
  21745885.110    21745886.243    68266564.065 9-104171612.063 8
  24654557.376    24654560.768    95021333.054 9 -83351601.863 9
 86  6 12  3 14 41.0800000  0  4G12G13G 9G11
  20972438.178    20972439.732     6806194.305 9 -19510552.637 8
  20863621.944    20863624.313    31380906.188 9 -44626661.671 9
  21749636.981    21749637.795    68286281.097 8-104156248.139 8
  24657625.519    24657628.951    95037452.786 8 -83339041.042 9
 86  6 12  3 14 47.0800000  0  4G12G13G 9G11
  20971419.627    20971421.550     6800844.915 9 -19514720.997 8
  20864716.159    20864719.207    31386661.593 9 -44622176.937 9
  21753391.969    21753392.571    68306014.888 8-104140871.167 8
  24660692.379    24660695.742    95053569.833 8 -83326482.330 8
 86  6 12  3 14 53.0800000  0  4G12G13G 9G11
  20970406.063    20970407.748     6795520.246 9 -19518870.082 8
  20865814.176    20865815.738    31392426.629 9 -44617684.690 9
  21757150.252    21757151.981    68325765.451 9-104125481.125 8
  24663759.440    24663761.988    95069684.225 8 -83313925.682 9
 86  6 12  3 14 59.0800000  0  4G12G13G 9G11
  20969398.201    20969399.150     6790220.239 9 -19522999.964 8
  20866913.782    20866914.283    31398201.307 9 -44613184.950 8
  21760912.796    21760912.941    68345532.717 8-104110078.066 8
  24666825.260    24666828.159    95085795.935 8 -83301371.111 8
 86  6 12  3 15  5.0800000  0  4G12G13G 9G11
  20968394.537    20968395.658     6784944.932 9 -19527110.587 8
  20868013.976    20868015.656    31403985.619 9 -44608677.694 9
  21764676.884    21764677.800    68365316.546 9-104094662.093 8
  24669891.247    24669892.730    95101904.928 9 -83288818.664 9
 86  6 12  3 15 11.0800000  0  4G12G13G 9G11
  20967395.440    20967396.738     6779694.338 9 -19531201.952 8
  20869116.102    20869117.933    31409779.612 9 -44604162.883 9
  21768445.267    21768447.556    68385117.054 9-104079233.130 9
  24672954.972    24672957.885    95118011.196 9 -83276268.342 9
 86  6 12  3 15 17.0800000  0  4G12G13G 9G11
  20966400.586    20966401.743     6774468.491 9 -19535274.052 8
  20870220.786    20870223.764    31415583.241 9 -44599640.583 9
  21772215.711    21772217.426    68404934.208 8-104063791.193 8
  24676020.480    24676022.581    95134114.799 8 -83263720.102 9
 86  6 12  3 15 23.0800000  0  4G12G13G 9G11
  20965410.976    20965412.212     6769267.423 9 -19539326.835 9
  20871326.308    20871329.413    31421396.444 9 -44595110.804 8
  21775989.533    21775991.063    68424767.967 8-104048336.325 8
  24679084.374    24679086.767    95150215.752 8 -83251173.920 8
 86  6 12  3 15 29.0800000  0  4G12G13G 9G11
  20964426.426    20964428.691     6764091.160 9 -19543360.283 8
  20872434.541    20872436.738    31427219.331 9 -44590573.494 8
  21779767.443    21779769.202    68444618.296 9-104032868.535 9
  24682146.687    24682150.136    95166314.011 7 -83238629.849 9
 86  6 12  3 15 35.0800000  0  4G12G13G 9G11
  20963446.132    20963448.197     6758939.592 9 -19547374.491 9
  20873544.679    20873546.765    31433051.731 9 -44586028.772 9
  21783548.820    21783549.061    68464485.161 8-104017387.867 8
  24685210.384    24685213.327    95182409.494 7 -83226087.928 9
 86  6 12  3 15 41.0800000  0  4G12G13G 9G11
  20962469.605    20962471.902     6753812.827 9 -19551369.370 9
  20874656.429    20874658.778    31438893.702 9 -44581476.575 8
  21787331.937    21787332.756    68484368.622 8-104001894.265 9
  24688274.440    24688276.060    95198502.223 8 -83213548.161 8
 86  6 12  3 15 47.0800000  0  4G12G13G 9G11
  20961498.329    20961500.388     6748710.899 9 -19555344.912 8
  20875769.716    20875771.976    31444745.327 9 -44576916.866 8
  21791119.064    21791120.943    68504268.517 8-103986387.854 7
  24691334.193    24691337.913    95214592.265 8 -83201010.470 9
 86  6 12  3 15 53.0800000  0  4G12G13G 9G11
  20960533.194    20960534.641     6743633.751 9 -19559301.122 9
  20876885.392    20876887.338    31450606.562 9 -44572349.673 8
  21794908.138    21794909.846    68524184.917 9-103970868.590 8
  24694394.960    24694399.470    95230679.576 8 -83188474.917 8
 86  6 12  3 15 59.0800000  0  4G12G13G 9G11
  20959572.322    20959573.484     6738581.380 9 -19563238.023 8
  20878002.593    20878005.498    31456477.302 9 -44567775.075 8
  21798702.017    21798702.880    68544117.775 8-103955336.493 8
  24697456.326    24697459.249    95246764.134 7 -83175941.514 8
 86  6 12  3 16  5.0800000  0  4G12G13G 9G11
  20958615.419    20958617.797     6733553.852 9 -19567155.580 8
  20879120.788    20879123.034    31462357.541 9 -44563193.067 8
  21802497.502    21802498.424    68564067.090 9-103939791.580 8
  24700516.597    24700520.163    95262846.004 7 -83163410.201 9
 86  6 12  3 16 11.0800000  0  4G12G13G 9G11
  20957662.969    20957664.600     6728551.093 9 -19571053.832 9
  20880242.249    20880243.891    31468247.220 9 -44558603.704 9
  21806296.482    21806298.472    68584032.753 9-103924233.923 8
  24703576.615    24703579.220    95278925.052 7 -83150881.087 9
 86  6 12  3 16 17.0800000  0  4G12G13G 9G11
  20956715.257    20956718.109     6723573.138 9 -19574932.763 8
  20881364.870    20881366.871    31474146.419 9 -44554006.925 9
  21810099.746    21810101.493    68604014.782 9-103908663.522 8
  24706636.009    24706638.379    95295001.308 7 -83138354.155 8
 86  6 12  3 16 23.0800000  0  4G12G13G 9G11
  20955773.393    20955775.918     6718620.054 9 -19578792.306 8
  20882489.229    20882490.966    31480055.094 9 -44549402.763 9
  21813904.503    21813905.695    68624013.114 9-103893080.402 9
  24709694.273    24709697.539    95311074.788 8 -83125829.370 8
 86  6 12  3 16 29.0800000  0  4G12G13G 9G11
  20954835.124    20954837.137     6713691.856 9 -19582632.458 9
  20883616.330    20883617.449    31485973.213 9 -44544791.249 9
  21817714.415    21817715.617    68644027.777 9-103877484.568 8
  24712753.032    24712756.036    95327145.555 7 -83113306.706 9
 86  6 12  3 16 35.0800000  0  4G12G13G 9G11
  20953901.622    20953903.681     6708788.561 9 -19586453.218 9
  20884743.800    20884746.616    31491900.705 9 -44540172.412 9
  21821525.579    21821527.726    68664058.726 9-103861876.038 8
  24715811.211    24715813.255    95343213.526 6 -83100786.220 8
 86  6 12  3 16 41.0800000  0  4G12G13G 9G11
  20952972.820    20952975.228     6703910.157 9 -19590254.560 9
  20885873.760    20885875.342    31497837.603 9 -44535546.266 9
  21825340.639    21825341.386    68684105.930 9-103846254.839 8
  24718867.371    24718870.704    95359278.638 7 -83088267.970 8
 86  6 12  3 16 47.0800000  0  4G12G13G 9G11
  20952050.252    20952051.558     6699056.675 9 -19594036.506 9
  20887005.102    20887006.930    31503783.860 9 -44530912.817 9
  21829157.331    21829160.406    68704169.408 9-103830620.969 8
  24721923.845    24721926.162    95375340.979 8 -83075751.876 9
 86  6 12  3 16 53.0800000  0  4G12G13G 9G11
  20951131.325    20951133.961     6694228.143 9 -19597798.994 8
  20888137.969    20888140.767    31509739.597 9 -44526271.981 9
  21832980.059    21832981.175    68724249.147 8-103814974.429 8
  24724979.685    24724981.937    95391400.635 8 -83063237.865 9
 86  6 12  3 16 59.0800000  0  4G12G13G 9G11
  20950216.567    20950218.770     6689424.505 9 -19601542.086 8
  20889272.688    20889275.555    31515704.674 9 -44521623.868 9
  21836804.159    21836805.093    68744345.030 9-103799315.298 8
  24728033.295    24728038.927    95407457.471 8 -83050726.050 8
 86  6 12  3 17  5.0800000  0  4G12G13G 9G11
  20949307.752    20949309.642     6684645.834 9 -19605265.718 8
  20890409.977    20890411.986    31521679.101 9 -44516968.469 9
  21840630.581    21840632.009    68764457.156 8-103783643.514 8
  24731089.229    24731093.106    95423511.489 7 -83038216.443 8
 86  6 12  3 17 11.0800000  0  4G12G13G 9G11
  20948402.916    20948405.819     6679892.119 9 -19608969.915 9
  20891548.975    20891550.848    31527662.844 9 -44512305.810 9
  21844460.811    21844462.272    68784585.406 9-103767959.166 8
  24734145.358    24734148.266    95439562.716 7 -83025709.019 9
 86  6 12  3 17 17.0800000  0  4G12G13G 9G11
  20947502.861    20947504.848     6675163.318 9 -19612654.698 9
  20892689.706    20892690.822    31533655.940 9 -44507635.863 8
  21848294.927    21848296.143    68804729.732 9-103752262.292 9
  24737197.701    24737201.147    95455611.128 6 -83013203.771 9
 86  6 12  3 17 23.0800000  0  4G12G13G 9G11
  20946608.457    20946610.285     6670459.459 8 -19616320.042 8
  20893831.892    20893833.451    31539658.354 9 -44502958.657 9
  21852131.336    21852131.595    68824890.156 9-103736552.878 9
  24740250.742    24740255.377    95471656.749 6 -83000700.712 8
 86  6 12  3 17 29.0800000  0  4G12G13G 9G11
  20945717.063    20945719.113     6665780.562 9 -19619965.935 8
  20894975.050    20894977.391    31545670.053 9 -44498274.211 9
  21855970.380    21855971.981    68845066.617 9-103720830.964 9
  24743303.212    24743308.336    95487699.523 6 -82988199.859 9
 86  6 12  3 17 35.0800000  0  4G12G13G 9G11
  20944832.584    20944834.072     6661126.712 9 -19623592.313 8
  20896121.923    20896123.488    31551691.102 9 -44493582.489 8
  21859812.396    21859815.228    68865259.141 8-103705096.531 9
  24746355.318    24746360.620    95503739.482 6 -82975701.215 9
 86  6 12  3 17 41.0800000  0  4G12G13G 9G11
  20943951.055    20943953.431     6656497.915 9 -19627199.151 9
  20897268.482    20897270.444    31557721.434 9 -44488883.530 9
  21863659.306    21863659.236    68885467.725 9-103689349.593 9
  24749407.862    24749411.747    95519776.619 7 -82963204.754 9
 86  6 12  3 17 47.0800000  0  4G12G13G 9G11
  20943074.738    20943078.330     6651894.161 9 -19630786.496 9
  20898417.816    20898419.828    31563761.044 9 -44484177.336 8
  21867507.334    21867508.893    68905692.466 9-103673590.055 7
  24752457.572    24752462.795    95535810.939 7 -82950710.493 8
 86  6 12  3 17 53.0800000  0  4G12G13G 9G11
  20942203.727    20942206.605     6647315.432 9 -19634354.347 9
  20899569.217    20899571.236    31569809.898 9 -44479463.943 8
  21871358.795    21871360.284    68925933.066 8-103657818.165 9
  24755511.086    24755514.077    95551842.482 7 -82938218.389 8
 86  6 12  3 17 59.0800000  0  4G12G13G 9G11
  20941337.176    20941338.268     6642761.677 9 -19637902.719 8
  20900721.962    20900724.088    31575868.038 9 -44474743.305 8
  21875214.119    21875215.352    68946189.551 9-103642033.883 9
  24758560.599    24758563.951    95567871.145 7 -82925728.538 8
 86  6 12  3 18  5.0800000  0  4G12G13G 9G11
  20940475.448    20940478.087     6638233.007 9 -19641431.554 9
  20901877.063    20901879.492    31581935.485 9 -44470015.426 8
  21879070.333    21879071.006    68966461.970 9-103626237.201 8
  24761609.310    24761612.795    95583896.965 7 -82913240.905 8
 86  6 12  3 18 11.0800000  0  4G12G13G 9G11
  20939618.411    20939620.162     6633729.420 9 -19644940.849 9
  20903033.532    20903034.554    31588012.077 9 -44465280.419 8
  21882931.869    21882933.327    68986750.370 9-103610428.064 8
  24764658.402    24764663.499    95599920.030 7 -82900755.409 8
 86  6 12  3 18 17.0800000  0  4G12G13G 9G11
  20938766.759    20938768.834     6629250.929 9 -19648430.577 9
  20904191.089    20904193.901    31594097.872 9 -44460538.233 9
  21886795.435    21886796.694    69007054.641 8-103594606.561 8
  24767706.717    24767711.388    95615940.189 7 -82888272.173 8
 86  6 12  3 18 23.0800000  0  4G12G13G 9G11
  20937918.846    20937920.315     6624797.573 8 -19651900.730 9
  20905350.477    20905353.335    31600192.849 9 -44455788.903 8
  21890662.696    21890664.195    69027374.803 9-103578772.675 8
  24770754.278    24770759.431    95631957.454 8 -82875791.197 9
 86  6 12  3 18 29.0800000  0  4G12G13G 9G11
  20937076.493    20937077.921     6620369.266 9 -19655351.351 9
  20906512.517    20906514.532    31606296.912 9 -44451032.487 9
  21894532.359    21894535.044    69047710.743 9-103562926.488 8
  24773801.973    24773806.373    95647971.833 7 -82863312.468 8
 86  6 12  3 18 35.0800000  0  4G12G13G 9G11
  20936238.775    20936240.342     6615966.049 9 -19658782.427 8
  20907676.044    20907677.709    31612410.174 9 -44446268.901 9
  21898404.940    21898406.586    69068062.540 9-103547067.946 8
  24776848.434    24776853.353    95663983.369 7 -82850835.965 8
 86  6 12  3 18 41.0800000  0  3G12G13G 9
  20935405.630    20935406.819     6611587.865 9 -19662194.019 8
  20908841.390    20908842.551    31618532.636 9 -44441498.153 9
  21902280.900    21902282.025    69088430.102 9-103531197.122 9
 86  6 12  3 18 47.0800000  0  3G12G13G 9
  20934576.076    20934579.380     6607234.835 9 -19665585.963 8
  20910007.858    20910008.613    31624664.283 9 -44436720.246 8
  21906159.376    21906161.879    69108813.441 9-103515314.010 8
 86  6 12  3 18 53.0800000  0  3G12G13G 9
  20933753.627    20933755.047     6602906.991 8 -19668958.326 9
  20911176.753    20911176.947    31630805.010 9 -44431935.262 8
  21910041.003    21910042.992    69129212.542 9-103499418.615 7
 86  6 12  3 18 59.0800000  0  3G12G13G 9
  20932934.700    20932937.240     6598604.262 8 -19672311.096 8
  20912346.221    20912348.069    31636954.786 9 -44427143.225 9
  21913925.949    21913928.566    69149627.279 9-103483511.027 8
 86  6 12  3 19  5.0800000  0  3G12G13G 9
  20932120.413    20932122.157     6594326.767 8 -19675644.202 8
  20913518.742    20913519.190    31643113.758 9 -44422344.016 9
  21917814.385    21917816.616    69170057.660 9-103467591.253 8
 86  6 12  3 19 11.0800000  0  3G12G13G 9
  20931311.142    20931313.400     6590074.377 9 -19678957.760 9
  20914692.502    20914693.105    31649281.777 9 -44417537.775 9
  21921704.082    21921705.564    69190503.684 9-103451659.290 8
 86  6 12  3 19 17.0800000  0  3G12G13G 9
  20930506.918    20930509.072     6585847.201 9 -19682251.658 8
  20915867.041    20915870.362    31655458.878 9 -44412724.447 9
  21925599.499    21925600.660    69210965.493 9-103435715.034 8
 86  6 12  3 19 23.0800000  0  3G12G13G 9
  20929706.870    20929708.952     6581645.200 9 -19685525.939 8
  20917045.534    20917045.920    31661645.037 9 -44407904.061 9
  21929494.464    21929496.554    69231442.889 9-103419758.620 9
 86  6 12  3 19 29.0800000  0  3G12G13G 9
  20928911.844    20928914.353     6577468.337 9 -19688780.644 8
  20918222.983    20918226.245    31667840.120 9 -44403076.726 8
  21933394.687    21933397.038    69251935.800 9-103403790.124 9
 86  6 12  3 19 35.0800000  0  3G12G13G 9
  20928122.111    20928124.175     6573316.770 8 -19692015.641 9
  20919404.513    20919406.536    31674044.207 9 -44398242.364 9
  21937297.634    21937299.653    69272444.299 9-103387809.477 8
 86  6 12  3 19 41.0800000  0  3G12G13G 9
  20927336.698    20927339.009     6569190.308 9 -19695231.059 8
  20920586.333    20920587.651    31680257.333 9 -44393400.963 9
  21941203.732    21941204.659    69292968.252 8-103371816.784 9
 86  6 12  3 19 47.0800000  0  3G12G13G 9
  20926556.658    20926559.648     6565089.143 9 -19698426.771 8
  20921769.946    20921770.735    31686479.487 9 -44388552.527 9
  21945112.595    21945113.286    69313507.809 9-103355811.943 8
 86  6 12  3 19 53.0800000  0  3G12G13G 9
  20925781.265    20925782.830     6561013.206 9 -19701602.829 8
  20922955.989    20922957.929    31692710.593 9 -44383697.124 7
  21949023.100    21949024.962    69334062.785 8-103339795.078 8
 86  6 12  3 19 59.0800000  0  3G12G13G 9
  20925010.512    20925012.350     6556962.490 9 -19704759.234 9
  20924143.978    20924146.199    31698950.601 9 -44378834.781 8
  21952937.694    21952938.835    69354633.225 9-103323766.175 8
 86  6 12  3 20  5.0800000  0  3G12G13G 9
  20924244.505    20924246.574     6552937.081 9 -19707895.917 8
  20925332.866    20925334.268    31705199.557 9 -44373965.462 9
  21956854.804    21956856.227    69375219.152 8-103307725.205 8
 86  6 12  3 20 11.0800000  0  3G12G13G 9
  20923482.608    20923485.588     6548936.880 9 -19711012.942 8
  20926523.732    20926525.491    31711457.439 9 -44369089.185 9
  21960775.695    21960776.740    69395820.423 8-103291672.256 9
 86  6 12  3 20 17.0800000  0  3G12G13G 9
  20922726.424    20922728.774     6544962.004 8 -19714110.251 8
  20927716.405    20927717.796    31717724.328 9 -44364205.889 9
  21964697.848    21964701.005    69416437.200 8-103275607.245 8
 86  6 12  3 20 23.0800000  0  3G12G13G 9
  20921974.496    20921977.100     6541012.543 9 -19717187.757 9
  20928909.984    20928911.285    31724000.119 9 -44359315.668 9
  21968624.172    21968626.446    69437069.370 8-103259530.229 8
 86  6 12  3 20 29.0800000  0  3G12G13G 9
  20921228.301    20921229.932     6537088.313 9 -19720245.595 9
  20930106.473    20930106.881    31730284.756 9 -44354418.542 8
  21972554.193    21972554.466    69457716.803 9-103243441.321 8
 86  6 12  3 20 35.0800000  0  3G12G13G 9
  20920486.635    20920488.298     6533189.405 9 -19723283.706 8
  20931304.147    20931306.026    31736578.190 9 -44349514.565 9
  21976485.528    21976487.616    69478379.542 9-103227340.490 8
 86  6 12  3 20 41.0800000  0  3G12G13G 9
  20919748.991    20919752.125     6529315.852 9 -19726302.061 8
  20932503.420    20932505.531    31742880.483 9 -44344603.682 8
  21980421.416    21980421.984    69499057.612 9-103211227.719 9
 86  6 12  3 20 47.0800000  0  3G12G13G 9
  20919017.370    20919019.012     6525467.673 9 -19729300.645 8
  20933704.522    20933706.221    31749191.678 9 -44339685.868 8
  21984358.616    21984359.559    69519750.914 8-103195103.065 8
 86  6 12  3 20 53.0800000  0  3G12G13G 9
  20918288.804    20918291.243     6521644.710 9 -19732279.575 8
  20934908.166    20934908.583    31755511.544 9 -44334761.294 8
  21988300.054    21988300.625    69540459.414 9-103178966.575 7
 86  6 12  3 20 59.0800000  0  3G12G13G 9
  20917567.021    20917568.816     6517847.165 9 -19735238.703 9
  20936110.827    20936112.701    31761840.340 9 -44329829.765 9
  21992242.409    21992243.695    69561183.149 9-103162818.214 9
 86  6 12  3 21  5.0800000  0  3G12G13G 9
  20916849.140    20916851.811     6514075.011 9 -19738178.038 8
  20937316.637    20937318.605    31768177.918 9 -44324891.395 9
  21996189.224    21996190.857    69581921.967 9-103146658.103 8
 86  6 12  3 21 11.0800000  0  3G12G13G 9
  20916136.189    20916137.897     6510328.230 8 -19741097.603 8
  20938525.080    20938526.267    31774524.313 9 -44319946.144 8
  22000139.192    22000140.720    69602675.965 9-103130486.156 8
 86  6 12  3 21 17.0800000  0  3G12G13G 9
  20915427.055    20915429.225     6506606.845 9 -19743997.391 9
  20939734.948    20939735.749    31780879.632 9 -44314993.948 9
  22004091.416    22004091.950    69623445.198 7-103114302.330 9
 86  6 12  3 21 23.0800000  0  3G12G13G 9
  20914723.969    20914726.798     6502910.843 9 -19746877.394 8
  20940945.357    20940947.634    31787243.675 9 -44310034.951 8
  22008046.707    22008047.992    69644229.531 9-103098106.757 7
 86  6 12  3 21 29.0800000  0  3G12G13G 9
  20914025.928    20914029.023     6499240.268 9 -19749737.579 8
  20942158.450    20942158.730    31793616.547 8 -44305069.077 8
  22012003.833    22012005.090    69665028.971 9-103081899.409 9
 86  6 12  3 21 35.0800000  0  3G12G13G 9
  20913332.829    20913333.932     6495595.089 9 -19752577.989 8
  20943373.157    20943373.970    31799998.094 9 -44300096.439 8
  22015964.982    22015967.502    69685843.398 8-103065680.379 9
 86  6 12  3 21 41.0800000  0  3G12G13G 9
  20912643.136    20912646.061     6491975.365 9 -19755398.547 9
  20944588.818    20944590.033    31806388.398 9 -44295116.975 8
  22019928.401    22019929.877    69706672.860 9-103049449.627 9
 86  6 12  3 21 47.0800000  0  3G12G13G 9
  20911959.977    20911962.207     6488381.141 9 -19758199.237 8
  20945806.181    20945807.534    31812787.444 9 -44290130.709 9
  22023894.910    22023897.068    69727517.442 8-103033207.099 8
 86  6 12  3 21 53.0800000  0  3G12G13G 9
  20911281.504    20911282.398     6484812.286 9 -19760980.171 8
  20947026.277    20947026.906    31819195.118 9 -44285137.712 9
  22027864.965    22027866.413    69748376.937 9-103016952.951 9
 86  6 12  3 21 59.0800000  0  3G12G13G 9
  20910606.137    20910607.720     6481268.861 9 -19763741.277 9
  20948246.333    20948248.413    31825611.538 9 -44280137.899 8
  22031837.681    22031838.754    69769251.453 8-103000687.098 8
 86  6 12  3 22  5.0800000  0  3G12G13G 9
  20909937.354    20909939.357     6477750.828 9 -19766482.592 9
  20949469.014    20949470.647    31832036.542 9 -44275131.402 8
  22035812.836    22035814.007    69790140.837 9-102984409.658 8
 86  6 12  3 22 11.0800000  0  3G12G13G 9
  20909273.173    20909274.152     6474258.327 9 -19769204.034 8
  20950693.546    20950694.976    31838470.189 9 -44270118.169 9
  22039789.930    22039792.076    69811045.170 8-102968120.579 8
 86  6 12  3 22 17.0800000  0  3G12G13G 9
  20908612.604    20908614.403     6470791.329 9 -19771905.588 8
  20951918.839    20951920.587    31844912.465 9 -44265098.214 9
  22043771.717    22043772.347    69831964.389 9-102951819.878 9
 86  6 12  3 22 23.0800000  0  3G12G13G 9
  20907957.014    20907960.003     6467349.757 9 -19774587.335 8
  20953147.355    20953148.178    31851363.260 9 -44260071.622 9
  22047753.685    22047755.898    69852898.437 8-102935507.645 8
 86  6 12  3 22 29.0800000  0  3G12G13G 9
  20907307.672    20907309.271     6463933.665 9 -19777249.220 8
  20954375.662    20954377.315    31857822.756 9 -44255038.239 9
  22051741.194    22051743.016    69873847.350 9-102919183.827 8
 86  6 12  3 22 35.0800000  0  3G12G13G 9
  20906662.089    20906664.293     6460543.035 9 -19779891.266 9
  20955607.723    20955609.417    31864290.832 9 -44249998.177 7
  22055730.081    22055731.628    69894811.022 9-102902848.488 8
 86  6 12  3 22 41.0800000  0  3G12G13G 9
  20906022.259    20906024.211     6457177.959 9 -19782513.397 9
  20956839.235    20956840.786    31870767.465 9 -44244951.445 9
  22059721.944    22059723.533    69915789.487 8-102886501.640 9
 86  6 12  3 22 47.0800000  0  3G12G13G 9
  20905386.158    20905388.727     6453838.390 9 -19785115.668 8
  20958074.118    20958074.421    31877252.741 9 -44239897.986 9
  22063715.412    22063718.031    69936782.749 9-102870143.260 8
 86  6 12  3 22 53.0800000  0  3G12G13G 9
  20904755.621    20904757.687     6450524.337 9 -19787698.048 9
  20959309.980    20959311.039    31883746.600 9 -44234837.833 8
  22067713.513    22067716.622    69957790.711 9-102853773.417 9
 86  6 12  3 22 59.0800000  0  3G12G13G 9
  20904130.929    20904132.423     6447235.857 9 -19790260.495 8
  20960546.790    20960547.822    31890249.074 9 -44229770.956 9
  22071715.539    22071716.311    69978813.375 9-102837392.125 8
 86  6 12  3 23  5.0800000  0  3G12G13G 9
  20903509.656    20903510.595     6443972.963 9 -19792803.002 8
  20961785.637    20961787.284    31896760.115 9 -44224697.424 9
  22075718.908    22075719.890    69999850.704 8-102820999.410 8
 86  6 12  3 23 11.0800000  0  3G12G13G 9
  20902893.111    20902894.968     6440735.600 9 -19795325.623 9
  20963026.559    20963028.183    31903279.689 9 -44219617.236 9
  22079725.250    22079726.696    70020902.794 9-102804595.179 9
 86  6 12  3 23 17.0800000  0  3G12G13G 9
  20902280.961    20902283.922     6437523.779 9 -19797828.337 8
  20964267.460    20964269.615    31909807.607 9 -44214530.539 8
  22083732.828    22083735.116    70041969.415 9-102788179.630 8
 86  6 12  3 23 23.0800000  0  3G12G13G 9
  20901675.620    20901676.966     6434337.504 9 -19800311.154 9
  20965512.964    20965514.011    31916343.998 9 -44209437.258 9
  22087744.437    22087746.053    70063050.613 9-102771752.727 8
 86  6 12  3 23 29.0800000  0  3G12G13G 9
  20901073.630    20901076.086     6431176.812 9 -19802774.029 8
  20966758.024    20966759.403    31922888.871 9 -44204337.343 8
  22091760.282    22091761.427    70084146.475 9-102755314.391 9
 86  6 12  3 23 35.0800000  0  3G12G13G 9
  20900477.615    20900480.010     6428041.775 9 -19805216.916 8
  20968004.936    20968006.672    31929442.152 9 -44199230.895 9
  22095776.758    22095778.406    70105256.863 9-102738864.749 9
 86  6 12  3 23 41.0800000  0  3G12G13G 9
  20899886.093    20899888.701     6424932.374 9 -19807639.828 9
  20969253.066    20969254.376    31936003.963 9 -44194117.801 8
  22099795.748    22099798.566    70126381.791 8-102722403.767 8
 86  6 12  3 23 47.0800000  0  3G12G13G 9
  20899298.379    20899300.720     6421848.469 9 -19810042.859 8
  20970504.145    20970505.012    31942574.136 9 -44188998.180 9
  22103819.378    22103820.482    70147521.223 9-102705931.493 8
 86  6 12  3 23 53.0800000  0  3G12G13G 9
  20898716.958    20898718.650     6418790.218 9 -19812425.922 9
  20971755.741    20971757.031    31949152.844 9 -44183871.916 8
  22107843.926    22107846.134    70168675.110 8-102689447.933 9
 86  6 12  3 23 59.0800000  0  3G12G13G 9
  20898139.561    20898142.647     6415757.578 9 -19814789.011 9
  20973009.378    20973010.185    31955739.976 9 -44178739.081 9
  22111873.706    22111874.223    70189843.524 8-102672953.077 8
 86  6 12  3 24  5.0800000  0  3G12G13G 9
  20897567.720    20897570.127     6412750.528 3 -19817132.168 4
  20974265.144    20974265.239    31962335.445 9 -44173599.760 9
  22115904.266    22115904.755    70211026.328 9-102656446.999 9
 86  6 12  3 24 11.0800000  0  3G12G13G 9
  20896999.728    20897000.858     6409769.190 1 -19819455.298 1
  20975521.646    20975522.587    31968939.263 9 -44168453.925 8
  22119938.340    22119939.256    70232223.497 8-102639929.724 8
 86  6 12  3 24 17.0800000  0  3G12G13G 9
  20896438.060    20896440.510     6406813.505 8 -19821758.420 8
  20976780.445    20976781.892    31975551.444 4 -44163301.566 4
  22123974.901    22123975.842    70253435.035 8-102623401.268 8
 86  6 12  3 24 23.0800000  0  3G12G13G 9
  20895881.146    20895881.488     6403883.454 9 -19824041.581 8
                  20978039.213                   -44158142.694 7
  22128014.013    22128013.953    70274660.974 9-102606861.570 8
 86  6 12  3 24 29.0800000  0  4G12G13G 9G 7
  20895327.892    20895329.778     6400979.091 9 -19826304.702 8
                  20979302.305                   -44152977.324 8
  22132054.953    22132056.902    70295901.263 9-102590310.698 8
                  25920787.483    -9357816.657 9
 86  6 12  3 24 35.0800000  0  4G12G13G 9G 7
  20894780.139    20894781.827     6398100.378 9 -19828547.868 8
                  20980565.400                   -44147805.511 8
  22136100.262    22136100.851    70317155.813 8-102573748.719 8
                  25917096.555    -9377230.048 9
 86  6 12  3 24 41.0800000  0  3G12G 9G 7
  20894236.392    20894238.834     6395247.366 9 -19830770.989 9
  22140147.044    22140147.881    70338424.637 9-102557175.623 9
                  25913425.437    -9396636.170 8
 86  6 12  3 24 47.0800000  0  4G12G13G 9G 7
  20893699.399    20893700.160     6392419.996 9 -19832974.138 8
  20983095.032    20983095.175    31879840.726 9 -44137442.498 9
  22144197.729    22144198.460    70359707.680 9-102540591.431 8
                  25909736.274    -9416027.635 8
 86  6 12  3 24 53.0800000  0  4G12G13G 9G 7
  20893165.989    20893167.285     6389618.277 9 -19835157.294 9
  20984362.400    20984362.921    31886502.665 9 -44132251.391 9
  22148249.167    22148250.738    70381004.955 9-102523996.153 9
  25906048.871    25906049.621    -9435398.207 9  12104199.605 9
 86  6 12  3 24 59.0800000  0  4G12G13G 9G 7
  20892637.903    20892639.653     6386842.285 9 -19837320.402 8
  20985631.537    20985632.448    31893172.328 9 -44127053.860 9
  22152305.332    22152305.983    70402316.444 9-102507389.795 9
  25902368.534    25902370.053    -9454744.913 8  12089124.230 9
 86  6 12  3 25  5.0800000  0  4G12G13G 9G 7
  20892114.301    20892117.296     6384092.054 9 -19839463.454 9
  20986901.850    20986904.712    31899850.746 9 -44121849.895 8
  22156363.591    22156364.356    70423642.129 9-102490772.390 9
  25898690.204    25898692.541    -9474070.332 9  12074065.961 9
 86  6 12  3 25 11.0800000  0  4G12G13G 9G 7
  20891595.853    20891597.450     6381367.567 9 -19841586.413 8
  20988174.353    20988175.533    31906537.457 9 -44116639.473 8
  22160423.757    22160425.896    70444981.950 9-102474143.961 8
  25895015.534    25895018.121    -9493379.026 9  12059020.237 9
 86  6 12  3 25 17.0800000  0  4G12G13G 9G 7
  20891081.757    20891083.915     6378668.786 9 -19843689.362 9
  20989448.531    20989449.886    31913232.471 9 -44111422.584 9
  22164487.911    22164489.507    70466335.849 8-102457504.560 8
  25891344.425    25891345.719    -9512675.385 9  12043984.117 8
 86  6 12  3 25 23.0800000  0  4G12G13G 9G 7
  20890573.461    20890575.865     6375995.669 9 -19845772.309 8
  20990724.160    20990724.921    31919935.679 9 -44106199.306 8
  22168554.459    22168556.331    70487703.771 9-102440854.232 8
  25887673.649    25887675.780    -9531962.332 8  12028955.338 9
 86  6 12  3 25 29.0800000  0  4G12G13G 9G 7
  20890070.043    20890071.218     6373348.263 9 -19847835.220 9
  20992001.232    20992003.129    31926647.052 9 -44100969.666 8
  22172622.515    22172624.692    70509085.774 8-102424192.954 8
  25884005.529    25884007.168    -9551241.995 8  12013932.226 9
 86  6 12  3 25 35.0800000  0  4G12G13G 9G 7
  20889571.599    20889572.309     6370726.644 9 -19849878.046 9
  20993280.253    20993281.967    31933366.591 9 -44095733.654 8
  22176694.153    22176695.095    70530481.811 9-102407520.712 9
  25880337.737    25880339.681    -9570515.231 8  11998914.123 9
 86  6 12  3 25 41.0800000  0  4G12G13G 9G 7
  20889077.495    20889078.718     6368130.861 9 -19851900.739 9
  20994560.816    20994561.129    31940094.288 9 -44090491.286 9
  22180768.776    22180770.086    70551891.952 9-102390837.486 9
  25876672.548    25876672.947    -9589779.924 8  11983902.669 9
 86  6 12  3 25 47.0800000  0  4G12G13G 9G 7
  20888587.839    20888589.489     6365560.829 9 -19853903.353 9
  20995841.614    20995843.627    31946830.163 9 -44085242.561 9
  22184846.180    22184846.765    70573316.143 9-102374143.322 9
                  25873010.597                    11968902.809 9
 86  6 12  3 25 53.0800000  0  4G12G13G 9G 7
  20888103.080    20888105.106     6363016.558 9 -19855885.898 9
  20997125.133    20997126.711    31953574.081 9 -44079987.559 9
  22188925.512    22188926.688    70594754.241 9-102357438.304 8
  25869350.329    25869351.662    -9645185.441 9  11953919.809 9
 86  6 12  3 25 59.0800000  0  4G12G13G 9G 7
  20887625.561    20887625.741     6360497.959 9 -19857848.445 9
  20998410.414    20998412.814    31960326.185 9 -44074726.177 8
  22193007.843    22193008.996    70616206.228 9-102340722.485 8
  25865695.439    25865697.504    -9664389.573 8  11938955.571 9
 86  6 12  3 26  5.0800000  0  4G12G13G 9G 7
  20887150.472    20887152.045     6358005.133 9 -19859790.914 8
  20999697.479    20999698.299    31967086.366 9 -44069458.493 9
  22197091.300    22197094.432    70637672.128 8-102323995.800 8
  25862044.988    25862046.902    -9683572.068 9  11924007.785 9
 86  6 12  3 26 11.0800000  0  4G12G13G 9G 7
  20886680.727    20886682.878     6355538.106 9 -19861713.272 8
  21000985.513    21000986.408    31973854.643 9 -44064184.506 8
  22201179.156    22201180.775    70659151.890 9-102307258.333 8
  25858397.432    25858399.015    -9702738.501 9  11909072.916 9
 86  6 12  3 26 17.0800000  0  4G12G13G 9G 7
  20886217.112    20886218.321     6353096.950 9 -19863615.473 8
  21002274.138    21002275.411    31980631.071 9 -44058904.179 9
  22205270.845    22205270.943    70680645.585 8-102290510.010 8
  25854752.685    25854754.664    -9721892.564 9  11894147.685 9
 86  6 12  3 26 23.0800000  0  4G12G13G 9G 7
  20885757.162    20885758.807     6350681.599 9 -19865497.560 9
  21003565.668    21003566.844    31987415.601 9 -44053617.532 8
  22209361.891    22209364.335    70702153.074 8-102273750.927 8
  25851109.793    25851111.601    -9741037.011 9  11879229.936 9
 86  6 12  3 26 29.0800000  0  4G12G13G 9G 7
  20885301.393    20885303.966     6348292.062 9 -19867359.535 9
  21004858.217    21004858.849    31994208.250 9 -44048324.546 8
  22213457.945    22213458.682    70723674.374 8-102256981.080 8
  25847467.503    25847469.230    -9760173.954 9  11864318.029 8
 86  6 12  3 26 35.0800000  0  4G12G13G 9G 7
  20884852.714    20884853.984     6345928.391 9 -19869201.363 9
  21006152.090    21006153.257    32001008.956 9 -44043025.297 9
  22217555.587    22217557.216    70745209.559 9-102240200.423 9
  25843827.850    25843829.424    -9779304.173 8  11849411.373 9
 86  6 12  3 26 41.0800000  0  4G12G13G 9G 7
  20884407.310    20884409.152     6343590.608 9 -19871023.003 8
  21007447.712    21007448.641    32007817.668 9 -44037719.811 8
  22221656.082    22221658.374    70766758.492 9-102223409.056 8
  25840189.316    25840191.043    -9798425.224 9  11834511.847 9
 86  6 12  3 26 47.0800000  0  4G12G13G 9G 7
  20883967.178    20883969.085     6341278.617 9 -19872824.555 8
  21008744.981    21008746.194    32014634.381 9 -44032408.086 9
  22225759.644    22225761.478    70788321.126 9-102206607.012 8
                  25836554.644                    11819624.538 8
 86  6 12  3 26 53.0800000  0  4G12G13G 9G 7
  20883531.874    20883533.852     6338992.502 9 -19874605.949 9
  21010043.582    21010045.410    32021459.130 9 -44027090.097 9
  22229865.819    22229867.042    70809897.467 8-102189794.287 8
  25832922.017    25832922.411    -9853737.996 9  11804754.743 9
 86  6 12  3 26 59.0800000  0  4G12G13G 9G 7
  20883102.416    20883104.450     6336732.123 9 -19876367.290 8
  21011344.219    21011345.321    32028291.811 9 -44021765.924 8
  22233973.988    22233975.784    70831487.491 8-102172970.896 8
  25829295.834    25829295.757    -9872796.734 9  11789903.776 8
 86  6 12  3 27  5.0800000  0  4G12G13G 9G 7
  20882676.985    20882678.566     6334497.613 9 -19878108.469 8
  21012645.977    21012647.116    32035132.408 9 -44016435.589 8
  22238085.472    22238086.795    70853091.161 8-102156136.868 8
  25825672.804    25825673.900    -9891834.910 9  11775069.240 8
 86  6 12  3 27 11.0800000  0  4G12G13G 9G 7
  20882257.127    20882258.758     6332288.957 8 -19879829.491 8
  21013948.721    21013950.681    32041981.028 9 -44011098.999 9
  22242198.477    22242199.458    70874708.482 8-102139292.207 8
  25822052.574    25822054.683    -9910856.160 9  11760247.486 9
 86  6 12  3 27 17.0800000  0  4G12G13G 9G 7
  20881841.352    20881842.902     6330106.150 9 -19881530.389 9
  21015253.616    21015256.393    32048837.665 9 -44005756.166 9
  22246314.202    22246315.659    70896339.389 9-102122436.959 8
  25818436.110    25818437.044    -9929865.101 9  11745435.315 8
 86  6 12  3 27 23.0800000  0  4G12G13G 9G 7
  20881430.290    20881431.491     6327949.194 9 -19883211.126 8
  21016560.199    21016562.449    32055702.256 9 -44000407.136 9
  22250433.804    22250434.579    70917983.893 8-102105571.112 9
  25814820.021    25814820.533    -9948864.385 9  11730630.685 8
 86  6 12  3 27 29.0800000  0  4G12G13G 9G 7
  20881024.677    20881027.433     6325818.184 9 -19884871.662 8
  21017867.503    21017870.048    32062574.865 9 -43995051.852 8
  22254555.377    22254556.027    70939641.922 8-102088694.729 9
  25811206.272    25811207.862    -9967856.017 9  11715832.013 9
 86  6 12  3 27 35.0800000  0  4G12G13G 9G 7
  20880624.892    20880625.975     6323713.057 9 -19886512.020 8
  21019177.109    21019179.340    32069455.336 9 -43989690.449 8
  22258679.582    22258680.595    70961313.477 8-102071807.799 8
  25807593.924    25807596.073    -9986840.680 9  11701038.759 9
 86  6 12  3 27 41.0800000  0  4G12G13G 9G 7
  20880228.780    20880231.504     6321633.758 9 -19888132.248 9
  21020487.667    21020490.691    32076343.693 9 -43984322.887 8
  22262805.575    22262807.051    70982998.560 9-102054910.341 8
  25803982.762    25803984.446   -10005815.666 9  11686253.068 8
 86  6 12  3 27 47.0800000  0  4G12G13G 9G 7
  20879837.968    20879839.637     6319580.377 9 -19889732.289 8
  21021800.241    21021801.619    32083239.934 9 -43978949.193 9
  22266933.796    22266936.293    71004697.114 9-102038002.387 8
                  25800376.811                    11671480.420 8
 86  6 12  3 27 53.0800000  0  4G12G13G 9G 7
  20879452.288    20879454.815     6317552.863 9 -19891312.167 9
  21023113.721    21023115.599    32090143.992 9 -43973569.412 8
  22271065.585    22271067.538    71026409.148 8-102021083.917 7
  25796771.911    25796775.141   -10060982.125 9  11656725.717 9
 86  6 12  3 27 59.0800000  0  4G12G13G 9G 7
  20879071.572    20879073.442     6315551.251 9 -19892871.863 9
  21024429.271    21024431.528    32097055.817 9 -43968183.568 9
  22275199.978    22275201.941    71048134.652 9-102004154.962 8
  25793173.700    25793175.041   -10079892.940 9  11641990.012 9
 86  6 12  3 28  5.0800000  0  4G12G13G 9G 7
  20878695.763    20878698.007     6313575.611 9 -19894411.332 9
  21025746.113    21025747.721    32103975.471 9 -43962791.632 9
  22279337.314    22279338.643    71069873.476 8-101987215.612 9
  25789578.288    25789580.509   -10098782.807 9  11627270.626 8
 86  6 12  3 28 11.0800000  0  4G12G13G 9G 7
  20878324.962    20878326.536     6311625.889 9 -19895930.601 8
  21027064.276    21027066.106    32110902.982 9 -43957393.564 8
  22283475.566    22283476.804    71091625.659 9-101970265.868 9
  25785987.154    25785987.558   -10117656.355 9  11612563.972 9
 86  6 12  3 28 17.0800000  0  4G12G13G 9G 7
  20877958.034    20877960.831     6309702.100 9 -19897429.661 8
  21028384.208    21028384.902    32117838.352 9 -43951989.388 9
  22287618.330    22287619.372    71113391.192 9-101953305.721 9
  25782398.466    25782399.327   -10136517.555 9  11597866.936 9
 86  6 12  3 28 23.0800000  0  4G12G13G 9G 7
  20877597.701    20877599.719     6307804.231 8 -19898908.510 8
  21029705.321    21029706.838    32124781.533 9 -43946579.117 8
  22291763.545    22291765.384    71135170.018 9-101936335.212 8
  25778811.086    25778812.619   -10155368.965 9  11583177.512 8
 86  6 12  3 28 29.0800000  0  4G12G13G 9G 7
  20877240.624    20877243.106     6305932.313 9 -19900367.152 9
  21031027.834    21031029.438    32131732.536 9 -43941162.751 8
  22295909.533    22295912.503    71156962.132 8-101919354.335 8
  25775225.406    25775225.574   -10174212.666 9  11568494.102 9
 86  6 12  3 28 35.0800000  0  4G12G13G 9G 7
  20876889.791    20876891.515     6304086.446 9 -19901805.496 9
  21032352.209    21032352.779    32138691.401 9 -43935740.247 8
  22300058.975    22300061.281    71178767.560 8-101902363.112 9
  25771641.068    25771641.722   -10193048.984 9  11553816.450 8
 86  6 12  3 28 41.0800000  0  4G12G13G 9G 7
  20876543.061    20876545.660     6302266.549 8 -19903223.594 9
  21033677.449    21033678.126    32145658.089 9 -43930311.659 8
  22304211.011    22304213.571    71200586.209 8-101885361.567 9
  25768057.662    25768059.183   -10211874.739 9  11539147.026 9
 86  6 12  3 28 47.0800000  0  4G12G13G 9G 7
  20876202.442    20876204.073     6300472.639 9 -19904621.442 9
  21035005.477    21035006.881    32152632.546 9 -43924877.027 8
  22308365.280    22308367.272    71222418.124 9-101868349.694 8
                  25764480.640                    11524491.231 8
 86  6 12  3 28 53.0800000  0  4G12G13G 9G 7
  20875866.420    20875868.453     6298704.686 9 -19905999.068 9
  21036333.370    21036334.541    32159614.704 9 -43919436.375 8
  22312522.268    22312524.502    71244263.221 9-101851327.538 9
  25760904.881    25760906.550   -10266894.141 9  11509853.862 9
 86  6 12  3 28 59.0800000  0  4G12G13G 9G 7
  20875533.558    20875535.820     6296962.727 9 -19907356.455 8
  21037663.808    21037665.352    32166604.572 9 -43913989.727 8
  22316682.737    22316683.355    71266121.472 9-101834295.144 8
  25757334.452    25757335.563   -10285654.228 9  11495235.615 9
 86  6 12  3 29  5.0800000  0  4G12G13G 9G 7
  20875206.897    20875209.887     6295246.748 9 -19908693.579 9
  21038995.635    21038996.452    32173602.113 9 -43908537.099 8
  22320844.084    22320845.470    71287992.813 9-101817252.551 8
  25753767.979    25753769.465   -10304392.893 9  11480633.654 9
 86  6 12  3 29 11.0800000  0  4G12G13G 9G 7
  20874885.944    20874887.871     6293556.728 9 -19910010.479 8
  21040329.095    21040329.067    32180607.273 9 -43903078.534 9
  22325008.288    22325010.674    71309877.201 9-101800199.772 9
  25750204.802    25750205.861   -10323115.811 9  11466044.382 8
 86  6 12  3 29 17.0800000  0  4G12G13G 9G 7
  20874569.265    20874572.107     6291892.752 9 -19911307.079 9
  21041662.910    21041663.599    32187620.111 9 -43897613.975 9
  22329176.021    22329177.235    71331774.754 9-101783136.759 7
  25746645.244    25746646.499   -10341826.428 9  11451464.683 9
 86  6 12  3 29 23.0800000  0  4G12G13G 9G 7
  20874257.619    20874260.458     6290254.852 9 -19912583.367 8
  21042999.617    21042999.935    32194640.588 9 -43892143.482 8
  22333344.713    22333346.981    71353685.442 9-101766063.492 9
  25743086.008    25743087.569   -10360527.084 9  11436892.741 9
 86  6 12  3 29 29.0800000  0  4G12G13G 9G 7
  20873951.106    20873953.318     6288643.057 9 -19913839.317 9
  21044336.408    21044338.042    32201668.857 9 -43886666.911 9
  22337517.646    22337518.597    71375609.173 9-101748980.068 9
  25739528.984    25739530.887   -10379219.773 9  11422327.013 8
 86  6 12  3 29 35.0800000  0  4G12G13G 9G 7
  20873649.959    20873652.110     6287057.232 9 -19915075.024 9
  21045676.092    21045676.551    32208704.772 9 -43881184.388 9
  22341691.999    22341693.076    71397545.968 8-101731886.465 8
  25735973.599    25735975.145   -10397904.780 9  11407767.264 8
 86  6 12  3 29 41.0800000  0  4G12G13G 9G 7
  20873352.689    20873354.896     6285497.399 9 -19916290.465 7
  21047016.108    21047016.951    32215748.276 9 -43875695.933 9
  22345868.715    22345869.356    71419495.676 9-101714782.796 7
  25732419.825    25732420.982   -10416578.584 9  11393216.249 8
 86  6 12  3 29 47.0800000  0  4G12G13G 9G 7
  20873060.373    20873062.864     6283963.525 9 -19917485.709 8
  21048357.751    21048357.327    32222799.364 9 -43870201.579 8
  22350047.810    22350048.852    71441458.271 9-101697669.104 9
                  25728871.850                    11378679.571 8
 86  6 12  3 29 53.0800000  0  4G12G13G 9G 7
  20872773.323    20872775.476     6282455.659 9 -19918660.666 8
  21049700.744    21049702.070    32229858.150 9 -43864701.231 9
  22354228.741    22354230.589    71463433.814 9-101680545.302 9
  25725325.100    25725326.354   -10471326.165 9  11364161.767 8
 86  6 12  3 29 59.0800000  0  4G12G13G 9G 7
  20872491.752    20872493.180     6280973.882 9 -19919815.297 9
  21051045.658    21051047.294    32236924.606 9 -43859194.888 9
  22358413.526    22358415.122    71485422.288 9-101663411.443 9
  25721784.495    25721784.556   -10489932.776 9  11349663.122 8
 86  6 12  3 30  5.0800000  0  4G12G13G 9G 7
  20872214.190    20872216.600     6279518.052 9 -19920949.715 9
  21052392.085    21052392.456    32243998.644 9 -43853682.659 9
  22362601.879    22362602.517    71507423.661 8-101646267.516 8
  25718247.807    25718247.776   -10508518.698 9  11335180.587 9
 86  6 12  3 30 11.0800000  0  4G12G13G 9G 7
  20871941.745    20871945.067     6278088.248 9 -19922063.848 8
  21053739.667    21053740.755    32251080.173 9 -43848164.579 9
  22366789.807    22366791.237    71529437.866 9-101629113.594 8
  25714714.066    25714715.967   -10527088.370 9  11320710.716 9
 86  6 12  3 30 17.0800000  0  4G12G13G 9G 7
  20871675.427    20871677.239     6276684.563 8 -19923157.626 8
  21055087.990    21055089.336    32258169.305 9 -43842640.584 8
  22370979.944    22370982.246    71551464.890 8-101611949.675 8
  25711181.944    25711183.361   -10545645.728 9  11306250.436 8
 86  6 12  3 30 23.0800000  0  4G12G13G 9G 7
  20871413.228    20871415.436     6275306.905 9 -19924231.130 9
  21056438.694    21056439.549    32265265.904 9 -43837110.768 9
  22375175.286    22375177.254    71573504.698 9-101594775.813 7
  25707652.831    25707653.616   -10564193.188 9  11291797.874 8
 86  6 12  3 30 29.0800000  0  4G12G13G 9G 7
  20871154.570    20871157.923     6273955.232 8 -19925284.372 8
  21057790.543    21057791.258    32272370.013 9 -43831575.097 9
  22379371.756    22379373.147    71595557.275 9-101577591.993 9
  25704124.740    25704127.168   -10582732.655 9  11277351.527 9
 86  6 12  3 30 35.0800000  0  4G12G13G 9G 7
  20870903.368    20870905.869     6272629.694 9 -19926317.270 9
  21059143.932    21059145.620    32279481.595 9 -43826033.603 8
  22383570.393    22383572.151    71617622.597 9-101560398.241 7
  25700598.546    25700599.892   -10601263.993 9  11262911.524 8
 86  6 12  3 30 41.0800000  0  4G12G13G 9G 7
  20870655.406    20870659.412     6271330.321 8 -19927329.760 9
  21060498.784    21060499.386    32286600.740 9 -43820486.211 9
  22387772.316    22387774.017    71639700.705 9-101543194.526 9
                  25697075.792                    11248481.035 9
 86  6 12  3 30 47.0800000  0  4G12G13G 9G 7
  20870414.349    20870415.998     6270057.052 9 -19928321.919 8
  21061855.022    21061855.321    32293727.352 9 -43814933.007 8
  22391975.942    22391977.914    71661791.500 9-101525980.929 8
  25693584.546    25693555.255   -10656015.117 9  11234065.487 8
 86  6 12  3 30 53.0800000  0  4G12G13G 9G 7
  20870176.702    20870178.886     6268809.809 8 -19929293.798 9
  21063212.403    21063213.840    32300861.405 9 -43809374.009 9
  22396181.524    22396184.235    71683894.952 8-101508757.459 9
  25690037.535    25690039.723   -10674490.664 9  11219669.322 9
 86  6 12  3 30 59.0800000  0  4G12G13G 9G 7
  20869944.994    20869947.001     6267588.685 8 -19930245.323 8
  21064571.449    21064572.520    32308002.951 9 -43803809.158 9
  22400389.976    22400392.063    71706011.136 9-101491524.073 9
  25686526.426    25686527.892   -10692941.201 9  11205292.283 9
 86  6 12  3 31  5.0800000  0  4G12G13G 9G 7
  20869716.523    20869720.057     6266393.698 9 -19931176.483 9
  21065931.284    21065932.471    32315152.018 9 -43798238.456 9
  22404601.434    22404602.867    71728139.950 9-101474280.847 9
  25683020.151    25683021.269   -10711371.482 9  11190931.425 9
 86  6 12  3 31 11.0800000  0  4G12G13G 9G 7
  20869493.863    20869496.595     6265224.798 8 -19932087.300 8
  21067293.911    21067295.643    32322308.411 9 -43792662.055 9
  22408814.651    22408817.010    71750281.267 9-101457027.882 8
  25679515.560    25679517.715   -10729785.324 9  11176582.983 9
 86  6 12  3 31 17.0800000  0  4G12G13G 9G 7
  20869276.821    20869279.807     6264081.918 9 -19932977.864 9
  21068656.327    21068657.307    32329472.219 9 -43787079.859 9
  22413030.640    22413032.651    71772435.107 9-101439765.152 8
  25676013.667    25676016.124   -10748186.834 9  11162244.150 9
 86  6 12  3 31 23.0800000  0  4G12G13G 9G 7
  20869063.824    20869066.778     6262965.152 9 -19933848.072 9
  21070021.160    21070023.691    32336643.373 9 -43781491.947 9
  22417249.119    22417250.371    71794601.510 9-101422492.631 8
  25672514.477    25672515.719   -10766578.384 9  11147913.080 9
 86  6 12  3 31 29.0800000  0  4G12G13G 9G 7
  20868856.431    20868859.804     6261874.379 8 -19934698.023 9
  21071387.698    21071387.932    32343821.934 9 -43775898.261 9
  22421470.020    22421470.954    71816780.366 9-101405210.412 9
  25669015.912    25669018.336   -10784961.695 9  11133588.428 9
 86  6 12  3 31 35.0800000  0  4G12G13G 9G 7
  20868652.781    20868656.882     6260809.862 9 -19935527.514 8
  21072755.730    21072756.090    32351008.052 9 -43770298.682 8
  22425691.757    22425693.767    71838971.810 8-101387918.381 8
  25665520.287    25665521.959   -10803336.346 9  11119270.518 9
 86  6 12  3 31 41.0800000  0  4G12G13G 9G 7
  20868456.041    20868458.769     6259771.436 8 -19936336.680 9
  21074123.121    21074124.937    32358201.558 9 -43764693.351 9
  22429917.218    22429919.014    71861175.712 9-101370616.638 9
                  25662027.979                    11104962.584 8
 86  6 12  3 31 47.0800000  0  4G12G13G 9G 7
  20868262.808    20868265.721     6258759.110 8 -19937125.507 9
  21075494.051    21075494.890    32365402.404 9 -43759082.302 8
  22434144.659    22434146.379    71883392.018 9-101353305.244 7
  25658580.752    25658536.751   -10857932.843 8  11090670.179 8
 86  6 12  3 31 53.0800000  0  4G12G13G 9G 7
  20868075.300    20868078.195     6257772.908 9 -19937893.974 8
  21076865.032    21076867.319    32372610.596 9 -43753465.526 9
  22438375.325    22438376.014    71905620.653 9-101335984.225 8
  25655048.895    25655051.468   -10876249.741 9  11076397.481 8
 86  6 12  3 31 59.0800000  0  4G12G13G 9G 7
  20867892.772    20867896.673     6256812.777 9 -19938642.126 9
  21078238.702    21078239.918    32379826.009 9 -43747843.124 9
  22442606.734    22442609.694    71927861.595 8-101318653.625 8
  25651568.491    25651570.419   -10894541.679 9  11062144.045 9
 86  6 12  3 32  5.0800000  0  4G12G13G 9G 7
  20867716.147    20867718.357     6255878.802 8 -19939369.897 9
  21079612.827    21079613.424    32387048.737 9 -43742215.024 9
  22446842.580    22446843.861    71950114.994 9-101301313.317 8
  25648091.361    25648093.452   -10912813.145 9  11047906.542 9
 86  6 12  3 32 11.0800000  0  4G12G13G 9G 7
  20867541.954    20867545.862     6254970.987 9 -19940077.292 8
  21080988.909    21080989.712    32394278.702 9 -43736581.281 9
  22451078.339    22451079.810    71972380.684 9-101283963.431 8
  25644617.735    25644619.976   -10931068.667 9  11033681.472 9
 86  6 12  3 32 17.0800000  0  4G12G13G 9G 7
  20867374.596    20867377.717     6254089.346 8 -19940764.285 9
  21082366.754    21082367.145    32401516.003 9 -43730941.826 8
  22455318.038    22455319.662    71994658.659 9-101266603.978 9
  25641145.932    25641147.501   -10949311.756 9  11019466.075 9
 86  6 12  3 32 23.0800000  0  4G12G13G 9G 7
  20867212.049    20867214.547     6253233.833 8 -19941430.905 9
  21083745.119    21083745.743    32408760.695 9 -43725296.604 9
  22459559.254    22459561.241    72016948.905 8-101249234.958 8
  25637677.156    25637678.856   -10967544.753 9  11005258.555 9
 86  6 12  3 32 29.0800000  0  4G12G13G 9G 7
  20867054.698    20867057.823     6252404.442 8 -19942077.189 9
  21085124.864    21085126.212    32416012.736 9 -43719645.666 8
  22463803.561    22463805.471    72039251.388 9-101231856.397 9
  25634209.408    25634209.919   -10985769.326 9  10991057.596 9
 86  6 12  3 32 35.0800000  0  4G12G13G 9G 7
  20866901.005    20866904.374     6251601.094 9 -19942703.173 9
  21086505.622    21086508.254    32423271.926 9 -43713989.150 8
  22468050.758    22468052.354    72061566.159 9-101214468.273 9
  25630741.792    25630744.713   -11003984.762 9  10976863.744 9
 86  6 12  3 32 41.0800000  0  4G12G13G 9G 7
  20866753.993    20866756.363     6250823.959 9 -19943308.725 8
  21087889.275    21087889.266    32430538.357 9 -43708326.999 8
  22472299.004    22472300.572    72083893.137 9-101197070.627 8
                  25627280.433                    10962680.481 9
 86  6 12  3 32 47.0800000  0  4G12G13G 9G 7
  20866610.355    20866612.400     6250073.007 9 -19943893.890 9
  21089273.015    21089274.934    32437811.978 9 -43702659.238 9
  22476550.137    22476551.623    72106232.253 8-101179663.532 9
  25623733.199    25623821.143   -11058417.980 9  10948513.332 9
 86  6 12  3 32 53.0800000  0  4G12G13G 9G 7
  20866473.392    20866475.297     6249348.272 8 -19944458.620 9
  21090659.030    21090659.635    32445092.808 9 -43696985.863 9
  22480804.045    22480804.772    72128583.486 8-101162246.989 9
  25620364.071    25620365.976   -11076573.558 9  10934366.385 9
 86  6 12  3 32 59.0800000  0  4G12G13G 9G 7
  20866340.662    20866342.221     6248649.704 8 -19945002.946 9
  21092045.434    21092046.253    32452380.831 9 -43691306.882 8
  22485058.602    22485060.450    72150946.833 9-101144821.012 9
  25616914.271    25616915.441   -11094703.835 9  10920238.513 9
 86  6 12  3 33  5.0800000  0  4G12G13G 9G 7
  20866212.772    20866215.013     6247977.363 8 -19945526.853 9
  21093433.494    21093434.871    32459676.042 9 -43685622.302 8
  22489317.538    22489318.446    72173322.301 9-101127385.582 8
  25613467.956    25613468.867   -11112814.051 9  10906126.659 9
 86  6 12  3 33 11.0800000  0  4G12G13G 9G 7
  20866089.610    20866091.992     6247331.121 8 -19946030.405 9
  21094823.119    21094824.349    32466978.381 9 -43679932.168 8
  22493577.103    22493578.693    72195709.795 9-101109940.778 9
  25610024.878    25610025.835   -11130908.388 9  10892027.189 9
 86  6 12  3 33 17.0800000  0  4G12G13G 9G 7
  20865971.461    20865973.636     6246711.095 9 -19946513.550 8
  21096213.755    21096215.113    32474287.839 9 -43674236.477 9
  22497838.966    22497841.116    72218109.297 9-101092486.624 9
  25606584.016    25606586.273   -11148990.277 9  10877937.400 9
 86  6 12  3 33 23.0800000  0  4G12G13G 9G 7
  20865859.168    20865860.691     6246117.249 9 -19946976.294 8
  21097606.336    21097607.345    32481604.428 9 -43668535.240 9
  22502104.742    22502105.933    72240520.845 9-101075023.094 9
  25603144.111    25603146.892   -11167062.021 9  10863855.526 9
 86  6 12  3 33 29.0800000  0  4G12G13G 9G 7
  20865749.765    20865752.051     6245549.618 9 -19947418.595 9
  21099000.331    21099001.458    32488928.204 9 -43662828.397 8
  22506371.739    22506373.754    72262944.363 9-101057550.233 9
  25599707.133    25599708.222   -11185125.143 9  10849780.372 9
 86  6 12  3 33 35.0800000  0  4G12G13G 9G 7
  20865647.196    20865648.557     6245008.167 8 -19947840.499 9
  21100394.874    21100396.055    32496259.110 9 -43657116.005 8
  22510641.626    22510642.873    72285379.786 9-101040068.077 8
  25596271.966    25596273.294   -11203178.780 9  10835712.603 8
 86  6 12  3 33 41.0800000  0  4G12G13G 9G 7
  20865550.268    20865551.343     6244492.908 8 -19948242.007 8
  21101791.509    21101792.074    32503597.172 9 -43651398.031 8
  22514912.709    22514913.795    72307827.213 9-101022576.576 8
                  25592841.582                    10821656.097 8
 86  6 12  3 33 47.0800000  0  4G12G13G 9G 7
  20865457.392    20865458.465     6244003.886 9 -19948623.058 9
  21103189.418    21103190.219    32510942.373 9 -43645674.501 9
  22519186.298    22519187.874    72330286.535 9-101005075.810 9
  25589409.798    25589412.308   -11257328.989 9  10807616.478 9
 86  6 12  3 33 53.0800000  0  4G12G13G 9G 7
  20865369.128    20865370.635     6243541.095 9 -19948983.684 9
  21104588.036    21104588.572    32518294.673 9 -43639945.430 9
  22523463.253    22523465.684    72352757.745 9-100987565.784 9
  25585986.553    25585988.406   -11275320.389 9  10793597.217 9
 86  6 12  3 33 59.0800000  0  4G12G13G 9G 7
  20865285.389    20865287.544     6243104.530 9 -19949323.855 9
  21105988.952    21105990.124    32525654.018 9 -43634210.881 8
  22527740.209    22527741.757    72375240.788 8-100970046.528 9
  25582567.665    25582569.808   -11293287.725 9  10779597.088 9
 86  6 12  3 34  5.0800000  0  4G12G13G 9G 7
  20865208.064    20865208.555     6242694.156 8 -19949643.623 9
  21107390.462    21107391.444    32533020.437 9 -43628470.805 8
  22532022.039    22532022.962    72397735.624 8-100952518.088 9
  25579153.034    25579154.347   -11311234.235 9  10765612.801 9
 86  6 12  3 34 11.0800000  0  4G12G13G 9G 7
  20865134.395    20865135.618     6242310.091 9 -19949942.899 8
  21108793.967    21108795.071    32540393.963 9 -43622725.201 8
  22536303.970    22536306.581    72420242.299 8-100934980.422 8
  25575740.958    25575741.856   -11329164.900 9  10751640.856 8
 86  6 12  3 34 17.0800000  0  4G12G13G 9G 7
  20865066.499    20865067.557     6241952.247 9 -19950221.734 8
  21110198.012    21110198.803    32547774.521 9 -43616974.114 8
  22540589.859    22540591.048    72442760.863 8-100917433.497 8
  25572331.813    25572332.223   -11347082.910 9  10737678.776 9
 86  6 12  3 34 23.0800000  0  4G12G13G 9G 7
  20865003.364    20865004.134     6241620.609 9 -19950480.157 8
  21111604.324    21111605.481    32555162.090 9 -43611217.566 9
  22544877.112    22544878.484    72465291.142 9-100899877.439 7
  25568923.691    25568925.502   -11364990.724 9  10723724.634 9
 86  6 12  3 34 29.0800000  0  4G12G13G 9G 7
  20864944.640    20864945.550     6241315.149 8 -19950718.179 8
  21113011.137    21113012.240    32562556.646 9 -43605455.573 8
  22549166.894    22549168.150    72487833.157 9-100882312.235 9
  25565517.519    25565519.450   -11382889.593 9  10709777.467 9
 86  6 12  3 34 35.0800000  0  4G12G13G 9G 7
  20864891.502    20864893.453     6241035.957 9 -19950935.727 9
  21114419.899    21114419.866    32569958.262 9 -43599688.073 9
  22553458.411    22553459.840    72510386.856 8-100864737.928 8
  25562113.533    25562115.328   -11400778.503 9  10695838.055 9
 86  6 12  3 34 41.0800000  0  4G12G13G 9G 7
  20864843.655    20864845.333     6240782.977 8 -19951132.857 8
  21115829.940    21115829.268    32577366.838 9 -43593915.153 9
  22557752.476    22557753.656    72532952.211 9-100847154.532 8
                  25558713.782                    10681910.455 9
 86  6 12  3 34 47.0800000  0  4G12G13G 9G 7
  20864800.709    20864802.285     6240556.298 9 -19951309.485 8
  21117240.608    21117241.691    32584782.367 9 -43588136.820 8
  22562049.278    22562050.411    72555529.210 8-100829562.074 8
  25555235.650    25555316.282   -11454887.841 9  10668000.216 9
 86  6 12  3 34 53.0800000  0  4G12G13G 9G 7
  20864763.335    20864763.364     6240355.926 9 -19951465.623 8
  21118652.827    21118653.820    32592204.801 9 -43582353.103 8
  22566346.819    22566348.893    72578117.850 9-100811960.536 8
  25551922.607    25551924.493   -11472712.531 9  10654110.770 9
 86  6 12  3 34 59.0800000  0  4G12G13G 9G 7
  20864729.649    20864730.538     6240181.817 9 -19951601.299 8
  21120066.747    21120067.534    32599634.186 9 -43576563.976 9
  22570648.635    22570648.976    72600718.110 9-100794349.952 9
  25548535.256    25548537.292   -11490512.824 9  10640240.410 9
 86  6 12  3 35  5.0800000  0  4G12G13G 9G 7
  20864701.324    20864703.873     6240033.940 9 -19951716.520 8
  21121482.258    21121482.795    32607070.488 9 -43570769.447 8
  22574950.904    22574951.484    72623329.859 9-100776730.404 8
  25545151.868    25545153.293   -11508292.757 9  10626385.925 9
 86  6 12  3 35 11.0800000  0  4G12G13G 9G 7
  20864679.393    20864678.765     6239912.294 8 -19951811.310 9
  21122897.706    21122899.121    32614513.688 9 -43564969.556 8
  22579255.915    22579257.101    72645953.128 9-100759101.889 8
  25541771.121    25541773.280   -11526057.010 9  10612543.652 9
 86  6 12  3 35 17.0800000  0  4G12G13G 9G 7
  20864659.716    20864662.448     6239816.872 9 -19951885.666 8
  21124315.590    21124317.586    32621963.902 9 -43559164.187 9
  22583563.645    22583564.482    72668587.936 8-100741464.375 8
  25538393.948    25538394.804   -11543808.506 9  10598711.309 9
 86  6 12  3 35 23.0800000  0  4G12G13G 9G 7
  20864647.014    20864648.752     6239747.719 8 -19951939.547 8
  21125734.285    21125736.577    32629421.017 9 -43553353.447 9
  22587871.985    22587873.514    72691234.197 8-100723817.936 9
  25535017.248    25535019.186   -11561549.602 9  10584887.087 9
 86  6 12  3 35 29.0800000  0  4G12G13G 9G 7
  20864637.782    20864639.754     6239704.900 9 -19951972.910 9
  21127155.388    21127156.250    32636885.002 9 -43547537.352 9
  22592184.218    22592185.246    72713892.003 9-100706162.518 9
  25531643.631    25531645.324   -11579281.636 9  10571069.925 9
 86  6 12  3 35 35.0800000  0  4G12G13G 9G 7
  20864635.106    20864636.686     6239688.244 9 -19951985.894 8
  21128576.806    21128578.836    32644355.788 9 -43541715.947 8
  22596498.606    22596498.199    72736561.106 8-100688498.275 8
  25528270.880    25528272.554   -11597003.184 9  10557260.926 9
 86  6 12  3 35 41.0800000  0  4G12G13G 9G 7
  20864638.040    20864638.464     6239697.790 8 -19951978.460 8
  21129999.879    21130001.655    32651833.444 9 -43535889.197 8
  22600813.901    22600814.604    72759241.584 9-100670825.179 8
                  25524903.662                    10543464.403 9
 86  6 12  3 35 47.0800000  0  4G12G13G 9G 7
  20864644.438    20864645.234     6239733.586 9 -19951950.562 9
  21131424.877    21131424.396    32659317.984 9 -43530057.090 8
  22605131.857    22605133.137    72781933.560 9-100653143.125 8
  25521536.712    25521538.881   -11650943.131 9  10529685.908 9
 86  6 12  3 35 53.0800000  0  4G12G13G 9G 7
  20864656.115    20864658.079     6239795.802 9 -19951902.085 8
  21132849.377    21132851.760    32666809.374 9 -43524219.648 9
  22609452.637    22609453.255    72804636.858 9-100635452.248 9
  25518177.182    25518178.462   -11668598.654 9  10515928.363 9
 86  6 12  3 35 59.0800000  0  4G12G13G 9G 7
  20864672.582    20864674.094     6239884.224 9 -19951833.195 9
  21134277.056    21134278.441    32674307.456 9 -43518376.984 8
  22613774.408    22613776.186    72827351.362 8-100617752.632 9
  25514823.181    25514823.612   -11686229.671 9  10502189.913 9
 86  6 12  3 36  5.0800000  0  4G12G13G 9G 7
  20864695.201    20864695.487     6239998.949 9 -19951743.791 8
  21135704.743    21135705.846    32681812.452 9 -43512528.929 9
  22618098.065    22618100.576    72850077.241 9-100600044.166 8
  25511471.289    25511473.000   -11703840.466 9  10488467.216 9
 86  6 12  3 36 11.0800000  0  4G12G13G 9G 7
  20864721.205    20864722.898     6240139.989 9 -19951633.889 8
  21137134.476    21137135.680    32689324.256 9 -43506675.565 9
  22622426.724    22622427.848    72872814.418 9-100582326.890 8
  25508122.963    25508124.649   -11721435.485 9  10474756.819 9
 86  6 12  3 36 17.0800000  0  4G12G13G 9G 7
  20864753.057    20864753.684     6240307.267 9 -19951503.551 7
  21138564.823    21138565.652    32696842.837 9 -43500816.932 8
  22626754.329    22626755.854    72895562.860 9-100564600.833 8
  25504776.771    25504777.906   -11739017.781 9  10461056.323 9
 86  6 12  3 36 23.0800000  0  4G12G13G 9G 7
  20864790.104    20864792.383     6240500.791 9 -19951352.744 8
  21139996.726    21139998.114    32704368.195 9 -43494953.017 9
  22631086.052    22631086.950    72918322.477 9-100546866.064 9
  25501433.293    25501434.998   -11756589.611 9  10447363.983 9
 86  6 12  3 36 29.0800000  0  4G12G13G 9G 7
  20864831.830    20864833.291     6240720.607 9 -19951181.466 8
  21141429.761    21141430.554    32711900.248 9 -43489083.874 9
  22635419.495    22635420.213    72941093.254 8-100529122.606 8
  25498091.516    25498093.276   -11774152.216 9  10433678.845 9
 86  6 12  3 36 35.0800000  0  4G12G13G 9G 7
  20864878.306    20864880.750     6240966.752 9 -19950989.660 9
  21142864.587    21142865.998    32719439.087 9 -43483209.462 9
  22639754.679    22639756.289    72963875.268 9-100511370.395 9
  25494751.047    25494752.383   -11791703.858 9  10420002.239 9
 86  6 12  3 36 41.0800000  0  4G12G13G 9G 7
  20864930.456    20864932.071     6241239.150 9 -19950777.404 9
  21144300.533    21144302.322    32726984.629 9 -43477329.814 8
  22644091.332    22644092.823    72986668.413 8-100493609.510 7
                  25491414.679                    10406338.732 8
 86  6 12  3 36 47.0800000  0  4G12G13G 9G 7
  20864986.785    20864988.439     6241537.867 9 -19950544.637 8
  21145738.476    21145739.304    32734536.887 9 -43471444.932 8
  22648430.967    22648432.353    73009472.613 9-100475840.001 9
  25488081.496    25488083.910   -11845474.139 9  10392693.856 8
 86  6 12  3 36 53.0800000  0  4G12G13G 9G 7
  20865049.962    20865050.968     6241862.882 8 -19950291.379 8
  21147176.513    21147177.409    32742095.878 9 -43465554.807 8
  22652772.142    22652774.172    73032287.870 9-100458061.873 9
  25484755.986    25484757.284   -11862957.990 9  10379070.060 8
 86  6 12  3 36 59.0800000  0  4G12G13G 9G 7
  20865116.278    20865118.417     6242214.134 9 -19950017.672 9
  21148615.837    21148617.227    32749661.516 9 -43459659.510 8
  22657116.380    22657116.888    73055114.284 8-100440275.066 7
  25481433.024    25481434.232   -11880416.774 9  10365465.427 9
 86  6 12  3 37  5.0800000  0  4G12G13G 9G 7
  20865188.516    20865189.676     6242591.743 9 -19949723.436 8
  21150056.751    21150058.249    32757233.859 9 -43453758.977 9
  22661461.447    22661463.658    73077951.690 8-100422479.693 9
  25478113.831    25478114.933   -11897856.031 9  10351876.392 9
 86  6 12  3 37 11.0800000  0  4G12G13G 9G 7
  20865264.932    20865265.234     6242995.674 8 -19949408.679 8
  21151499.264    21151499.667    32764812.908 9 -43447853.224 8
  22665810.387    22665812.251    73100800.044 9-100404675.787 9
  25474797.962    25474799.752   -11915279.594 9  10338299.595 9
 86  6 12  3 37 17.0800000  0  4G12G13G 9G 7
  20865347.176    20865348.795     6243425.836 9 -19949073.488 9
  21152943.095    21152943.641    32772398.548 9 -43441942.337 9
  22670161.737    22670162.159    73123659.454 9-100386863.256 8
  25471485.980    25471486.877   -11932690.289 9  10324732.825 9
 86  6 12  3 37 23.0800000  0  4G12G13G 9G 7
  20865433.788    20865434.650     6243882.314 9 -19948717.790 8
  21154387.630    21154387.553    32779990.859 9 -43436026.233 8
  22674512.552    22674513.985    73146529.815 9-100369042.198 8
  25468174.326    25468176.409   -11950090.382 9  10311174.312 8
 86  6 12  3 37 29.0800000  0  4G12G13G 9G 7
  20865524.918    20865527.875     6244365.160 9 -19948341.546 8
  21155833.739    21155833.835    32787589.810 9 -43430104.976 9
  22678866.905    22678868.559    73169411.037 9-100351212.689 8
  25464865.076    25464866.841   -11967480.775 9  10297623.357 9
 86  6 12  3 37 35.0800000  0  4G12G13G 9G 7
  20865622.338    20865623.522     6244874.343 9 -19947944.780 9
  21157281.268    21157281.783    32795195.455 9 -43424178.505 8
  22683223.292    22683224.639    73192303.223 9-100333374.618 7
  25461558.254    25461559.684   -11984859.600 8  10284081.414 9
 86  6 12  3 37 41.0800000  0  4G12G13G 9G 7
  20865724.186    20865725.253     6245409.937 9 -19947527.432 9
  21158729.847    21158729.448    32802807.688 9 -43418246.895 8
  22687581.547    22687581.998    73215206.279 8-100315528.089 8
                  25458254.934                    10270553.223 8
 86  6 12  3 37 47.0800000  0  4G12G13G 9G 7
  20865830.868    20865832.534     6245971.810 9 -19947089.618 9
  21160179.051    21160180.075    32810426.475 9 -43412310.173 9
  22691941.033    22691942.533    73238120.174 9-100297673.115 8
  25454955.031    25454956.508   -12038328.060 9  10257044.058 9
 86  6 12  3 37 53.0800000  0  4G12G13G 9G 7
  20865943.584    20865944.260     6246559.928 9 -19946631.333 8
  21161630.648    21161631.235    32818051.865 9 -43406368.312 9
  22696304.030    22696305.931    73261044.801 8-100279809.761 8
  25451661.637    25451661.759   -12055637.553 9  10243556.142 8
 86  6 12  3 37 59.0800000  0  4G12G13G 9G 7
  20866061.215    20866061.662     6247174.407 9 -19946152.511 9
  21163083.229    21163082.643    32825683.823 9 -43400421.325 8
  22700668.071    22700670.006    73283980.332 9-100261937.930 9
  25448372.354    25448373.120   -12072922.908 9  10230087.426 8
 86  6 12  3 38  5.0800000  0  4G12G13G 9G 7
  20866182.196    20866183.839     6247815.173 9 -19945653.220 9
  21164536.570    21164537.228    32833322.348 9 -43394469.228 9
  22705035.108    22705035.406    73306926.624 9-100244057.709 9
  25445086.506    25445087.912   -12090187.706 9  10216634.333 8
 86  6 12  3 38 11.0800000  0  4G12G13G 9G 7
  20866308.351    20866310.717     6248482.231 9 -19945133.432 9
  21165991.201    21165991.653    32840967.464 9 -43388511.989 8
  22709403.728    22709403.793    73329883.639 8-100226169.124 8
  25441804.799    25441805.177   -12107436.872 9  10203193.434 8
 86  6 12  3 38 17.0800000  0  4G12G13G 9G 7
  20866441.005    20866442.189     6249175.628 9 -19944593.122 8
  21167447.247    21167447.343    32848619.063 9 -43382549.695 7
  22713774.338    22713775.470    73352851.366 9-100208272.208 8
  25438524.020    25438525.603   -12124673.143 9  10189762.568 9
 86  6 12  3 38 23.0800000  0  4G12G13G 9G 7
  20866578.003    20866579.143     6249895.207 9 -19944032.415 8
  21168904.292    21168905.110    32856277.134 9 -43376582.372 9
  22718146.678    22718148.036    73375829.700 9-100190367.013 8
  25435246.233    25435247.137   -12141898.750 9  10176340.015 8
 86  6 12  3 38 29.0800000  0  4G12G13G 9G 7
  20866719.595    20866721.636     6250641.138 9 -19943451.166 9
  21170362.659    21170365.159    32863941.783 9 -43370609.921 9
  22722521.366    22722523.157    73398818.722 9-100172453.493 8
  25431970.687    25431972.221   -12159114.405 9  10162925.227 8
 86  6 12  3 38 35.0800000  0  4G12G13G 9G 7
  20866866.565    20866868.214     6251413.406 9 -19942849.400 8
  21171821.963    21171824.269    32871612.961 9 -43364632.377 9
  22726898.275    22726899.395    73421818.354 9-100154531.707 9
  25428696.433    25428698.668   -12176317.928 9  10149519.879 8
 86  6 12  3 38 41.0800000  0  4G12G13G 9G 7
  20867018.791    20867020.085     6252212.106 9 -19942227.036 9
  21173283.264    21173284.555    32879290.569 9 -43358649.821 9
  22731278.000    22731278.103    73444828.728 8-100136601.562 9
                  25425427.599                    10136128.934 8
 86  6 12  3 38 47.0800000  0  4G12G13G 9G 7
  20867175.331    20867178.629     6253037.123 9 -19941584.159 9
  21174745.945    21174746.868    32886974.696 9 -43352662.188 8
  22735657.523    22735659.129    73467849.680 9-100118663.156 8
  25422161.227    25422163.141   -12229738.299 9  10122757.635 9
 86  6 12  3 38 53.0800000  0  4G12G13G 9G 7
  20867337.038    20867339.760     6253888.447 9 -19940920.795 8
  21176209.496    21176211.318    32894665.338 9 -43346669.476 9
  22740041.068    22740041.853    73490881.087 9-100100716.603 9
  25418900.964    25418901.570   -12246870.741 9  10109407.693 8
 86  6 12  3 38 59.0800000  0  4G12G13G 9G 7
  20867504.942    20867506.646     6254766.104 9 -19940236.909 9
  21177674.178    21177674.983    32902362.425 9 -43340671.743 9
  22744425.133    22744426.695    73513922.966 9-100082761.898 8
  25415644.910    25415646.339   -12263978.115 9  10096076.884 9
 86  6 12  3 39  5.0800000  0  4G12G13G 9G 7
  20867676.368    20867679.330     6255670.130 9 -19939532.477 8
  21179139.928    21179140.247    32910065.925 9 -43334669.013 9
  22748811.392    22748814.047    73536975.421 9-100064798.947 9
  25412393.380    25412395.166   -12281066.060 9  10082761.625 9
 86  6 12  3 39 11.0800000  0  4G12G13G 9G 7
  20867853.196    20867856.723     6256600.487 9 -19938807.515 8
  21180606.739    21180608.397    32917775.835 9 -43328661.284 8
  22753200.484    22753202.628    73560038.344 9-100046827.838 9
  25409145.029    25409146.182   -12298138.266 9  10069458.603 9
 86  6 12  3 39 17.0800000  0  4G12G13G 9G 7
  20868035.047    20868037.558     6257557.169 8 -19938062.051 9
  21182075.232    21182076.259    32925492.193 9 -43322648.531 9
  22757591.760    22757592.526    73583111.745 8-100028848.579 8
  25405898.396    25405899.778   -12315197.471 9  10056165.721 8
 86  6 12  3 39 23.0800000  0  4G12G13G 9G 7
  20868222.560    20868224.839     6258540.188 9 -19937296.068 8
  21183545.099    21183545.160    32933214.881 9 -43316630.852 9
  22761984.348    22761985.572    73606195.568 9-100010861.178 8
  25402654.261    25402655.768   -12332245.835 9  10042881.285 9
 86  6 12  3 39 29.0800000  0  4G12G13G 9G 7
  20868414.971    20868417.138     6259549.482 8 -19936509.603 9
  21185015.699    21185016.738    32940944.003 9 -43310608.170 9
  22766378.329    22766379.915    73629289.792 9 -99992865.676 9
  25399412.436    25399413.924   -12349284.012 9  10029604.788 9
 86  6 12  3 39 35.0800000  0  4G12G13G 9G 7
  20868611.634    20868613.923     6260585.051 9 -19935702.662 8
  21186487.428    21186488.559    32948679.514 9 -43304580.497 8
  22770775.525    22770776.758    73652394.305 9 -99974862.167 8
  25396172.148    25396173.436   -12366309.577 9  10016338.111 8
 86  6 12  3 39 41.0800000  0  4G12G13G 9G 7
  20868814.049    20868816.215     6261646.921 9 -19934875.224 9
  21187961.228    21187962.978    32956421.335 9 -43298547.903 8
  22775173.932    22775175.308    73675509.108 9 -99956850.632 9
                  25392937.496                    10003086.485 8
 86  6 12  3 39 47.0800000  0  4G12G13G 9G 7
  20869021.256    20869022.062     6262735.169 9 -19934027.242 9
  21189435.320    21189436.190    32964169.481 9 -43292510.383 8
  22779574.510    22779575.519    73698634.230 9 -99938831.054 7
  25389705.306    25389707.045   -12419422.256 9   9989854.989 9
 86  6 12  3 39 53.0800000  0  4G12G13G 9G 7
  20869233.293    20869235.088     6263849.762 9 -19933158.726 8
  21190910.577    21190911.701    32971923.980 9 -43286467.910 8
  22783977.653    22783978.810    73721769.684 9 -99920803.439 9
  25386478.915    25386480.525   -12436375.044 9   9976645.031 9
 86  6 12  3 39 59.0800000  0  4G12G13G 9G 7
  20869450.301    20869452.308     6264990.767 9 -19932269.638 9
  21192387.850    21192389.636    32979684.883 9 -43280420.445 9
  22788380.621    22788383.456    73744915.404 9 -99902767.833 8
  25383258.128    25383258.563   -12453303.308 8   9963454.178 9
 86  6 12  3 40  5.0800000  0  4G12G13G 9G 7
  20869672.205    20869674.619     6266158.163 9 -19931359.975 9
  21193865.987    21193866.461    32987452.075 9 -43274368.083 8
  22792788.452    22792789.066    73768071.293 9 -99884724.281 9
  25380039.529    25380040.929   -12470211.797 9   9950278.733 8
 86  6 12  3 40 11.0800000  0  4G12G13G 9G 7
  20869899.538    20869902.366     6267351.911 9 -19930429.771 8
  21195345.289    21195345.884    32995225.510 9 -43268310.865 8
  22797195.903    22797198.834    73791237.409 9 -99866672.757 8
  25376825.655    25376827.056   -12487104.552 9   9937115.550 9
 86  6 12  3 40 17.0800000  0  4G12G13G 9G 7
  20870132.511    20870134.089     6268571.928 9 -19929479.116 9
  21196825.431    21196826.803    33003005.266 9 -43262248.729 9
  22801606.321    22801608.450    73814413.701 8 -99848613.309 8
  25373612.894    25373615.084   -12503984.197 9   9923962.587 9
 86  6 12  3 40 23.0800000  0  4G12G13G 9G 7
  20870369.057    20870371.625     6269818.283 9 -19928507.925 9
  21198307.329    21198308.777    33010791.432 9 -43256181.573 9
  22806018.503    22806020.537    73837600.130 8 -99830545.967 8
  25370403.138    25370404.084   -12520852.853 9   9910818.186 9
 86  6 12  3 40 29.0800000  0  4G12G13G 9G 7
  20870610.911    20870612.393     6271090.911 9 -19927516.271 8
  21199789.277    21199792.492    33018583.831 9 -43250109.569 9
  22810432.936    22810435.076    73860796.734 8 -99812470.697 8
  25367194.960    25367195.769   -12537711.020 9   9897681.952 8
 86  6 12  3 40 35.0800000  0  4G12G13G 9G 7
  20870858.371    20870860.575     6272389.877 9 -19926504.087 9
  21201274.155    21201275.469    33026382.398 9 -43244032.760 7
  22814848.753    22814850.530    73884003.388 8 -99794387.585 8
  25363989.413    25363990.689   -12554556.000 9   9884555.992 9
 86  6 12  3 40 41.0800000  0  4G12G13G 9G 7
  20871110.082    20871111.849     6273715.201 9 -19925471.368 9
  21202759.324    21202760.686    33034187.195 9 -43237951.093 8
  22819267.527    22819268.846    73907220.146 9 -99776296.612 9
                  25360789.307                     9871445.597 8
 86  6 12  3 40 47.0800000  0  4G12G13G 9G 7
  20871367.430    20871369.817     6275066.890 9 -19924418.101 8
  21204245.362    21204247.541    33041998.263 9 -43231864.550 9
  22823686.945    22823687.878    73930446.975 8 -99758197.793 8
  25357590.458    25357592.376   -12607615.620 9   9858355.782 9
 86  6 12  3 40 53.0800000  0  4G12G13G 9G 7
  20871630.395    20871631.766     6276444.901 9 -19923344.322 9
  21205733.199    21205733.991    33049815.531 9 -43225773.166 8
  22828108.781    22828110.897    73953683.786 9 -99740091.189 9
  25354399.794    25354401.405   -12624386.437 9   9845287.626 9
 86  6 12  3 40 59.0800000  0  4G12G13G 9G 7
  20871898.094    20871898.804     6277849.213 8 -19922250.063 9
  21207221.625    21207223.368    33057639.000 9 -43219676.957 9
  22832532.616    22832533.677    73976930.613 9 -99721976.785 8
  25351212.724    25351215.032   -12641132.837 8   9832238.481 7
 86  6 12  3 41  5.0800000  0  4G12G13G 9G 7
  20872169.134    20872171.244     6279279.935 8 -19921135.210 8
  21208712.056    21208713.563    33065468.705 9 -43213575.885 9
  22836957.161    22836959.529    74000187.369 9 -99703854.643 8
  25348030.335    25348031.731   -12657859.396 9   9819204.802 9
 86  6 12  3 41 11.0800000  0  4G12G13G 9G 7
  20872447.410    20872449.001     6280736.993 9 -19919999.833 8
  21210203.131    21210204.033    33073304.579 9 -43207470.009 8
  22841385.870    22841387.194    74023454.138 9 -99685724.692 8
  25344850.236    25344850.706   -12674570.282 9   9806183.335 9
 86  6 12  3 41 17.0800000  0  4G12G13G 9G 7
  20872728.958    20872731.350     6282220.390 8 -19918843.949 8
  21211695.269    21211695.823    33081146.615 9 -43201359.331 8
  22845814.232    22845816.099    74046730.735 9 -99667587.086 8
  25341672.801    25341674.336   -12691267.882 9   9793172.218 9
 86  6 12  3 41 23.0800000  0  4G12G13G 9G 7
  20873016.632    20873018.392     6283730.111 8 -19917667.536 9
  21213188.862    21213189.785    33088994.847 9 -43195243.831 9
  22850245.688    22850248.448    74070017.127 9 -99649441.849 9
  25338497.576    25338498.025   -12707954.296 9   9780169.821 9
 86  6 12  3 41 29.0800000  0  4G12G13G 9G 7
  20873308.821    20873310.316     6285266.124 9 -19916470.646 9
  21214682.612    21214684.581    33096849.197 9 -43189123.555 8
  22854679.096    22854682.036    74093313.524 8 -99631288.821 9
  25335324.078    25335324.647   -12724629.995 9   9767175.775 8
 86  6 12  3 41 35.0800000  0  4G12G13G 9G 7
  20873605.093    20873607.587     6286828.511 9 -19915253.198 8
  21216177.852    21216180.635    33104709.711 9 -43182998.474 8
  22859114.535    22859116.150    74116619.719 9 -99613128.151 8
  25332153.836    25332154.554   -12741291.833 9   9754192.528 9
 86  6 12  3 41 41.0800000  0  4G12G13G 9G 7
  20873908.662    20873910.146     6288417.205 9 -19914015.261 9
  21217675.589    21217678.122    33112576.302 9 -43176868.659 8
  22863551.668    22863552.620    74139935.740 9 -99594959.824 9
                  25328987.682                     9741225.595 8
 86  6 12  3 41 47.0800000  0  4G12G13G 9G 7
  20874215.700    20874217.951     6290032.268 8 -19912756.768 9
  21219174.578    21219175.469    33120449.055 9 -43170734.042 8
  22867990.217    22867991.560    74163261.499 9 -99576783.908 7
  25325824.398    25325825.129   -12794164.779 9   9728279.609 8
 86  6 12  3 41 53.0800000  0  4G12G13G 9G 7
  20874527.700    20874530.358     6291673.708 9 -19911477.722 8
  21220672.933    21220674.240    33128327.907 9 -43164594.666 8
  22872431.237    22872432.485    74186596.987 8 -99558600.409 9
  25322669.119    25322669.928   -12810750.801 9   9715355.437 9
 86  6 12  3 41 59.0800000  0  4G12G13G 9G 7
  20874845.731    20874848.574     6293341.507 9 -19910178.144 8
  21222173.769    21222175.240    33136212.780 9 -43158450.613 8
  22876873.388    22876874.745    74209942.227 9 -99540409.317 9
  25319516.996    25319518.208   -12827312.486 9   9702450.215 9
 86  6 12  3 42  5.0800000  0  4G12G13G 9G 7
  20875167.438    20875168.768     6295035.604 9 -19908858.065 9
  21223675.178    21223676.134    33144103.724 9 -43152301.820 8
  22881317.060    22881318.941    74233297.122 9 -99522210.717 8
  25316369.513    25316370.971   -12843854.541 9   9689560.313 9
 86  6 12  3 42 11.0800000  0  4G12G13G 9G 7
  20875495.371    20875496.900     6296756.007 9 -19907517.489 8
  21225177.935    21225180.119    33152000.721 9 -43146148.318 8
  22885762.964    22885765.179    74256661.727 9 -99504004.521 8
  25313224.516    25313226.519   -12860380.818 9   9676682.698 9
 86  6 12  3 42 17.0800000  0  4G12G13G 9G 7
  20875827.638    20875828.844     6298502.744 9 -19906156.395 8
  21226682.272    21226682.926    33159903.799 9 -43139990.071 8
  22890211.734    22890213.888    74280035.986 8 -99485790.818 8
  25310082.565    25310083.713   -12876893.798 9   9663815.443 9
 86  6 12  3 42 23.0800000  0  4G12G13G 9G 7
  20876163.892    20876166.839     6300275.833 9 -19904774.770 9
  21228186.994    21228188.602    33167812.933 9 -43133827.101 9
  22894660.920    22894662.702    74303419.798 9 -99467569.669 8
  25306942.401    25306943.653   -12893395.513 9   9650956.970 9
 86  6 12  3 42 29.0800000  0  4G12G13G 9G 7
  20876506.242    20876508.337     6302075.241 9 -19903372.632 8
  21229692.966    21229694.751    33175728.089 9 -43127659.459 8
  22899111.603    22899114.425    74326813.246 9 -99449341.011 8
  25303804.202    25303804.843   -12909886.091 9   9638107.170 9
 86  6 12  3 42 35.0800000  0  4G12G13G 9G 7
  20876853.617    20876857.101     6303900.939 8 -19901950.010 8
  21231199.794    21231202.168    33183649.231 9 -43121487.133 9
  22903566.356    22903568.372    74350216.234 8 -99431104.914 8
  25300668.846    25300669.839   -12926362.270 9   9625268.587 9
 86  6 12  3 42 41.0800000  0  4G12G13G 9G 7
  20877206.491    20877209.510     6305753.020 9 -19900506.830 9
  21232709.117    21232710.071    33191576.359 9 -43115310.144 9
  22908020.845    22908022.670    74373628.795 9 -99412861.382 9
                  25297539.086                     9612446.952 8
 86  6 12  3 42 47.0800000  0  4G12G13G 9G 7
  20877564.500    20877566.529     6307631.416 9 -19899043.141 9
  21234218.560    21234220.572    33199509.489 9 -43109128.482 9
  22912478.411    22912480.823    74397050.820 8 -99394610.439 7
  25294412.265    25294413.267   -12979050.596 9   9599646.786 9
 86  6 12  3 42 53.0800000  0  4G12G13G 9G 7
  20877927.341    20877928.878     6309536.218 9 -19897558.889 9
  21235729.939    21235731.420    33207448.652 9 -43102942.119 8
  22916937.566    22916939.272    74420482.317 9 -99376352.136 9
  25291291.067    25291292.408   -12995449.506 9   9586868.418 9
 86  6 12  3 42 59.0800000  0  4G12G13G 9G 7
  20878293.473    20878295.745     6311467.313 9 -19896054.142 8
  21237241.172    21237243.570    33215393.776 9 -43096751.109 8
  22921398.981    22921399.513    74443923.351 9 -99358086.396 9
  25288175.596    25288176.840   -13011824.127 9   9574108.978 9
 86  6 12  3 43  5.0800000  0  4G12G13G 9G 7
  20878666.880    20878669.050     6313424.730 9 -19894528.887 9
  21238754.132    21238755.848    33223344.825 9 -43090555.488 9
  22925860.511    22925862.751    74467373.799 8 -99339813.328 9
  25285062.896    25285063.721   -13028179.122 9   9561364.834 9
 86  6 12  3 43 11.0800000  0  4G12G13G 9G 7
  20879044.025    20879047.135     6315408.483 9 -19892983.099 8
  21240268.815    21240269.699    33231301.843 9 -43084355.214 8
  22930324.149    22930327.695    74490833.645 8 -99321532.941 8
  25281953.566    25281954.881   -13044518.250 9   9548633.050 9
 86  6 12  3 43 17.0800000  0  4G12G13G 9G 7
  20879426.107    20879428.575     6317418.488 9 -19891416.858 8
  21241784.028    21241785.074    33239264.772 9 -43078150.327 8
  22934792.080    22934793.242    74514302.836 8 -99303245.264 9
  25278846.419    25278848.404   -13060844.031 9   9535911.665 9
 86  6 12  3 43 23.0800000  0  4G12G13G 9G 7
  20879813.512    20879815.634     6319454.867 8 -19889830.068 8
  21243300.928    21243302.616    33247233.667 9 -43071940.802 8
  22939258.691    22939260.963    74537781.369 9 -99284950.298 8
  25275742.723    25275744.476   -13077158.323 9   9523199.227 9
 86  6 12  3 43 29.0800000  0  4G12G13G 9G 7
  20880205.723    20880209.156     6321517.520 9 -19888222.809 8
  21244818.119    21244820.046    33255208.460 9 -43065726.671 9
  22943727.608    22943729.485    74561269.219 9 -99266648.085 8
  25272639.868    25272642.569   -13093461.137 9   9510495.741 8
 86  6 12  3 43 35.0800000  0  4G12G13G 9G 7
  20880603.110    20880605.368     6323606.528 9 -19886595.005 9
  21246336.672    21246337.569    33263189.172 9 -43059507.938 9
  22948199.450    22948201.127    74584766.333 8 -99248338.654 9
  25269541.229    25269542.204   -13109748.637 9   9497804.187 8
 86  6 12  3 43 41.0800000  0  4G12G13G 9G 7
  20881006.687    20881008.811     6325721.891 8 -19884946.681 9
  21247856.491    21247857.860    33271175.749 9 -43053284.629 9
  22952673.234    22952674.018    74608272.736 9 -99230021.982 8
                  25266447.126                     9485130.087 8
 86  6 12  3 43 47.0800000  0  4G12G13G 9G 7
  20881413.793    20881416.456     6327863.561 8 -19883277.841 8
  21249377.058    21249378.726    33279168.247 9 -43047056.707 9
  22957147.379    22957149.857    74631788.406 8 -99211698.072 8
  25263355.342    25263356.857   -13162253.806 9   9472477.820 8
 86  6 12  3 43 53.0800000  0  4G12G13G 9G 7
  20881826.434    20881828.800     6330031.584 9 -19881588.478 9
  21250899.351    21250901.022    33287166.619 9 -43040824.203 9
  22961624.134    22961625.266    74655313.261 9 -99193367.023 8
  25260271.871    25260272.955   -13178462.879 9   9459847.380 9
 86  6 12  3 43 59.0800000  0  4G12G13G 9G 7
  20882243.991    20882246.201     6332225.832 8 -19879878.676 9
  21252422.952    21252422.873    33295170.812 9 -43034587.168 8
  22966101.695    22966104.492    74678847.227 9 -99175028.878 8
  25257191.866    25257192.713   -13194647.741 9   9447235.804 9
 86  6 12  3 44  5.0800000  0  4G12G13G 9G 7
  20882666.651    20882668.704     6334446.422 9 -19878148.346 8
  21253946.626    21253947.773    33303180.916 9 -43028345.531 8
  22970582.971    22970584.500    74702390.470 9 -99156683.501 8
  25254115.586    25254116.118   -13210812.961 9   9434639.533 9
 86  6 12  3 44 11.0800000  0  4G12G13G 9G 7
  20883094.665    20883097.155     6336693.360 9 -19876397.484 9
  21255471.757    21255473.786    33311196.827 9 -43022099.361 9
  22975064.086    22975066.817    74725942.799 9 -99138331.037 8
  25251041.653    25251043.842   -13226962.315 9   9422055.625 9
 86  6 12  3 44 17.0800000  0  4G12G13G 9G 7
  20883527.409    20883528.314     6338966.636 8 -19874626.095 8
  21256998.803    21257000.036    33319218.526 9 -43015848.689 9
  22979548.171    22979549.629    74749504.357 7 -99119971.386 9
  25247972.225    25247973.067   -13243098.180 9   9409482.234 9
 86  6 12  3 44 23.0800000  0  4G12G13G 9G 7
  20883964.237    20883966.932     6341266.204 7 -19872834.226 7
  21258525.321    21258527.973    33327245.996 8 -43009593.511 8
  22984032.587    22984036.009    74773074.945 8 -99101604.684 9
  25244902.907    25244904.546   -13259222.318 9   9396917.963 9
 86  6 12  3 44 29.0800000  0  4G12G13G 9G 7
  20884406.575    20884409.940     6343592.038 8 -19871021.896 8
  21260054.183    21260055.565    33335279.329 9 -43003333.764 9
  22988521.046    22988522.360    74796654.501 9 -99083231.014 9
  25241837.036    25241838.342   -13275334.690 9   9384362.874 8
 86  6 12  3 44 35.0800000  0  4G12G13G 9G 7
  20884854.651    20884856.470     6345944.203 9 -19869189.037 9
  21261583.695    21261585.645    33343318.516 9 -42997069.466 8
  22993009.654    22993011.908    74820243.109 9 -99064850.287 9
                  25238776.242                     9371820.181 9
 86  6 12  3 44 41.0800000  0  4G12G13G 9G 7
  20885306.600    20885309.532     6348322.723 8 -19867335.642 9
  21263115.269    21263116.698    33351363.434 9 -42990800.700 8
  22997499.573    22997501.073    74843840.670 8 -99046462.575 8
  25235717.483    25235717.597   -13327561.145 9   9359295.382 8
 86  6 12  3 44 47.0800000  0  4G12G13G 9G 7
  20885764.384    20885768.093     6350727.549 9 -19865461.757 9
  21264646.824    21264649.386    33359414.079 9 -42984527.471 8
  23001992.898    23001994.398    74867447.253 8 -99028067.836 8
  25232662.559    25232663.821   -13343606.565 9   9346792.844 8
 86  6 12  3 44 53.0800000  0  4G12G13G 9G 7
  20886226.376    20886229.738     6353158.665 9 -19863567.376 9
  21266180.208    21266181.641    33367470.452 9 -42978249.765 8
  23006485.484    23006488.000    74891062.780 9 -99009666.129 8
  25229613.415    25229615.855   -13359623.431 9   9334312.182 9
 86  6 12  3 44 59.0800000  0  4G12G13G 9G 7
  20886695.267    20886696.871     6355616.080 8 -19861652.511 9
  21267714.642    21267716.273    33375532.630 9 -42971967.542 8
  23010981.341    23010982.880    74914687.262 8 -98991257.444 9
  25226571.746    25226572.421   -13375616.065 9   9321850.391 9
 86  6 12  3 45  5.0800000  0  4G12G13G 9G 7
  20887166.886    20887169.811     6358099.803 8 -19859717.140 9
  21269249.514    21269250.846    33383600.563 9 -42965680.848 8
  23015479.221    23015480.783    74938320.624 8 -98972841.844 8
  25223531.369    25223533.186   -13391589.133 9   9309403.845 9
 86  6 12  3 45 11.0800000  0  4G12G13G 9G 7
  20887644.651    20887647.920     6360609.811 8 -19857761.283 8
  21270786.768    21270786.623    33391674.146 9 -42959389.742 8
  23019977.602    23019979.183    74961962.825 9 -98954419.350 8
  25220494.231    25220496.046   -13407546.183 9   9296969.775 8
 86  6 12  3 45 17.0800000  0  4G12G13G 9G 7
  20888127.391    20888130.621     6363146.206 8 -19855784.876 9
  21272323.888    21272323.919    33399753.537 9 -42953094.105 9
  23024478.682    23024480.655    74985613.935 9 -98935989.912 9
  25217460.707    25217462.252   -13423489.627 9   9284546.319 9
 86  6 12  3 45 23.0800000  0  4G12G13G 9G 7
  20888615.129    20888617.189     6365708.877 9 -19853787.990 8
  21273862.925    21273862.613    33407838.655 9 -42946794.016 8
  23028980.612    23028983.100    75009273.839 8 -98917553.628 9
  25214428.740    25214430.134   -13439421.181 9   9272132.130 9
 86  6 12  3 45 29.0800000  0  4G12G13G 9G 7
  20889108.245    20889110.536     6368297.920 8 -19851770.561 8
  21275402.427    21275402.858    33415929.524 9 -42940489.438 8
  23033485.203    23033486.727    75032942.533 8 -98899110.501 9
  25211399.877    25211401.360   -13455340.544 9   9259727.438 9
 86  6 12  3 45 35.0800000  0  4G12G13G 9G 7
  20889604.679    20889608.432     6370913.178 8 -19849732.691 9
  21276943.294    21276943.152    33424026.050 9 -42934180.462 9
  23037990.371    23037992.921    75056619.897 9 -98880660.608 8
                  25208373.952                     9247335.681 9
 86  6 12  3 45 41.0800000  0  4G12G13G 9G 7
  20890107.733    20890110.949     6373554.720 8 -19847674.346 8
  21278484.610    21278486.391    33432128.173 9 -42927867.117 9
  23042497.351    23042498.570    75080306.086 9 -98862203.834 8
  25205337.712    25205352.350   -13507373.829 9   9234962.309 8
 86  6 12  3 45 47.0800000  0  4G12G13G 9G 7
  20890617.295    20890619.377     6376222.515 8 -19845595.543 9
  21280027.136    21280028.188    33440235.857 9 -42921549.438 8
  23047006.908    23047008.999    75104000.971 9 -98843740.289 8
  25202336.559    25202337.184   -13523224.053 9   9222611.593 9
 86  6 12  3 45 53.0800000  0  4G12G13G 9G 7
  20891129.109    20891130.899     6378916.621 9 -19843496.239 9
  21281571.701    21281572.750    33448349.253 9 -42915227.310 8
  23051517.270    23051519.992    75127704.567 8 -98825269.952 8
  25199324.915    25199326.403   -13539046.539 9   9210282.780 8
 86  6 12  3 45 59.0800000  0  4G12G13G 9G 7
  20891647.380    20891649.634     6381637.046 8 -19841376.430 9
  21283115.923    21283117.937    33456468.327 9 -42908900.762 8
  23056029.588    23056031.317    75151416.819 8 -98806792.882 9
  25196318.828    25196321.173   -13554844.392 9   9197972.765 9
 86  6 12  3 46  5.0800000  0  4G12G13G 9G 7
  20892169.819    20892171.893     6384383.737 9 -19839236.147 9
  21284661.987    21284662.991    33464592.995 9 -42902569.845 9
  23060542.917    23060544.636    75175137.715 8 -98788309.072 9
  25193316.015    25193317.148   -13570622.749 9   9185677.948 9
 86  6 12  3 46 11.0800000  0  4G12G13G 9G 7
  20892697.542    20892700.365     6387156.664 9 -19837075.427 9
  21286209.685    21286210.702    33472723.294 9 -42896234.543 9
  23065058.641    23065061.448    75198867.152 9 -98769818.594 8
  25190316.783    25190318.755   -13586385.132 9   9173395.582 8
 86  6 12  3 46 17.0800000  0  4G12G13G 9G 7
  20893229.729    20893232.147     6389955.854 8 -19834894.241 9
  21287757.768    21287758.586    33480859.284 9 -42889894.822 8
  23069576.186    23069578.230    75222605.146 8 -98751321.457 8
  25187319.612    25187320.703   -13602133.790 9   9161123.905 8
 86  6 12  3 46 23.0800000  0  4G12G13G 9G 7
  20893766.381    20893770.893     6392781.307 8 -19832692.596 9
  21289306.819    21289308.033    33489000.757 9 -42883550.805 8
  23074094.662    23074097.989    75246351.759 8 -98732817.616 8
  25184325.406    25184326.402   -13617870.400 9   9148861.608 9
 86  6 12  3 46 29.0800000  0  4G12G13G 9G 7
  20894310.033    20894312.296     6395632.951 8 -19830470.533 9
  21290855.976    21290858.182    33497147.770 9 -42877202.488 9
  23078615.265    23078617.137    75270106.817 9 -98714307.179 8
  25181333.677    25181334.638   -13633594.395 9   9136609.146 9
 86  6 12  3 46 35.0800000  0  4G12G13G 9G 7
  20894857.322    20894861.223     6398510.850 8 -19828228.003 8
  21292408.882    21292409.587    33505300.386 9 -42870849.801 9
  23083137.947    23083139.262    75293870.383 9 -98695790.123 8
                  25178346.262                     9124370.207 8
 86  6 12  3 46 41.0800000  0  4G12G13G 9G 7
  20895410.010    20895412.139     6401415.098 7 -19825964.953 9
  21293960.397    21293962.843    33513458.566 9 -42864492.766 8
  23087660.477    23087664.000    75317642.456 8 -98677266.429 8
  25175331.749    25175361.097   -13685567.421 9   9112150.285 8
 86  6 12  3 46 47.0800000  0  4G12G13G 9G 7
  20895967.550    20895970.433     6404345.588 9 -19823681.455 8
  21295515.219    21295515.906    33521622.257 9 -42858131.453 9
  23092186.966    23092189.148    75341422.934 7 -98658736.182 8
  25172381.676    25172381.466   -13701220.694 9   9099953.224 9
 86  6 12  3 46 53.0800000  0  4G12G13G 9G 7
  20896529.759    20896533.347     6407302.289 9 -19821377.538 8
  21297069.071    21297070.913    33529791.483 9 -42851765.819 8
  23096713.326    23096715.718    75365211.793 8 -98640199.408 9
  25169408.904    25169409.172   -13716844.858 9   9087778.153 8
 86  6 12  3 46 59.0800000  0  4G12G13G 9G 7
  20897097.745    20897101.029     6410285.240 9 -19819053.157 9
  21298625.724    21298626.591    33537966.247 9 -42845395.872 8
  23101241.240    23101244.463    75389009.071 9 -98621656.086 8
  25166438.925    25166440.617   -13732445.456 9   9075621.849 9
 86  6 12  3 47  5.0800000  0  4G12G13G 9G 7
  20897670.778    20897673.535     6413294.437 8 -19816708.323 9
  21300181.576    21300183.278    33546146.594 9 -42839021.581 9
  23105772.142    23105774.124    75412814.631 9 -98603106.304 8
  25163474.163    25163474.504   -13748026.590 9   9063480.721 9
 86  6 12  3 47 11.0800000  0  4G12G13G 9G 7
  20898248.978    20898250.611     6416329.842 8 -19814343.083 8
  21301739.228    21301740.264    33554332.443 9 -42832643.002 8
  23110303.009    23110306.112    75436628.563 9 -98584549.997 8
  25160512.454    25160514.149   -13763591.690 9   9051352.067 9
 86  6 12  3 47 17.0800000  0  4G12G13G 9G 7
  20898831.651    20898833.092     6419391.494 8 -19811957.374 9
  21303298.219    21303299.310    33562523.681 9 -42826260.212 8
  23114836.638    23114837.595    75460450.678 9 -98565987.303 8
  25157553.117    25157554.068   -13779142.993 9   9039234.182 8
 86  6 12  3 47 23.0800000  0  4G12G13G 9G 7
  20899419.114    20899421.291     6422479.405 8 -19809551.203 9
  21304856.673    21304859.060    33570720.286 9 -42819873.245 9
  23119371.737    23119374.524    75484281.102 9 -98547418.138 8
  25154595.734    25154597.310   -13794682.157 9   9027125.738 8
 86  6 12  3 47 29.0800000  0  4G12G13G 9G 7
  20900011.436    20900013.995     6425593.547 9 -19807124.604 8
  21306417.588    21306419.685    33578922.404 9 -42813481.984 8
  23123908.452    23123909.594    75508119.798 8 -98528842.537 7
  25151641.765    25151643.459   -13810208.228 9   9015027.505 8
 86  6 12  3 47 35.0800000  0  4G12G13G 9G 7
  20900609.384    20900611.785     6428733.901 7 -19804677.574 8
  21307980.198    21307981.525    33587130.071 9 -42807086.403 9
  23128446.445    23128448.260    75531966.759 9 -98510260.485 9
                  25148692.250                     9002943.307 8
 86  6 12  3 47 41.0800000  0  4G12G13G 9G 7
  20901211.749    20901214.099     6431900.502 9 -19802210.101 7
  21309544.182    21309544.294    33595343.142 9 -42800686.602 8
  23132984.996    23132986.821    75555821.860 8 -98491672.105 8
  25145686.698    25145745.366   -13861847.142 9   8990878.644 9
 86  6 12  3 47 47.0800000  0  4G12G13G 9G 7
  20901819.295    20901821.546     6435093.249 8 -19799722.244 9
  21311107.355    21311108.117    33603561.577 9 -42794282.622 8
  23137526.467    23137528.301    75579685.150 8 -98473077.331 8
  25142804.013    25142804.975   -13877300.385 9   8978837.273 9
 86  6 12  3 47 53.0800000  0  4G12G13G 9G 7
  20902431.919    20902433.014     6438312.280 9 -19797213.901 8
  21312671.724    21312672.485    33611785.405 9 -42787874.443 9
  23142068.758    23142072.300    75603556.565 8 -98454476.241 8
  25139867.628    25139869.108   -13892725.320 9   8966817.847 8
 86  6 12  3 47 59.0800000  0  4G12G13G 9G 7
  20903049.855    20903051.527     6441557.654 8 -19794685.043 8
  21314238.253    21314239.652    33620014.596 9 -42781462.088 8
  23146612.971    23146615.039    75627436.135 9 -98435868.779 8
  25136937.142    25136938.425   -13908126.215 9   8954817.154 9
 86  6 12  3 48  5.0800000  0  4G12G13G 9G 7
  20903672.429    20903674.826     6444829.260 9 -19792135.739 9
  21315805.393    21315806.111    33628249.208 9 -42775045.505 9
  23151158.128    23151159.867    75651323.757 9 -98417255.039 9
  25134011.079    25134011.588   -13923507.801 9   8942831.505 9
 86  6 12  3 48 11.0800000  0  4G12G13G 9G 7
  20904299.463    20904301.637     6448127.071 9 -19789566.028 9
  21317373.337    21317373.712    33636489.264 9 -42768624.684 7
  23155706.038    23155708.425    75675219.415 9 -98398635.057 8
  25131086.412    25131087.521   -13938873.246 9   8930858.440 9
 86  6 12  3 48 17.0800000  0  4G12G13G 9G 7
  20904932.397    20904935.019     6451451.070 8 -19786975.890 9
  21318942.239    21318942.283    33644734.658 9 -42762199.703 8
  23160253.862    23160256.392    75699123.166 9 -98380008.753 9
  25128165.578    25128166.261   -13954224.948 8   8918896.078 9
 86  6 12  3 48 23.0800000  0  4G12G13G 9G 7
  20905568.910    20905571.485     6454801.298 9 -19784365.337 8
  21320512.743    21320513.804    33652985.408 9 -42755770.539 9
  23164804.676    23164806.563    75723034.956 9 -98361376.191 8
  25125245.955    25125247.758   -13969564.205 9   8906943.415 9
 86  6 12  3 48 29.0800000  0  4G12G13G 9G 7
  20906211.420    20906215.187     6458177.739 9 -19781734.338 9
  21322083.512    21322084.749    33661241.504 9 -42749337.234 8
  23169356.330    23169359.290    75746954.690 8 -98342737.439 8
  25122329.643    25122330.880   -13984889.913 9   8895001.305 9
 86  6 12  3 48 35.0800000  0  4G12G13G 9G 7
  20906858.965    20906861.504     6461580.374 8 -19779082.928 9
  21323655.214    21323656.388    33669503.010 9 -42742899.683 8
  23173911.108    23173911.674    75770882.396 9 -98324092.475 9
                  25119418.209                     8883073.880 9
 86  6 12  3 48 41.0800000  0  4G12G13G 9G 7
  20907512.745    20907514.743     6465009.197 9 -19776411.116 8
  21325228.496    21325228.203    33677769.807 9 -42736458.026 9
  23178464.522    23178466.547    75794818.017 9 -98305441.342 9
  25116428.992    25116509.610   -14036465.717 9   8871166.590 9
 86  6 12  3 48 47.0800000  0  4G12G13G 9G 7
  20908169.539    20908171.463     6468464.268 8 -19773718.849 8
  21326802.807    21326803.520    33686041.967 9 -42730012.188 9
  23183020.574    23183022.871    75818761.544 8 -98286784.051 7
  25113606.799    25113608.571   -14051716.748 9   8859282.752 9
 86  6 12  3 48 53.0800000  0  4G12G13G 9G 7
  20908831.604    20908834.465     6471945.517 9 -19771006.196 8
  21328378.119    21328378.941    33694319.420 9 -42723562.217 8
  23187578.553    23187580.654    75842712.937 9 -98268120.635 9
  25110709.698    25110710.306   -14066939.536 9   8847420.849 9
 86  6 12  3 48 59.0800000  0  4G12G13G 9G 7
  20909498.618    20909500.677     6475452.982 8 -19768273.111 8
  21329954.195    21329955.545    33702602.223 9 -42717108.083 9
  23192137.795    23192140.678    75866672.174 9 -98249451.099 8
  25107817.589    25107819.495   -14082138.340 9   8835577.623 9
 86  6 12  3 49  5.0800000  0  4G12G13G 9G 7
  20910171.529    20910175.216     6478986.624 9 -19765519.626 9
  21331530.392    21331532.367    33710890.334 9 -42710649.812 8
  23196698.363    23196701.256    75890639.224 8 -98230775.475 8
  25104929.512    25104931.850   -14097317.694 8   8823749.561 8
 86  6 12  3 49 11.0800000  0  4G12G13G 9G 7
  20910848.857    20910851.457     6482546.422 8 -19762745.764 8
  21333108.975    21333110.668    33719183.702 9 -42704187.450 8
  23201261.365    23201262.608    75914614.152 8 -98212093.709 8
  25102044.300    25102045.261   -14112480.883 9   8811934.099 9
 86  6 12  3 49 17.0800000  0  4G12G13G 9G 7
  20911531.589    20911533.442     6486132.335 8 -19759951.538 9
  21334688.028    21334688.924    33727482.302 9 -42697721.015 8
  23205824.919    23205827.192    75938596.806 9 -98193405.931 8
  25099161.186    25099161.891   -14127630.210 9   8800129.428 8
 86  6 12  3 49 23.0800000  0  4G12G13G 9G 7
  20912218.860    20912220.982     6489744.392 9 -19757136.951 8
  21336268.390    21336269.511    33735786.145 9 -42691250.479 9
  23210390.052    23210391.901    75962587.171 9 -98174712.145 8
  25096281.277    25096281.996   -14142766.863 9   8788334.641 8
 86  6 12  3 49 29.0800000  0  4G12G13G 9G 7
  20912910.445    20912913.509     6493382.639 8 -19754301.955 9
  21337850.438    21337850.847    33744095.226 9 -42684775.871 8
  23214956.187    23214959.633    75986585.259 8 -98156012.339 8
  25093403.106    25093404.668   -14157889.528 8   8776550.746 9
 86  6 12  3 49 35.0800000  0  4G12G13G 9G 7
  20913609.869    20913610.989     6497047.040 9 -19751446.580 9
  21339431.320    21339432.300    33752409.572 9 -42678297.164 8
  23219526.476    23219527.356    76010591.086 8 -98137306.499 8
                  25090530.676                     8764782.020 9
 86  6 12  3 49 41.0800000  0  4G12G13G 9G 7
  20914309.648    20914313.029     6500737.598 8 -19748570.820 9
  21341015.975    21341017.579    33760729.179 9 -42671814.344 8
  23224093.374    23224096.854    76034604.517 8 -98118594.731 8
  25087658.840    25087662.372   -14209257.866 9   8753034.011 9
 86  6 12  3 49 47.0800000  0  4G12G13G 9G 7
  20915017.889    20915019.994     6504454.333 9 -19745674.655 8
  21342598.812    21342600.922    33769054.002 9 -42665327.470 8
  23228666.387    23228667.162    76058625.563 8 -98099877.039 8
  25084796.437    25084798.140   -14224304.184 9   8741309.604 9
 86  6 12  3 49 53.0800000  0  4G12G13G 9G 7
  20915730.658    20915733.333     6508197.172 8 -19742758.170 8
  21344184.658    21344185.499    33777383.949 9 -42658836.605 9
  23233238.689    23233239.378    76082654.226 9 -98081153.407 9
  25081938.764    25081940.898   -14239322.793 9   8729607.193 9
 86  6 12  3 49 59.0800000  0  4G12G13G 9G 7
  20916446.752    20916449.241     6511966.132 9 -19739821.312 8
  21345770.966    21345772.500    33785719.065 9 -42652341.703 9
  23237812.550    23237813.674    76106690.428 8 -98062423.900 9
  25079085.156    25079086.723   -14254317.231 9   8717923.215 9
 86  6 12  3 50  5.0800000  0  4G12G13G 9G 7
  20917168.973    20917171.841     6515761.218 8 -19736864.101 9
  21347358.188    21347357.904    33794059.411 9 -42645842.733 9
  23242386.941    23242389.029    76130734.182 8 -98043688.509 9
  25076236.563    25076236.986   -14269292.239 9   8706254.388 9
 86  6 12  3 50 11.0800000  0  4G12G13G 9G 7
  20917896.378    20917899.452     6519582.449 8 -19733886.518 8
  21348946.349    21348947.026    33802404.977 9 -42639339.690 9
  23246964.601    23246966.797    76154785.600 8 -98024947.145 9
  25073389.590    25073390.361   -14284250.767 9   8694598.389 9
 86  6 12  3 50 17.0800000  0  4G12G13G 9G 7
  20918628.768    20918631.190     6523429.773 9 -19730888.611 8
  21350535.476    21350536.319    33810755.671 9 -42632832.657 9
  23251542.455    23251545.453    76178844.396 8 -98006200.034 9
  25070545.151    25070546.861   -14299195.300 9   8682953.306 9
 86  6 12  3 50 23.0800000  0  4G12G13G 9G 7
  20919365.313    20919368.932     6527303.210 9 -19727870.353 8
  21352125.691    21352125.521    33819111.533 9 -42626321.603 9
  23256122.736    23256124.871    76202910.730 9 -97987447.049 9
  25067703.232    25067705.411   -14314127.032 9   8671318.192 8
 86  6 12  3 50 29.0800000  0  4G12G13G 9G 7
  20920107.604    20920111.064     6531202.805 8 -19724831.714 8
  21353716.706    21353716.311    33827472.598 8 -42619806.489 8
  23260703.166    23260705.691    76226984.433 9 -97968688.323 8
  25064865.473    25064866.657   -14329044.373 8   8659694.295 8
 86  6 12  3 50 35.0800000  0  4G12G13G 9G 7
  20920855.811    20920858.264     6535128.463 8 -19721772.749 8
  21355308.476    21355309.488    33835838.777 9 -42613287.379 7
  23265285.518    23265288.211    76251065.500 8 -97949923.855 9
                  25062031.832                     8648086.098 9
 86  6 12  3 50 41.0800000  0  4G12G13G 9G 7
  20921607.566    20921609.005     6539080.184 9 -19718693.490 9
  21356901.503    21356903.072    33844210.100 9 -42606764.269 9
  23269869.420    23269871.969    76275153.987 8 -97931153.608 9
  25059199.012    25059202.452   -14380210.515 9   8636499.110 9
 86  6 12  3 50 47.0800000  0  4G12G13G 9G 7
  20922364.028    20922367.047     6543058.039 9 -19715593.861 7
  21358495.417    21358496.554    33852586.508 9 -42600237.206 8
  23274456.055    23274456.482    76299249.820 8 -97912377.628 9
  25056377.007    25056379.138   -14395050.012 9   8624935.886 8
 86  6 12  3 50 53.0800000  0  4G12G13G 9G 7
  20923126.741    20923128.473     6547062.065 7 -19712473.857 8
  21360089.499    21360091.846    33860967.984 9 -42593706.176 9
  23279041.483    23279043.761    76323353.063 9 -97893595.894 9
  25053558.173    25053560.730   -14409861.310 9   8613394.625 9
 86  6 12  3 50 59.0800000  0  4G12G13G 9G 7
  20923893.323    20923896.109     6551092.185 8 -19709333.493 9
  21361685.925    21361686.359    33869354.455 9 -42587171.265 8
  23283630.279    23283631.803    76347463.562 8 -97874808.508 9
  25050744.990    25050745.878   -14424648.869 9   8601871.862 9
 86  6 12  3 51  5.0800000  0  4G12G13G 9G 7
  20924663.415    20924666.288     6555148.362 9 -19706172.828 8
  21363282.269    21363283.286    33877745.948 9 -42580632.441 8
  23288219.709    23288221.200    76371581.384 9 -97856015.390 9
  25047933.733    25047936.607   -14439417.023 9   8590364.207 9
 86  6 12  3 51 11.0800000  0  4G12G13G 9G 7
  20925441.773    20925444.580     6559230.615 9 -19702991.861 9
  21364880.881    21364882.761    33886142.439 9 -42574089.717 8
  23292810.175    23292812.199    76395706.442 8 -97837216.656 8
  25045127.062    25045128.695   -14454168.864 9   8578869.268 9
 86  6 12  3 51 17.0800000  0  4G12G13G 9G 7
  20926223.378    20926226.075     6563338.943 8 -19699790.562 9
  21366479.724    21366479.964    33894544.126 9 -42567542.946 8
  23297402.171    23297404.554    76419838.713 8 -97818412.291 8
  25042322.297    25042324.627   -14468906.436 9   8567385.452 9
 86  6 12  3 51 23.0800000  0  4G12G13G 9G 7
  20927010.908    20927012.381     6567473.332 9 -19696568.954 8
  21368079.027    21368080.096    33902950.904 9 -42560992.219 8
  23301995.736    23301997.623    76443978.249 9 -97799602.264 8
  25039520.021    25039523.002   -14483630.925 9   8555911.829 9
 86  6 12  3 51 29.0800000  0  4G12G13G 9G 7
  20927802.633    20927803.880     6571633.824 8 -19693327.026 9
  21369680.310    21369680.924    33911362.745 9 -42554437.526 9
  23306591.095    23306594.012    76468124.934 9 -97780786.665 9
  25036721.749    25036722.767   -14498340.454 9   8544449.864 9
 86  6 12  3 51 35.0800000  0  4G12G13G 9G 7
  20928598.759    20928600.678     6575820.370 8 -19690064.770 8
  21371281.610    21371281.921    33919779.583 9 -42547878.952 8
  23311187.284    23311188.799    76492278.755 8 -97761965.516 8
                  25033927.198                     8533004.056 8
 86  6 12  3 51 41.0800000  0  4G12G13G 9G 7
  20929399.830    20929400.841     6580033.013 8 -19686782.201 8
  21372883.625    21372885.556    33928201.433 9 -42541316.469 9
  23315784.661    23315786.580    76516439.675 8 -97743138.820 9
  25031136.833    25031137.983   -14549155.719 9   8521579.924 9
 86  6 12  3 51 47.0800000  0  4G12G13G 9G 7
  20930207.407    20930209.427     6584271.690 8 -19683479.328 8
  21374487.456    21374489.441    33936628.193 9 -42534750.165 9
  23320383.654    23320385.746    76540607.663 8 -97724306.620 9
  25028353.038    25028353.460   -14563785.985 9   8510179.719 9
 86  6 12  3 51 53.0800000  0  4G12G13G 9G 7
  20931017.294    20931020.424     6588536.446 8 -19680156.149 8
  21376092.516    21376094.336    33945059.975 9 -42528179.954 8
  23324983.745    23324986.428    76564782.741 8 -97705468.909 9
  25025574.053    25025575.038   -14578387.539 9   8498801.500 9
 86  6 12  3 51 59.0800000  0  4G12G13G 9G 7
  20931835.577    20931837.179     6592827.182 9 -19676812.714 9
  21377697.836    21377699.113    33953496.757 9 -42521605.826 9
  23329585.953    23329587.672    76588964.863 8 -97686625.703 9
  25022799.750    25022801.105   -14592965.928 9   8487441.715 8
 86  6 12  3 52  5.0800000  0  4G12G13G 9G 7
  20932656.376    20932658.402     6597143.967 8 -19673448.988 8
  21379304.098    21379305.085    33961938.574 9 -42515027.792 9
  23334188.824    23334190.711    76613154.042 8 -97667777.000 9
  25020029.396    25020031.085   -14607524.817 9   8476097.125 9
 86  6 12  3 52 11.0800000  0  4G12G13G 9G 7
  20933483.877    20933484.828     6601486.831 9 -19670064.935 8
  21380911.524    21380913.008    33970385.250 9 -42508445.957 9
  23338793.174    23338795.753    76637350.196 8 -97648922.854 8
  25017261.917    25017263.497   -14622067.342 9   8464765.297 9
 86  6 12  3 52 17.0800000  0  4G12G13G 9G 7
  20934313.089    20934316.033     6605855.687 8 -19666660.635 8
  21382520.034    21382520.450    33978836.831 9 -42501860.317 9
  23343398.401    23343401.509    76661553.232 8 -97630063.353 9
  25014497.005    25014498.127   -14636595.633 9   8453444.550 8
 86  6 12  3 52 23.0800000  0  4G12G13G 9G 7
  20935149.734    20935152.681     6610250.594 8 -19663236.036 9
  21384128.918    21384130.921    33987293.291 9 -42495270.857 8
  23348006.333    23348008.115    76685763.281 8 -97611198.378 9
  25011735.584    25011736.265   -14651110.565 9   8442134.215 8
 86  6 12  3 52 29.0800000  0  4G12G13G 9G 7
  20935991.572    20935993.296     6614671.515 7 -19659791.166 9
  21385739.373    21385740.866    33995754.722 9 -42488677.538 9
  23352615.482    23352617.068    76709980.192 8 -97592328.066 9
  25008976.174    25008977.012   -14665610.129 9   8430835.863 9
 86  6 12  3 52 35.0800000  0  4G12G13G 9G 7
  20936837.563    20936840.398     6619118.509 9 -19656325.973 8
  21387350.636    21387351.717    34004221.102 9 -42482080.366 9
  23357223.113    23357226.860    76734204.001 9 -97573452.379 9
                  25006222.178                     8419554.384 9
 86  6 12  3 52 41.0800000  0  4G12G13G 9G 7
  20937689.144    20937690.905     6623591.506 8 -19652840.519 7
  21388962.604    21388963.215    34012692.331 9 -42475479.397 9
  23361835.347    23361837.014    76758434.652 8 -97554571.359 9
  25003471.526    25003472.857   -14716358.589 9   8408294.988 8
 86  6 12  3 52 47.0800000  0  4G12G13G 9G 7
  20938544.714    20938547.821     6628090.531 9 -19649334.792 7
  21390575.365    21390577.461    34021168.476 9 -42468874.612 8
  23366447.209    23366448.877    76782672.197 8 -97535684.956 8
  25000727.718    25000728.629   -14730777.221 9   8397059.692 8
 86  6 12  3 52 53.0800000  0  4G12G13G 9G 7
  20939406.426    20939408.223     6632615.545 9 -19645808.815 8
  21392188.750    21392190.657    34029649.504 9 -42462266.015 9
  23371059.926    23371062.590    76806916.505 9 -97516793.284 9
  24997988.795    24997990.324   -14745167.703 9   8385846.333 9
 86  6 12  3 52 59.0800000  0  4G12G13G 9G 7
  20940272.366    20940274.008     6637166.565 9 -19642262.560 8
  21393803.816    21393804.276    34038135.473 9 -42455653.567 8
  23375675.689    23375677.857    76831167.574 9 -97497896.361 9
  24995254.542    24995255.597   -14759534.521 9   8374651.402 9
 86  6 12  3 53  5.0800000  0  4G12G13G 9G 7
  20941143.679    20941145.915     6641743.502 9 -19638696.116 9
  21395419.610    21395420.754    34046626.292 9 -42449037.346 8
  23380291.601    23380293.936    76855425.476 8 -97478994.106 9
  24992524.887    24992526.343   -14773882.046 9   8363471.517 9
 86  6 12  3 53 11.0800000  0  4G12G13G 9G 7
  20942019.890    20942021.595     6646346.376 8 -19635109.467 8
  21397036.564    21397036.778    34055122.012 9 -42442417.304 8
  23384908.386    23384912.133    76879690.066 8 -97460086.644 7
  24989797.204    24989798.449   -14788212.986 9   8352304.555 9
 86  6 12  3 53 17.0800000  0  4G12G13G 9G 7
  20942900.223    20942901.551     6650975.229 9 -19631502.575 8
  21398654.029    21398655.801    34063622.613 9 -42435793.458 9
  23389528.275    23389529.279    76903961.406 8 -97441173.899 8
  24987073.690    24987074.396   -14802529.533 9   8341148.807 9
 86  6 12  3 53 23.0800000  0  4G12G13G 9G 7
  20943786.270    20943787.731     6655630.038 8 -19627875.444 8
  21400272.814    21400273.827    34072128.032 9 -42429165.868 9
  23394147.068    23394150.090    76928239.362 8 -97422256.012 9
  24984351.501    24984353.466   -14816832.531 9   8330003.618 8
 86  6 12  3 53 29.0800000  0  4G12G13G 9G 7
  20944676.831    20944678.478     6660310.836 8 -19624228.077 9
  21401891.776    21401893.943    34080638.234 9 -42422534.533 9
  23398768.784    23398771.310    76952523.939 8 -97403332.980 9
  24981632.832    24981634.296   -14831119.579 9   8318870.842 9
 86  6 12  3 53 35.0800000  0  4G12G13G 9G 7
  20945572.825    20945574.615     6665017.526 8 -19620560.520 8
  21403512.453    21403513.714    34089153.279 9 -42415899.426 9
  23403390.973    23403393.236    76976815.149 9 -97384404.769 9
                  24978918.783                     8307755.343 9
 86  6 12  3 53 41.0800000  0  4G12G13G 9G 7
  20946473.365    20946475.566     6669750.142 8 -19616872.766 8
  21405134.021    21405134.522    34097673.095 9 -42409260.616 9
  23408015.342    23408017.643    77001112.845 8 -97365471.502 9
  24976209.850    24976210.428   -14881656.977 9   8296662.368 9
 86  6 12  3 53 47.0800000  0  4G12G13G 9G 7
  20947378.214    20947381.122     6674508.756 8 -19613164.764 7
  21406755.336    21406758.302    34106197.660 9 -42402618.099 8
  23412640.339    23412642.355    77025417.147 8 -97346533.084 9
  24973506.157    24973506.962   -14895861.781 9   8285593.687 9
 86  6 12  3 53 53.0800000  0  4G12G13G 9G 7
  20948289.029    20948291.328     6679293.326 9 -19609436.528 9
  21408379.139    21408378.788    34114727.066 9 -42395971.801 8
  23417266.211    23417267.868    77049727.951 8 -97327589.607 9
  24970808.719    24970810.092   -14910038.981 9   8274546.905 9
 86  6 12  3 53 59.0800000  0  4G12G13G 9G 7
  20949204.775    20949205.678     6684103.791 8 -19605688.112 8
  21410002.759    21410003.508    34123261.300 9 -42389321.748 8
  23421894.056    23421896.510    77074045.316 9 -97308641.009 9
  24968115.659    24968116.907   -14924192.120 9   8263518.494 9
 86  6 12  3 54  5.0800000  0  4G12G13G 9G 7
  20950124.400    20950126.275     6688940.150 9 -19601919.526 9
  21411627.471    21411629.292    34131800.313 9 -42382667.972 8
  23426521.854    23426524.275    77098369.129 8 -97289687.384 9
  24965425.495    24965427.058   -14938325.858 9   8252505.189 9
 86  6 12  3 54 11.0800000  0  4G12G13G 9G 7
  20951050.976    20951052.504     6693802.372 8 -19598130.784 8
  21413253.607    21413254.612    34140344.062 9 -42376010.507 9
  23431152.409    23431153.775    77122699.462 8 -97270728.696 9
  24962739.078    24962741.533   -14952442.933 9   8241504.872 9
 86  6 12  3 54 17.0800000  0  4G12G13G 9G 7
  20951981.094    20951982.510     6698690.552 9 -19594321.817 8
  21414880.765    21414880.967    34148892.489 9 -42369349.388 8
  23435783.679    23435784.621    77147036.187 9 -97251765.028 8
  24960055.664    24960058.097   -14966545.504 9   8230515.856 9
 86  6 12  3 54 23.0800000  0  4G12G13G 9G 7
  20952915.838    20952916.727     6703604.589 8 -19590492.693 8
  21416507.792    21416508.636    34157445.603 9 -42362684.630 9
  23440416.833    23440417.756    77171379.286 8 -97232796.376 9
  24957375.057    24957376.113   -14980634.181 9   8219537.668 9
 86  6 12  3 54 29.0800000  0  4G12G13G 9G 7
  20953855.148    20953856.903     6708544.480 9 -19586643.435 9
  21418137.526    21418138.052    34166003.475 9 -42356016.156 9
  23445048.809    23445051.664    77195728.904 9 -97213822.649 9
  24954697.227    24954698.257   -14994706.505 9   8208572.219 9
 86  6 12  3 54 35.0800000  0  4G12G13G 9G 7
  20954800.600    20954803.296     6713510.265 9 -19582773.990 8
  21419765.480    21419766.809    34174566.117 9 -42349343.961 8
  23449683.747    23449686.984    77220084.734 8 -97194844.075 9
                  24952024.948                     8197624.694 9
 86  6 12  3 54 41.0800000  0  4G12G13G 9G 7
  20955749.802    20955751.595     6718501.884 9 -19578884.411 8
  21421395.749    21421397.542    34183133.498 9 -42342668.088 9
  23454319.143    23454322.189    77244446.829 9 -97175860.635 8
  24949356.101    24949357.638   -15045025.328 9   8186700.036 8
 86  6 12  3 54 47.0800000  0  4G12G13G 9G 7
  20956705.332    20956707.420     6723519.465 9 -19574974.604 9
  21423027.472    21423029.593    34191705.573 9 -42335988.539 8
  23458956.524    23458958.721    77268815.307 8 -97156872.221 9
  24946693.676    24946694.600   -15059014.004 9   8175799.767 9
 86  6 12  3 54 53.0800000  0  4G12G13G 9G 7
  20957665.329    20957666.456     6728562.928 9 -19571044.655 9
  21424660.010    21424660.903    34200282.386 9 -42329305.308 8
  23463595.354    23463597.217    77293190.061 8 -97137878.901 8
  24944037.346    24944038.031   -15072974.064 9   8164921.414 9
 86  6 12  3 54 59.0800000  0  4G12G13G 9G 7
  20958629.349    20958631.783     6733632.248 8 -19567094.522 8
  21426293.616    21426294.265    34208863.901 9 -42322618.412 9
  23468235.344    23468237.344    77317571.055 8 -97118880.726 8
  24941384.691    24941386.308   -15086911.116 9   8154061.374 9
 86  6 12  3 55  5.0800000  0  4G12G13G 9G 7
  20959599.211    20959601.467     6738727.462 9 -19563124.230 8
  21427926.376    21427927.940    34217450.154 9 -42315927.826 9
  23472876.167    23472878.559    77341958.262 9 -97099877.705 7
  24938736.493    24938738.112   -15100828.674 9   8143216.522 9
 86  6 12  3 55 11.0800000  0  4G12G13G 9G 7
  20960573.398    20960574.654     6743848.514 9 -19559133.800 9
  21429561.294    21429561.908    34226041.046 9 -42309233.622 8
  23477517.774    23477519.565    77366351.755 9 -97080869.788 8
  24936091.190    24936091.942   -15114729.454 9   8132384.742 9
 86  6 12  3 55 17.0800000  0  4G12G13G 9G 7
  20961553.525    20961555.363     6748995.318 8 -19555123.305 9
  21431196.876    21431198.682    34234636.529 9 -42302535.847 9
  23482161.102    23482162.593    77390751.266 9 -97061857.189 8
  24933448.842    24933449.864   -15128615.466 9   8121564.476 9
 86  6 12  3 55 23.0800000  0  4G12G13G 9G 7
  20962537.027    20962539.888     6754167.985 9 -19551092.654 8
  21432833.832    21432833.994    34243236.670 9 -42295834.437 9
  23486805.522    23486807.003    77415157.036 9 -97042839.708 9
  24930809.450    24930810.528   -15142487.341 9   8110755.230 9
 86  6 12  3 55 29.0800000  0  4G12G13G 9G 7
  20963526.742    20963528.370     6759366.497 8 -19547041.869 8
  21434470.487    21434472.139    34251841.433 9 -42289129.428 8
  23491450.095    23491452.625    77439568.744 8 -97023817.605 9
  24928172.360    24928174.804   -15156342.344 9   8099959.119 9
 86  6 12  3 55 35.0800000  0  4G12G13G 9G 7
  20964520.721    20964522.518     6764590.814 9 -19542970.972 8
  21436108.806    21436110.392    34260450.846 9 -42282420.784 8
  23496097.659    23496099.116    77463986.570 9 -97004790.721 8
                  24925541.612                     8089181.491 8
 86  6 12  3 55 41.0800000  0  4G12G13G 9G 7
  20965519.247    20965522.042     6769840.970 9 -19538879.938 9
  21437749.093    21437749.943    34269064.898 9 -42275708.541 9
  23500745.671    23500747.047    77488410.489 9 -96985759.094 8
  24922914.370    24922917.028   -15206295.522 9   8078427.179 9
 86  6 12  3 55 47.0800000  0  4G12G13G 9G 7
  20966523.895    20966526.530     6775117.001 8 -19534768.753 8
  21439388.045    21439390.514    34277683.439 9 -42268992.793 8
  23505394.531    23505396.037    77512840.403 8 -96966722.799 8
  24920294.016    24920294.724   -15220065.451 9   8067697.365 9
 86  6 12  3 55 53.0800000  0  4G12G13G 9G 7
  20967532.195    20967535.237     6780418.768 9 -19530637.498 8
  21441029.008    21441031.127    34286306.609 9 -42262273.443 9
  23510043.526    23510045.217    77537276.393 9 -96947681.768 9
  24917679.048    24917679.731   -15233807.833 9   8056989.399 9
 86  6 12  3 55 59.0800000  0  4G12G13G 9G 7
  20968546.848    20968549.067     6785746.302 9 -19526486.184 8
  21442671.611    21442672.332    34294934.387 9 -42255550.489 9
  23514694.925    23514695.962    77561718.317 9 -96928636.104 9
  24915068.479    24915068.751   -15247526.286 9   8046299.711 9
 86  6 12  3 56  5.0800000  0  4G12G13G 9G 7
  20969564.594    20969567.591     6791099.547 9 -19522314.818 8
  21444313.681    21444315.685    34303566.741 9 -42248823.971 8
  23519347.420    23519348.892    77586166.241 8 -96909585.780 8
  24912461.606    24912462.824   -15261225.236 9   8035625.191 8
 86  6 12  3 56 11.0800000  0  4G12G13G 9G 7
  20970588.314    20970591.354     6796478.623 9 -19518123.341 7
  21445957.162    21445959.901    34312203.701 9 -42242093.880 8
  23524001.604    23524002.079    77610620.099 9 -96890530.827 8
  24909857.644    24909859.136   -15274907.388 9   8024963.785 9
 86  6 12  3 56 17.0800000  0  4G12G13G 9G 7
  20971617.207    20971620.414     6801883.399 8 -19513911.823 9
  21447601.788    21447603.563    34320845.127 9 -42235360.301 8
  23528655.435    23528655.705    77635079.724 9 -96871471.369 9
  24907257.157    24907259.018   -15288574.810 9   8014313.854 9
 86  6 12  3 56 23.0800000  0  4G12G13G 9G 7
  20972651.218    20972652.317     6807313.929 9 -19509680.237 8
  21449246.788    21449248.840    34329491.076 9 -42228623.203 8
  23533310.974    23533312.823    77659545.279 9 -96852407.303 9
  24904659.290    24904660.160   -15302227.618 9   8003675.295 9
 86  6 12  3 56 29.0800000  0  4G12G13G 9G 7
  20973689.226    20973690.780     6812770.185 9 -19505428.615 8
  21450893.495    21450895.056    34338141.593 9 -42221882.530 8
  23537967.739    23537969.176    77684016.699 9 -96833338.658 9
  24902063.708    24902065.696   -15315862.978 9   7993050.337 9
 86  6 12  3 56 35.0800000  0  4G12G13G 9G 7
  20974732.994    20974735.092     6818252.168 8 -19501156.924 9
  21452540.848    21452541.580    34346796.629 9 -42215138.353 9
  23542624.746    23542627.143    77708493.953 9 -96814265.485 8
                  24899476.000                     7982444.291 8
 86  6 12  3 56 41.0800000  0  4G12G13G 9G 7
  20975780.362    20975782.205     6823759.890 9 -19496865.210 9
  21454188.741    21454189.114    34355456.124 9 -42208390.684 9
  23547284.024    23547286.521    77732976.921 9 -96795187.834 7
  24896889.087    24896891.773   -15365751.228 9   7971861.965 9
 86  6 12  3 56 47.0800000  0  4G12G13G 9G 7
  20976832.910    20976835.385     6829293.359 9 -19492553.417 8
  21455836.700    21455836.962    34364120.084 9 -42201639.544 9
  23551944.671    23551947.769    77757465.694 9 -96776105.676 8
  24894311.339    24894313.083   -15379300.370 9   7961304.202 9
 86  6 12  3 56 53.0800000  0  4G12G13G 9G 7
  20977890.830    20977893.221     6834852.580 9 -19488221.552 9
  21457485.077    21457486.864    34372788.593 9 -42194884.857 8
  23556606.181    23556607.252    77781960.128 8 -96757019.090 8
  24891738.289    24891740.211   -15392820.892 9   7950768.346 9
 86  6 12  3 56 59.0800000  0  4G12G13G 9G 7
  20978953.836    20978956.056     6840437.577 9 -19483869.614 8
  21459136.547    21459138.255    34381461.549 9 -42188126.716 9
  23561267.916    23561270.466    77806460.347 9 -96737928.014 8
  24889170.255    24889171.906   -15406318.554 9   7940250.688 9
 86  6 12  3 57  5.0800000  0  4G12G13G 9G 7
  20980021.490    20980023.824     6846048.263 8 -19479497.641 8
  21460788.253    21460789.543    34390138.973 9 -42181365.070 9
  23565931.310    23565932.152    77830966.171 9 -96718832.565 8
  24886604.633    24886606.440   -15419796.781 9   7929748.175 9
 86  6 12  3 57 11.0800000  0  4G12G13G 9G 7
  20981093.648    20981096.140     6851684.573 9 -19475105.710 8
  21462440.037    21462441.943    34398820.913 9 -42174599.935 8
  23570596.040    23570597.283    77855477.667 8 -96699732.699 8
  24884043.585    24884045.289   -15433258.000 9   7919258.916 8
 86  6 12  3 57 17.0800000  0  4G12G13G 9G 7
  20982170.893    20982173.780     6857346.550 9 -19470693.792 8
  21464093.403    21464095.277    34407507.312 9 -42167831.306 9
  23575261.610    23575262.204    77879994.908 9 -96680628.354 8
  24881485.135    24881486.231   -15446704.228 9   7908781.337 9
 86  6 12  3 57 23.0800000  0  4G12G13G 9G 7
  20983253.436    20983256.419     6863034.209 9 -19466261.848 8
  21465747.145    21465748.793    34416198.121 9 -42161059.242 9
  23579928.099    23579929.843    77904517.691 8 -96661519.682 8
  24878928.331    24878930.200   -15460135.840 9   7898315.149 9
 86  6 12  3 57 29.0800000  0  4G12G13G 9G 7
  20984340.715    20984343.849     6868747.577 9 -19461809.871 8
  21467401.189    21467402.534    34424893.412 9 -42154283.697 9
  23584595.286    23584595.708    77929045.959 9 -96642406.754 8
  24876376.332    24876377.686   -15473549.377 9   7887863.040 9
 86  6 12  3 57 35.0800000  0  4G12G13G 9G 7
  20985433.980    20985435.132     6874486.639 8 -19457337.880 9
  21469056.590    21469058.940    34433593.160 9 -42147504.672 9
  23589263.675    23589265.293    77953579.763 8 -96623289.498 8
                  24873829.731                     7877430.379 8
 86  6 12  3 57 41.0800000  0  4G12G13G 9G 7
  20986529.781    20986533.458     6880251.333 9 -19452845.903 9
  21470714.156    21470715.224    34442297.308 9 -42140722.216 8
  23593933.360    23593934.469    77978119.102 9 -96604167.936 7
  24871286.714    24871287.703   -15523214.214 9   7867021.750 9
 86  6 12  3 57 47.0800000  0  4G12G13G 9G 7
  20987630.971    20987634.221     6886041.626 9 -19448333.991 8
  21472370.496    21472372.431    34451005.751 9 -42133936.401 8
  23598603.809    23598606.058    78002663.980 9 -96585042.054 8
  24868751.068    24868752.004   -15536540.376 9   7856637.733 8
 86  6 12  3 57 53.0800000  0  4G12G13G 9G 7
  20988737.880    20988740.959     6891857.563 9 -19443802.103 9
  21474027.987    21474031.001    34459718.621 9 -42127147.156 9
  23603275.316    23603276.416    78027214.237 8 -96565911.985 8
  24866219.714    24866221.235   -15549838.889 9   7846275.645 9
 86  6 12  3 57 59.0800000  0  4G12G13G 9G 7
  20989850.277    20989852.971     6897699.192 8 -19439250.170 9
  21475687.124    21475688.241    34468435.828 9 -42120354.529 9
  23607948.684    23607949.932    78051770.024 9 -96546777.600 8
  24863693.790    24863695.634   -15563113.577 9   7835931.742 9
 86  6 12  3 58  5.0800000  0  4G12G13G 9G 7
  20990966.943    20990970.004     6903566.441 9 -19434678.285 8
  21477346.731    21477348.248    34477157.439 9 -42113558.466 8
  23612622.382    23612624.582    78076331.107 9 -96527639.096 7
  24861171.578    24861173.383   -15576368.666 9   7825603.093 8
 86  6 12  3 58 11.0800000  0  4G12G13G 9G 7
  20992088.127    20992090.791     6909459.345 9 -19430086.422 8
  21479007.445    21479008.636    34485883.440 9 -42106758.980 9
  23617296.798    23617299.224    78100897.590 9 -96508496.383 8
  24858652.817    24858653.785   -15589606.770 9   7815287.700 9
 86  6 12  3 58 17.0800000  0  4G12G13G 9G 7
  20993214.264    20993216.166     6915377.810 8 -19425474.627 8
  21480669.261    21480671.327    34494613.815 9 -42099956.083 9
  23621973.486    23621973.655    78125469.521 9 -96489349.430 8
  24856135.920    24856137.463   -15602829.731 9   7804984.093 9
 86  6 12  3 58 23.0800000  0  4G12G13G 9G 7
  20994346.232    20994348.006     6921321.845 9 -19420842.916 8
  21482330.550    21482332.112    34503348.547 9 -42093149.806 8
  23626650.174    23626651.378    78150046.741 8 -96470198.342 9
  24853622.265    24853624.099   -15616037.717 9   7794692.164 9
 86  6 12  3 58 29.0800000  0  4G12G13G 9G 7
  20995481.350    20995483.288     6927291.449 8 -19416191.276 8
  21483993.282    21483994.953    34512087.667 9 -42086340.088 8
  23631328.140    23631328.681    78174629.315 9 -96451043.094 9
  24851112.293    24851114.655   -15629227.177 9   7784414.657 9
 86  6 12  3 58 35.0800000  0  4G12G13G 9G 7
  20996621.692    20996624.959     6933286.678 9 -19411519.672 9
  21485657.813    21485659.456    34520831.109 9 -42079527.019 8
  23636007.231    23636009.390    78199217.091 9 -96431883.776 7
                  24848609.472                     7774157.119 9
 86  6 12  3 58 41.0800000  0  4G12G13G 9G 7
  20997767.689    20997769.485     6939307.515 9 -19406828.109 9
  21487322.191    21487323.131    34529578.939 9 -42072710.520 8
  23640687.124    23640689.029    78223810.260 9 -96412720.274 8
  24846108.892    24846110.607   -15678514.028 9   7763924.018 9
 86  6 12  3 58 47.0800000  0  4G12G13G 9G 7
  20998919.017    20998921.036     6945353.866 9 -19402116.664 8
  21488987.644    21488988.631    34538331.068 9 -42065890.671 8
  23645368.285    23645369.891    78248408.626 8 -96393552.703 8
  24843615.687    24843617.310   -15691614.787 9   7753715.635 9
 86  6 12  3 58 53.0800000  0  4G12G13G 9G 7
  21000073.642    21000076.491     6951425.711 8 -19397385.354 8
  21490654.738    21490655.625    34547087.500 9 -42059067.471 8
  23650049.891    23650051.715    78273012.154 9 -96374381.132 9
  24841128.577    24841129.926   -15704687.134 9   7743528.992 9
 86  6 12  3 58 59.0800000  0  4G12G13G 9G 7
  21001234.031    21001237.397     6957523.155 8 -19392634.105 8
  21492321.389    21492322.215    34555848.246 9 -42052240.924 9
  23654733.056    23654733.779    78297620.914 9 -96355205.480 8
  24838645.204    24838646.051   -15717736.620 9   7733360.574 8
 86  6 12  3 59  5.0800000  0  4G12G13G 9G 7
  21002400.477    21002401.314     6963646.098 9 -19387862.986 8
  21493989.112    21493990.642    34564613.241 9 -42045411.050 9
  23659416.359    23659417.616    78322234.702 8 -96336025.907 8
  24836165.634    24836165.878   -15730766.553 9   7723207.379 9
 86  6 12  3 59 11.0800000  0  4G12G13G 9G 7
  21003569.936    21003571.814     6969794.565 8 -19383071.959 8
  21495657.834    21495658.322    34573382.471 9 -42038577.877 9
  23664101.026    23664104.296    78346853.633 9 -96316842.320 8
  24833689.248    24833691.591   -15743779.335 9   7713067.554 9
 86  6 12  3 59 17.0800000  0  4G12G13G 9G 7
  21004744.218    21004746.494     6975968.613 8 -19378261.027 8
  21497327.556    21497328.833    34582155.943 9 -42031741.411 8
  23668787.845    23668788.582    78371477.714 7 -96297654.725 8
  24831216.579    24831217.591   -15756776.778 9   7702939.684 9
 86  6 12  3 59 23.0800000  0  4G12G13G 9G 7
  21005924.423    21005926.531     6982168.136 9 -19373430.230 9
  21498998.817    21498999.858    34590933.625 9 -42024901.650 8
  23673472.894    23673475.510    78396106.858 8 -96278463.187 9
  24828745.251    24828747.009   -15769758.890 9   7692823.759 9
 86  6 12  3 59 29.0800000  0  4G12G13G 9G 7
  21007108.740    21007111.237     6988393.155 9 -19368579.570 9
  21500669.398    21500670.540    34599715.528 9 -42018058.604 8
  23678160.385    23678163.011    78420741.027 9 -96259267.733 8
  24826278.600    24826279.429   -15782721.942 9   7682722.680 9
 86  6 12  3 59 35.0800000  0  4G12G13G 9G 7
  21008297.438    21008299.980     6994643.598 9 -19363709.082 8
  21502341.268    21502342.713    34608501.677 9 -42011212.257 8
  23682849.741    23682851.618    78445380.165 7 -96240068.406 9
                  24823818.338                     7672642.101 8
 86  6 12  3 59 41.0800000  0  4G12G13G 9G 7
  21009492.776    21009494.898     7000919.537 9 -19358818.750 9
  21504013.929    21504014.236    34617292.022 9 -42004362.640 8
  23687539.984    23687541.350    78470024.291 8 -96220865.201 8
  24821360.986    24821362.461   -15831935.136 9   7662586.309 9
 86  6 12  3 59 47.0800000  0  4G12G13G 9G 7
  21010691.898    21010695.062     7007220.960 9 -19353908.548 9
  21505687.231    21505689.087    34626086.626 9 -41997509.690 9
  23692230.881    23692232.085    78494673.546 8 -96201657.986 8
  24818910.504    24818913.844   -15844808.342 9   7652555.251 9
 86  6 12  3 59 53.0800000  0  4G12G13G 9G 7
  21011894.882    21011898.139     7013547.942 9 -19348978.441 9
  21507361.791    21507363.093    34634885.487 9 -41990653.439 9
  23696920.332    23696922.800    78519327.628 8 -96182447.020 8
  24816466.755    24816468.795   -15857654.034 9   7642546.005 9
 86  6 12  3 59 59.0800000  0  4G12G13G 9G 7
  21013104.404    21013106.929     7019900.323 8 -19344028.527 9
  21509036.581    21509038.328    34643688.446 9 -41983793.981 8
  23701614.348    23701615.815    78543986.655 7 -96163232.188 9
  24814027.504    24814028.112   -15870476.006 9   7632554.870 9
 86  6 12  4  0  5.0800000  0  4G12G13G 9G 7
  21014318.070    21014320.237     7026278.089 9 -19339058.840 8
  21510712.859    21510713.678    34652495.612 9 -41976931.256 9
  23706308.073    23706309.659    78568650.546 7 -96144013.569 9
  24811591.315    24811592.721   -15883278.348 9   7622579.017 9
 86  6 12  4  0 11.0800000  0  4G12G13G 9G 7
  21015538.012    21015539.495     7032681.207 8 -19334069.388 8
  21512390.041    21512391.372    34661306.971 9 -41970065.269 8
  23711002.089    23711004.238    78593319.191 8 -96124791.259 8
  24809158.073    24809160.056   -15896063.554 9   7612616.523 8
 86  6 12  4  0 17.0800000  0  4G12G13G 9G 7
  21016759.294    21016762.702     7039109.847 9 -19329060.074 8
  21514067.220    21514068.434    34670122.530 9 -41963195.995 8
  23715697.322    23715699.266    78617992.753 8 -96105565.099 8
  24806727.832    24806729.296   -15908833.360 9   7602666.041 8
 86  6 12  4  0 23.0800000  0  4G12G13G 9G 7
  21017987.459    21017990.168     7045563.846 9 -19324030.984 8
  21515745.604    21515746.730    34678942.241 9 -41956323.481 9
  23720392.969    23720395.084    78642671.019 8 -96086335.284 8
  24804300.678    24804302.032   -15921587.493 9   7592727.756 8
 86  6 12  4  0 29.0800000  0  4G12G13G 9G 7
  21019222.114    21019223.606     7052043.266 9 -19318982.083 8
  21517424.418    21517426.004    34687766.114 9 -41949447.733 8
  23725091.530    23725092.105    78667354.099 9 -96067101.721 8
  24801877.380    24801878.709   -15934322.036 9   7582804.743 9
 86  6 12  4  0 35.0800000  0  4G12G13G 9G 7
  21020459.432    21020461.030     7058548.092 9 -19313913.390 9
  21519105.312    21519105.961    34696594.166 9 -41942568.725 8
  23729788.589    23729789.356    78692041.899 8 -96047864.471 9
                  24799460.345                     7572902.727 9
 86  6 12  4  0 41.0800000  0  4G12G13G 9G 7
  21021701.548    21021703.380     7065078.344 9 -19308824.878 8
  21520785.143    21520786.004    34705426.332 9 -41935686.518 8
  23734486.945    23734489.543    78716734.476 8 -96028623.512 8
  24797047.537    24797047.911   -15983309.229 9   7563025.639 8
 86  6 12  4  0 47.0800000  0  4G12G13G 9G 7
  21022949.735    21022950.865     7071633.976 9 -19303716.599 8
  21522466.546    21522468.273    34714262.617 9 -41928801.104 8
  23739186.810    23739188.291    78741431.808 8 -96009378.835 8
  24794642.014    24794643.035   -15995953.001 9   7553173.360 9
 86  6 12  4  0 53.0800000  0  4G12G13G 9G 7
  21024201.377    21024203.169     7078214.982 9 -19298588.546 8
  21524148.990    21524150.839    34723103.030 9 -41921912.461 8
  23743887.776    23743889.834    78766133.762 8 -95990130.572 9
  24792241.774    24792242.446   -16008568.812 9   7543342.852 9
 86  6 12  4  0 59.0800000  0  4G12G13G 9G 7
  21025458.993    21025460.862     7084821.328 9 -19293440.750 8
  21525832.427    21525832.710    34731947.563 9 -41915020.611 9
  23748588.879    23748590.575    78790840.394 8 -95970878.653 9
  24789844.432    24789844.696   -16021161.397 9   7533530.457 9
 86  6 12  4  1  5.0800000  0  4G12G13G 9G 7
  21026720.806    21026721.638     7091453.013 9 -19288273.195 8
  21527515.417    21527517.593    34740796.213 9 -41908125.565 9
  23753290.617    23753293.176    78815551.499 8 -95951623.254 9
  24787451.617    24787452.508   -16033734.268 9   7523733.421 9
 86  6 12  4  1 11.0800000  0  4G12G13G 9G 7
  21027988.012    21027988.382     7098110.004 9 -19283085.926 9
  21529200.047    21529202.158    34749648.943 9 -41901227.322 9
  23757994.397    23757996.007    78840267.268 8 -95932364.222 9
  24785062.595    24785064.063   -16046289.876 9   7513949.839 9
 86  6 12  4  1 17.0800000  0  4G12G13G 9G 7
  21029258.458    21029260.301     7104792.330 8 -19277878.917 8
  21530885.976    21530887.431    34758505.761 9 -41894325.901 8
  23762698.230    23762700.775    78864987.594 8 -95913101.615 8
  24782676.034    24782678.205   -16058829.844 9   7504178.441 9
 86  6 12  4  1 23.0800000  0  4G12G13G 9G 7
  21030534.885    21030537.509     7111500.020 9 -19272652.151 8
  21532571.841    21532573.142    34767366.680 9 -41887421.288 9
  23767403.454    23767405.474    78889712.542 9 -95893835.430 8
  24780292.196    24780295.158   -16071353.754 9   7494419.545 9
 86  6 12  4  1 29.0800000  0  4G12G13G 9G 7
  21031816.793    21031818.601     7118232.996 9 -19267405.673 8
  21534258.463    21534260.253    34776231.614 9 -41880513.544 8
  23772109.633    23772112.273    78914441.991 8 -95874565.740 8
                  24777915.069                     7484676.360 9
 86  6 12  4  1 35.0800000  0  4G12G13G 9G 7
  21033103.202    21033104.731     7124991.158 9 -19262139.574 9
  21535946.179    21535947.558    34785100.551 8 -41873602.685 8
  23776816.155    23776818.652    78939175.912 8 -95855292.549 9
  24775548.498    24775541.229   -16120011.406 9   7474954.416 9
 86  6 12  4  1 41.0800000  0  4G12G13G 9G 7
  21034393.898    21034395.582     7131774.690 8 -19256853.703 8
  21537634.763    21537637.475    34793973.551 9 -41866688.655 9
  23781524.166    23781525.223    78963914.248 8 -95836015.919 9
  24773171.439    24773173.115   -16132455.338 9   7465257.949 9
 86  6 12  4  1 47.0800000  0  4G12G13G 9G 7
  21035689.832    21035691.198     7138583.501 9 -19251548.139 8
  21539323.851    21539326.451    34802850.575 9 -41859771.490 9
  23786232.176    23786234.253    78988657.036 9 -95816735.834 8
  24770809.260    24770811.401   -16144867.386 9   7455586.228 9
 86  6 12  4  1 53.0800000  0  4G12G13G 9G 7
  21036990.153    21036990.897     7145417.510 9 -19246222.949 7
  21541014.308    21541015.224    34811731.605 9 -41852851.200 8
  23790941.546    23790944.095    79013404.186 9 -95797452.343 9
  24768453.182    24768454.125   -16157251.206 9   7445936.109 9
 86  6 12  4  1 59.0800000  0  4G12G13G 9G 7
  21038295.543    21038296.614     7152276.730 9 -19240878.108 7
  21542704.963    21542706.337    34820616.680 9 -41845927.757 9
  23795652.099    23795653.212    79038155.754 9 -95778165.406 9
  24766100.669    24766101.685   -16169612.369 9   7436304.046 9
 86  6 12  4  2  5.0800000  0  4G12G13G 9G 7
  21039605.514    21039607.262     7159161.179 8 -19235513.593 8
  21544395.883    21544397.968    34829505.781 9 -41839001.189 9
  23800363.095    23800364.095    79062911.672 8 -95758875.077 8
  24763752.445    24763752.653   -16181953.750 9   7426687.389 9
 86  6 12  4  2 11.0800000  0  4G12G13G 9G 7
  21040920.364    21040922.403     7166070.915 9 -19230129.383 8
  21546088.999    21546090.319    34838398.911 9 -41832071.476 8
  23805074.626    23805076.302    79087671.885 9 -95739581.405 9
  24761406.874    24761408.635   -16194277.617 9   7417084.374 9
 86  6 12  4  2 17.0800000  0  4G12G13G 9G 7
  21042239.131    21042241.319     7173005.856 9 -19224725.529 8
  21547782.164    21547783.783    34847296.016 9 -41825138.660 9
  23809787.549    23809788.930    79112436.332 9 -95720284.432 9
  24759065.093    24759066.209   -16206585.843 9   7407493.562 9
 86  6 12  4  2 23.0800000  0  4G12G13G 9G 7
  21043564.672    21043566.606     7179966.006 9 -19219302.040 8
  21549475.628    21549477.243    34856197.165 9 -41818202.697 8
  23814500.262    23814501.700    79137205.149 8 -95700984.052 9
  24756725.299    24756726.921   -16218877.712 9   7397915.484 9
 86  6 12  4  2 29.0800000  0  4G12G13G 9G 7
  21044894.053    21044894.792     7186951.329 9 -19213858.936 8
  21551170.840    21551171.424    34865102.260 9 -41811263.669 8
  23819214.802    23819215.444    79161978.238 8 -95681680.345 8
                  24754392.546                     7388353.557 8
 86  6 12  4  2 35.0800000  0  4G12G13G 9G 7
  21046227.146    21046229.015     7193961.806 9 -19208396.214 8
  21552866.002    21552867.434    34874011.289 9 -41804321.568 9
  23823929.262    23823931.429    79186755.480 8 -95662373.408 9
  24752033.169    24752062.517   -16267460.486 9   7378813.382 9
 86  6 12  4  2 41.0800000  0  4G12G13G 9G 7
  21047566.543    21047567.489     7200997.507 9 -19202913.859 9
  21554561.815    21554563.591    34882924.266 9 -41797376.374 9
  23828645.237    23828646.471    79211536.914 9 -95643063.199 9
  24749737.128    24749738.337   -16279670.751 9   7369298.971 8
 86  6 12  4  2 47.0800000  0  4G12G13G 9G 7
  21048909.761    21048912.210     7208058.398 8 -19197411.867 9
  21556258.740    21556259.315    34891841.214 9 -41790428.106 8
  23833361.733    23833363.200    79236322.570 8 -95623749.699 8
  24747420.458    24747420.776   -16291849.665 9   7359809.307 9
 86  6 12  4  2 53.0800000  0  4G12G13G 9G 7
  21050258.210    21050260.534     7215144.416 9 -19191890.307 8
  21557956.330    21557957.361    34900762.097 9 -41783476.763 9
  23838079.469    23838080.559    79261112.249 8 -95604433.067 9
  24745107.888    24745108.800   -16304000.385 9   7350341.213 9
 86  6 12  4  2 59.0800000  0  4G12G13G 9G 7
  21051611.039    21051613.111     7222255.534 9 -19186349.160 8
  21559654.248    21559655.833    34909686.977 9 -41776522.310 9
  23842796.852    23842798.805    79285906.119 8 -95585113.166 9
  24742800.252    24742800.935   -16316127.961 9   7340891.158 9
 86  6 12  4  3  5.0800000  0  4G12G13G 9G 7
  21052969.766    21052971.241     7229391.894 9 -19180788.367 8
  21561354.290    21561355.019    34918615.824 9 -41769564.769 9
  23847515.623    23847517.462    79310704.054 8 -95565790.101 8
  24740496.092    24740496.054   -16328235.607 9   7331456.638 9
 86  6 12  4  3 11.0800000  0  4G12G13G 9G 7
  21054332.099    21054334.464     7236553.411 9 -19175207.971 8
  21563054.088    21563054.579    34927548.592 9 -41762604.158 9
  23852236.764    23852237.149    79335506.151 8 -95546463.794 8
  24738194.888    24738195.619   -16340325.804 9   7322035.713 9
 86  6 12  4  3 17.0800000  0  4G12G13G 9G 7
  21055699.796    21055701.777     7243739.974 9 -19169608.053 8
  21564753.551    21564755.169    34936485.203 9 -41755640.568 9
  23856956.966    23856958.047    79360312.250 9 -95527134.360 8
  24735897.870    24735898.369   -16352400.159 9   7312627.116 9
 86  6 12  4  3 23.0800000  0  4G12G13G 9G 7
  21057072.009    21057075.213     7250951.657 9 -19163988.553 8
  21566455.583    21566456.817    34945425.682 9 -41748673.951 9
  23861677.059    23861679.975    79385122.334 9 -95507801.843 8
  24733602.830    24733604.319   -16364457.988 9   7303231.418 8
 86  6 12  4  3 29.0800000  0  4G12G13G 9G 7
  21058450.106    21058451.724     7258188.401 9 -19158349.539 8
  21568157.051    21568158.926    34954370.134 9 -41741704.252 9
  23866399.717    23866400.673    79409936.373 9 -95488466.212 9
                  24731313.889                     7293852.497 8
 86  6 12  4  3 35.0800000  0  4G12G13G 9G 7
  21059831.573    21059833.320     7265450.182 9 -19152691.009 9
  21569860.431    21569861.087    34963318.455 9 -41734731.524 8
  23871122.280    23871124.347    79434754.354 9 -95469127.534 8
  24729028.317    24729028.217   -16412644.815 9   7284495.763 9
 86  6 12  4  3 41.0800000  0  4G12G13G 9G 7
  21061218.300    21061220.327     7272737.129 9 -19147012.865 8
  21571563.870    21571564.709    34972270.702 9 -41727755.755 8
  23875846.174    23875846.896    79459576.324 9 -95449785.725 9
  24726748.973    24726749.343   -16424619.518 9   7275165.049 9
 86  6 12  4  3 47.0800000  0  4G12G13G 9G 7
  21062608.589    21062611.347     7280049.228 9 -19141315.126 7
  21573268.018    21573269.422    34981226.853 9 -41720776.932 8
  23880570.052    23880571.400    79484402.243 9 -95430440.853 9
  24724476.448    24724478.061   -16436562.143 9   7265859.114 9
 86  6 12  4  3 53.0800000  0  4G12G13G 9G 7
  21064005.567    21064006.177     7287386.318 9 -19135597.916 9
  21574972.953    21574973.676    34990186.802 9 -41713795.142 9
  23885294.032    23885295.942    79509231.997 9 -95411093.002 8
  24722209.070    24722209.839   -16448477.001 9   7256574.817 8
 86  6 12  4  3 59.0800000  0  4G12G13G 9G 7
  21065407.024    21065408.396     7294748.451 9 -19129861.192 8
  21576679.375    21576681.214    34999150.548 9 -41706810.408 8
  23890020.601    23890021.276    79534065.591 9 -95391742.149 9
  24719946.100    24719947.298   -16460368.797 9   7247308.489 8
 86  6 12  4  4  5.0800000  0  4G12G13G 9G 7
  21066812.114    21066814.308     7302135.640 8 -19124104.934 9
  21578384.787    21578386.817    35008118.084 9 -41699822.711 9
  23894747.266    23894747.784    79558903.125 9 -95372388.221 8
  24717687.504    24717688.375   -16472240.743 9   7238057.621 9
 86  6 12  4  4 11.0800000  0  4G12G13G 9G 7
  21068222.719    21068223.885     7309547.761 9 -19118329.266 8
  21580091.845    21580093.965    35017089.475 9 -41692832.010 8
  23899474.103    23899474.730    79583744.357 9 -95353031.410 9
  24715431.313    24715433.097   -16484095.115 9   7228820.456 9
 86  6 12  4  4 17.0800000  0  4G12G13G 9G 7
  21069637.908    21069639.939     7316984.903 9 -19112534.092 8
  21581800.415    21581800.424    35026064.647 9 -41685838.368 9
  23904202.456    23904202.611    79608589.357 9 -95333671.670 8
  24713178.710    24713180.035   -16495933.410 9   7219595.821 9
 86  6 12  4  4 23.0800000  0  4G12G13G 9G 7
  21071057.320    21071060.919     7324447.085 9 -19106719.402 8
  21583508.338    21583510.817    35035043.657 9 -41678841.733 9
  23908930.699    23908932.076    79633438.095 9 -95314309.009 9
  24710928.921    24710930.303   -16507754.782 9   7210384.360 8
 86  6 12  4  4 29.0800000  0  4G12G13G 9G 7
  21072482.755    21072484.364     7331934.287 9 -19100885.214 9
  21585218.183    21585219.284    35044026.502 9 -41671842.104 9
  23913661.205    23913661.245    79658290.515 9 -95294943.485 9
                  24708686.002                     7201190.002 9
 86  6 12  4  4 35.0800000  0  4G12G13G 9G 7
  21073911.923    21073915.021     7339446.524 8 -19095031.535 9
  21586927.746    21586930.748    35053013.197 9 -41664839.490 8
  23918390.254    23918391.273    79683146.694 9 -95275575.044 9
  24706442.511    24706445.258   -16555863.066 9   7192018.328 9
 86  6 12  4  4 41.0800000  0  4G12G13G 9G 7
  21075346.700    21075348.344     7346983.586 9 -19089158.493 8
  21588639.167    21588640.696    35062003.681 9 -41657833.911 9
  23923120.950    23923121.357    79708006.461 9 -95256203.787 8
  24704210.837    24704211.066   -16567600.004 9   7182872.650 8
 86  6 12  4  4 47.0800000  0  4G12G13G 9G 7
  21076784.894    21076787.963     7354545.562 9 -19083266.042 8
  21590350.732    21590352.163    35070997.867 9 -41650825.448 9
  23927852.227    23927852.625    79732869.785 9 -95236829.771 8
  24701983.051    24701984.363   -16579304.543 9   7173751.847 9
 86  6 12  4  4 53.0800000  0  4G12G13G 9G 7
  21078228.905    21078231.859     7362132.463 9 -19077354.179 9
  21592062.712    21592065.228    35079995.840 9 -41643814.030 9
  23932584.033    23932586.535    79757736.870 9 -95217452.821 8
  24699760.744    24699762.217   -16590981.853 9   7164652.647 9
 86  6 12  4  4 59.0800000  0  4G12G13G 9G 7
  21079677.606    21079679.787     7369744.251 9 -19071422.908 8
  21593776.474    21593777.892    35088997.583 9 -41636799.692 8
  23937316.212    23937317.860    79782607.545 8 -95198073.074 9
  24697543.472    24697544.043   -16602635.949 9   7155571.537 9
 86  6 12  4  5  5.0800000  0  4G12G13G 9G 7
  21081130.551    21081133.449     7377380.980 8 -19065472.215 8
  21595489.719    21595490.881    35098003.025 9 -41629782.457 9
  23942050.313    23942051.188    79807481.701 9 -95178690.605 8
  24695329.689    24695330.034   -16614270.171 9   7146505.917 9
 86  6 12  4  5 11.0800000  0  4G12G13G 9G 7
  21082589.240    21082590.212     7385042.638 9 -19059502.097 8
  21597204.888    21597205.324    35107012.260 9 -41622762.277 9
  23946783.350    23946784.430    79832359.440 8 -95159305.367 8
  24693118.069    24693120.223   -16625886.783 9   7137454.019 9
 86  6 12  4  5 17.0800000  0  4G12G13G 9G 7
  21084051.403    21084054.012     7392729.154 9 -19053512.605 8
  21598919.252    21598920.338    35116025.194 9 -41615739.206 8
  23951518.471    23951519.791    79857240.725 9 -95139917.350 7
  24690910.725    24690911.834   -16637487.136 9   7128414.778 9
 86  6 12  4  5 23.0800000  0  4G12G13G 9G 7
  21085518.501    21085520.828     7400440.561 9 -19047503.710 8
  21600635.922    21600636.407    35125041.934 9 -41608713.168 8
  23956253.941    23956255.799    79882125.491 9 -95120526.624 8
  24688706.250    24688707.716   -16649070.180 9   7119389.047 9
 86  6 12  4  5 29.0800000  0  4G12G13G 9G 7
  21086990.879    21086993.721     7408176.804 8 -19041475.480 8
  21602351.671    21602352.798    35134062.313 9 -41601684.304 9
  23960990.694    23960991.340    79907013.710 9 -95101133.203 8
                  24686507.756                     7110380.986 9
 86  6 12  4  5 35.0800000  0  4G12G13G 9G 7
  21088467.926    21088470.497     7415937.910 8 -19035427.866 8
  21604069.623    21604070.465    35143086.447 8 -41594652.503 9
  23965726.750    23965727.759    79931905.235 9 -95081737.208 8
  24684313.252    24684312.633   -16696946.349 9   7101395.933 8
 86  6 12  4  5 41.0800000  0  4G12G13G 9G 7
  21089949.758    21089952.686     7423723.808 8 -19029360.933 7
  21605786.804    21605788.486    35152114.310 9 -41587617.797 8
  23970464.152    23970465.705    79956800.353 9 -95062338.403 8
  24682125.160    24682125.561   -16708443.271 9   7092437.302 9
 86  6 12  4  5 47.0800000  0  4G12G13G 9G 7
  21091436.251    21091438.726     7431534.564 9 -19023274.629 8
  21607505.311    21607506.957    35161145.900 9 -41580580.206 8
  23975202.011    23975203.421    79981698.712 9 -95042937.095 7
  24679942.995    24679943.799   -16719908.394 9   7083503.432 9
 86  6 12  4  5 53.0800000  0  4G12G13G 9G 7
  21092926.416    21092929.201     7439370.094 9 -19017169.014 7
  21609224.611    21609225.301    35170181.251 9 -41573539.662 8
  23979941.597    23979942.520    80006600.431 9 -95023533.156 8
  24677765.443    24677766.318   -16731345.891 9   7074591.108 9
 86  6 12  4  5 59.0800000  0  4G12G13G 9G 7
  21094422.840    21094424.969     7447230.483 9 -19011044.035 7
  21610944.997    21610946.324    35179220.262 9 -41566496.279 8
  23984680.043    23984681.973    80031505.557 9 -95004126.562 8
  24675594.812    24675595.178   -16742760.306 9   7065696.762 8
 86  6 12  4  6  5.0800000  0  4G12G13G 9G 7
  21095923.926    21095925.128     7455115.683 8 -19004899.721 8
  21612664.946    21612667.173    35188262.972 9 -41559450.002 8
  23989419.916    23989420.491    80056413.906 9 -94984717.455 8
  24673425.850    24673428.108   -16754154.841 9   7056817.907 8
 86  6 12  4  6 11.0800000  0  4G12G13G 9G 7
  21097428.701    21097430.295     7463025.663 9 -18998736.108 8
  21614386.982    21614387.916    35197309.352 9 -41552400.884 8
  23994160.178    23994161.679    80081325.631 8 -94965305.723 8
  24671260.807    24671262.424   -16765531.601 9   7047952.914 9
 86  6 12  4  6 17.0800000  0  4G12G13G 9G 7
  21098938.335    21098940.504     7470960.446 9 -18992553.170 8
  21616108.951    21616110.115    35206359.392 9 -41545348.896 7
  23998902.107    23998903.259    80106240.644 9 -94945891.409 7
  24669099.350    24669100.867   -16776891.903 9   7039100.728 9
 86  6 12  4  6 23.0800000  0  4G12G13G 9G 7
  21100452.243    21100455.361     7478919.972 9 -18986350.933 8
  21617831.749    21617833.938    35215413.050 9 -41538294.093 9
  24003643.773    24003644.925    80131158.771 9 -94926474.687 9
  24666941.564    24666941.879   -16788234.448 9   7030262.385 9
 86  6 12  4  6 29.0800000  0  4G12G13G 9G 7
  21101972.961    21101974.297     7486904.265 9 -18980129.412 9
  21619555.652    21619557.278    35224470.315 9 -41531236.483 8
  24008386.431    24008387.592    80156080.220 9 -94907055.365 8
                  24664788.187                     7021442.068 8
 86  6 12  4  6 35.0800000  0  4G12G13G 9G 7
  21103496.326    21103499.599     7494913.294 9 -18973888.614 8
  21621280.636    21621281.386    35233531.162 9 -41524176.083 9
  24013128.325    24013129.735    80181004.715 8 -94887633.689 8
  24662637.443    24662641.130   -16835868.664 9   7012645.222 9
 86  6 12  4  6 41.0800000  0  4G12G13G 9G 7
  21105024.948    21105027.184     7502947.066 9 -18967628.530 9
  21623004.905    21623006.480    35242595.544 9 -41517112.913 9
  24017872.523    24017873.241    80205932.357 8 -94868209.545 8
  24660496.714    24660498.824   -16847124.040 9   7003874.789 8
 86  6 12  4  6 47.0800000  0  4G12G13G 9G 7
  21106558.600    21106560.328     7511005.537 9 -18961349.197 9
  21624730.937    21624731.857    35251663.586 9 -41510046.907 9
  24022616.111    24022617.178    80230863.094 9 -94848783.001 8
  24658361.325    24658362.204   -16858347.979 9   6995129.263 8
 86  6 12  4  6 53.0800000  0  4G12G13G 9G 7
  21108097.446    21108099.477     7519088.679 9 -18955050.650 9
  21626457.083    21626457.316    35260735.206 9 -41502978.108 8
  24027361.330    24027361.895    80255796.932 8 -94829354.045 8
  24656230.682    24656232.503   -16869543.939 9   6986405.135 8
 86  6 12  4  6 59.0800000  0  4G12G13G 9G 7
  21109639.701    21109641.313     7527196.550 9 -18948732.825 9
  21628183.562    21628184.638    35269810.432 9 -41495906.508 8
  24032106.635    24032108.226    80280733.852 9 -94809922.664 8
  24654104.418    24654105.275   -16880716.807 9   6977699.018 9
 86  6 12  4  7  5.0800000  0  4G12G13G 9G 7
  21111187.655    21111190.037     7535329.117 9 -18942395.763 8
  21629911.038    21629912.100    35278889.229 9 -41488832.116 8
  24036851.854    24036854.175    80305673.785 9 -94790488.959 8
  24651982.700    24651982.449   -16891869.567 9   6969008.551 9
 86  6 12  4  7 11.0800000  0  4G12G13G 9G 7
  21112740.305    21112741.487     7543486.333 8 -18936039.494 8
  21631639.474    21631641.480    35287971.632 9 -41481754.910 8
  24041598.423    24041600.620    80330616.817 8 -94771052.807 8
  24649863.443    24649864.502   -16903004.406 9   6960332.052 9
 86  6 12  4  7 17.0800000  0  4G12G13G 9G 7
  21114297.310    21114298.342     7551668.196 9 -18929664.003 8
  21633368.088    21633371.111    35297057.635 9 -41474674.904 8
  24046346.876    24046347.704    80355562.850 8 -94751614.347 8
  24647748.086    24647749.053   -16914122.728 9   6951668.425 9
 86  6 12  4  7 23.0800000  0  4G12G13G 9G 7
  21115857.355    21115860.595     7559874.667 8 -18923269.361 9
  21635098.147    21635099.611    35306147.268 9 -41467592.064 8
  24051093.478    24051094.893    80380511.824 9 -94732173.601 7
  24645634.639    24645636.501   -16925223.076 9   6943018.810 9
 86  6 12  4  7 29.0800000  0  4G12G13G 9G 7
  21117424.598    21117427.316     7568105.672 9 -18916855.592 8
  21636829.473    21636829.934    35315240.494 9 -41460506.440 8
  24055841.884    24055843.332    80405463.696 9 -94712730.577 7
                  24643527.280                     6934387.703 8
 86  6 12  4  7 35.0800000  0  4G12G13G 9G 7
  21118995.914    21118997.240     7576361.266 9 -18910422.663 8
  21638560.183    21638561.261    35324337.221 9 -41453418.076 9
  24060590.246    24060591.741    80430418.565 7 -94693285.231 8
  24641424.859    24641426.162   -16972451.458 9   6925780.604 8
 86  6 12  4  7 41.0800000  0  4G12G13G 9G 7
  21120571.657    21120572.846     7584641.484 8 -18903970.552 8
  21640292.141    21640293.065    35333437.554 9 -41446326.907 8
  24065340.583    24065340.399    80455376.259 8 -94673837.662 7
  24639330.139    24639331.744   -16983463.043 9   6917200.150 9
 86  6 12  4  7 47.0800000  0  4G12G13G 9G 7
  21122152.937    21122153.130     7592946.282 8 -18897499.274 8
  21642023.939    21642024.305    35342541.403 9 -41439232.992 8
  24070089.857    24070091.481    80480336.794 9 -94654387.896 8
  24637240.380    24637241.870   -16994442.766 9   6908644.531 9
 86  6 12  4  7 53.0800000  0  4G12G13G 9G 7
  21123737.719    21123738.979     7601275.606 9 -18891008.894 7
  21643756.980    21643758.893    35351648.707 9 -41432136.386 9
  24074840.966    24074841.235    80505300.223 8 -94634935.863 8
  24635156.601    24635157.146   -17005395.051 8   6900110.286 9
 86  6 12  4  7 59.0800000  0  4G12G13G 9G 7
  21125327.408    21125328.314     7609629.396 9 -18884499.456 8
  21645490.229    21645491.374    35360759.517 9 -41425037.044 8
  24079591.012    24079591.411    80530266.466 8 -94615481.642 9
  24633076.217    24633078.447   -17016324.256 9   6891594.016 8
 86  6 12  4  8  5.0800000  0  4G12G13G 9G 7
  21126921.394    21126922.978     7618007.701 9 -18877970.906 8
  21647225.502    21647226.649    35369873.844 9 -41417934.972 9
  24084341.821    24084342.549    80555235.427 8 -94596025.308 7
  24631000.828    24631001.419   -17027233.468 9   6883093.329 9
 86  6 12  4  8 11.0800000  0  4G12G13G 9G 7
  21128519.619    21128521.467     7626410.545 8 -18871423.240 8
  21648960.051    21648961.008    35378991.684 9 -41410830.158 8
  24089094.744    24089096.015    80580207.156 9 -94576566.808 7
  24628927.990    24628929.665   -17038124.817 9   6874606.578 9
 86  6 12  4  8 17.0800000  0  4G12G13G 9G 7
  21130123.284    21130125.909     7634837.785 9 -18864856.552 7
  21650695.622    21650697.709    35388112.999 9 -41403722.648 8
  24093846.468    24093847.134    80605181.587 8 -94557106.222 8
  24626858.578    24626860.375   -17048999.282 9   6866132.979 9
 86  6 12  4  8 23.0800000  0  4G12G13G 9G 7
  21131731.627    21131734.155     7643289.602 9 -18858270.747 8
  21652432.612    21652433.391    35397237.794 9 -41396612.415 8
  24098600.584    24098601.477    80630158.676 9 -94537643.542 8
  24624793.369    24624793.894   -17059855.355 9   6857673.703 8
 86  6 12  4  8 29.0800000  0  4G12G13G 9G 7
  21133344.701    21133346.586     7651765.984 8 -18851665.759 8
  21654169.665    21654170.498    35406366.086 9 -41389499.453 8
  24103354.173    24103354.304    80655138.478 8 -94518178.765 8
                  24622733.172                     6849233.323 8
 86  6 12  4  8 35.0800000  0  4G12G13G 9G 7
  21134962.603    21134964.141     7660266.830 8 -18845041.725 8
  21655906.873    21655908.548    35415497.816 9 -41382383.818 8
  24108106.752    24108107.475    80680120.913 8 -94498711.921 7
  24620676.444    24620677.951   -17107006.732 9   6840817.314 8
 86  6 12  4  8 41.0800000  0  4G12G13G 9G 7
  21136584.120    21136586.854     7668792.146 9 -18838398.622 8
  21657645.724    21657646.657    35424633.056 9 -41375265.445 8
  24112861.816    24112861.742    80705105.967 9 -94479243.047 8
  24618627.892    24618628.279   -17117772.871 9   6832428.108 9
 86  6 12  4  8 47.0800000  0  4G12G13G 9G 7
  21138211.541    21138213.792     7677341.928 8 -18831736.449 8
  21659385.037    21659385.194    35433771.786 9 -41368144.359 9
  24117616.412    24117617.898    80730093.681 8 -94459772.101 8
  24616585.262    24616586.998   -17128507.067 9   6824063.802 9
 86  6 12  4  8 53.0800000  0  4G12G13G 9G 7
  21139844.267    21139845.228     7685916.160 9 -18825055.238 8
  21661124.284    21661124.794    35442914.017 9 -41361020.539 8
  24122373.298    24122373.167    80755083.891 8 -94440299.216 8
  24614547.192    24614548.414   -17139213.977 9   6815720.766 9
 86  6 12  4  8 59.0800000  0  4G12G13G 9G 7
  21141479.534    21141481.491     7694514.704 9 -18818355.074 7
  21662864.729    21662866.451    35452059.668 9 -41353894.049 9
  24127128.619    24127129.295    80780076.708 8 -94420824.282 8
  24612514.452    24612516.067   -17149897.793 9   6807395.711 9
 86  6 12  4  9  5.0800000  0  4G12G13G 9G 7
  21143120.968    21143122.324     7703137.664 9 -18811635.886 8
  21664605.392    21664606.907    35461208.731 9 -41346764.917 8
  24131885.157    24131886.739    80805072.000 7 -94401347.436 8
  24610485.519    24610486.809   -17160561.450 9   6799086.380 9
 86  6 12  4  9 11.0800000  0  4G12G13G 9G 7
  21144765.495    21144767.163     7711785.053 9 -18804897.653 8
  21666348.029    21666348.248    35470361.179 9 -41339633.130 9
  24136642.377    24136642.465    80830069.864 8 -94381868.584 9
  24608459.301    24608460.568   -17171207.171 9   6790791.008 9
 86  6 12  4  9 17.0800000  0  4G12G13G 9G 7
  21146415.102    21146418.554     7720456.910 9 -18798140.370 8
  21668090.145    21668092.332    35479517.134 9 -41332498.626 9
  24141397.946    24141399.909    80855070.146 8 -94362387.829 7
  24606436.701    24606437.667   -17181835.824 9   6782508.947 9
 86  6 12  4  9 23.0800000  0  4G12G13G 9G 7
  21148071.359    21148072.964     7729153.112 9 -18791364.105 8
  21669832.507    21669833.650    35488676.516 9 -41325361.442 8
  24146154.317    24146158.393    80880072.854 7 -94342905.212 9
  24604418.188    24604418.493   -17192445.777 9   6774241.454 9
 86  6 12  4  9 29.0800000  0  4G12G13G 9G 7
  21149730.248    21149732.053     7737873.711 9 -18784568.842 7
  21671576.483    21671577.918    35497839.344 9 -41318221.573 8
  24150915.820    24150916.438    80905078.010 9 -94323420.672 9
                  24602405.036                     6765993.318 8
 86  6 12  4  9 35.0800000  0  4G12G13G 9G 7
  21151395.452    21151396.138     7746618.646 9 -18777754.597 8
  21673320.632    21673321.828    35507005.573 9 -41311079.056 8
  24155673.847    24155675.360    80930085.523 8 -94303934.305 7
  24600395.136    24600396.925   -17239181.730 9   6757769.943 9
 86  6 12  4  9 41.0800000  0  4G12G13G 9G 7
  21153063.467    21153064.819     7755387.903 9 -18770921.419 8
  21675065.009    21675066.549    35516175.197 9 -41303933.889 9
  24160433.870    24160435.580    80955095.362 8 -94284446.116 8
  24598394.702    24598394.592   -17249700.509 9   6749573.493 9
 86  6 12  4  9 47.0800000  0  4G12G13G 9G 7
  21154736.971    21154739.197     7764181.479 9 -18764069.287 8
  21676810.402    21676811.932    35525348.140 9 -41296786.139 9
  24165191.958    24165194.646    80980107.578 8 -94264956.078 8
  24596398.047    24596399.689   -17260186.965 9   6741401.837 9
 86  6 12  4  9 53.0800000  0  4G12G13G 9G 7
  21156415.625    21156417.580     7772999.399 9 -18757198.175 8
  21678556.733    21678557.145    35534524.497 9 -41289635.732 8
  24169952.330    24169954.484    81005122.127 7 -94245464.220 9
  24594407.785    24594409.071   -17270646.562 9   6733251.508 9
 86  6 12  4  9 59.0800000  0  4G12G13G 9G 7
  21158096.886    21158099.005     7781841.596 9 -18750308.155 8
  21680304.447    21680305.860    35543704.209 9 -41282482.714 9
  24174713.985    24174714.895    81030138.935 8 -94225970.604 8
  24592421.162    24592422.911   -17281083.213 9   6725119.050 9
 86  6 12  4 10  5.0800000  0  4G12G13G 9G 7
  21159784.593    21159786.968     7790708.002 9 -18743399.266 8
  21682051.227    21682051.985    35552887.263 9 -41275327.082 9
  24179473.204    24179475.802    81055157.998 8 -94206475.223 8
  24590439.380    24590440.525   -17291499.652 9   6717002.347 9
 86  6 12  4 10 11.0800000  0  4G12G13G 9G 7
  21161476.116    21161477.982     7799598.637 9 -18736471.500 9
  21683799.592    21683801.736    35562073.679 9 -41268168.829 8
  24184235.322    24184238.025    81080179.305 8 -94186978.097 8
  24588461.016    24588462.473   -17301898.060 9   6708899.696 8
 86  6 12  4 10 17.0800000  0  4G12G13G 9G 7
  21163172.691    21163174.288     7808513.538 9 -18729524.822 8
  21685548.706    21685549.720    35571263.450 9 -41261007.967 9
  24188998.142    24188999.227    81105202.872 8 -94167479.212 8
  24586485.260    24586486.805   -17312279.318 9   6700810.409 8
 86  6 12  4 10 23.0800000  0  4G12G13G 9G 7
  21164874.597    21164876.049     7817452.656 9 -18722559.282 7
  21687297.622    21687298.395    35580456.552 9 -41253844.511 9
  24193760.551    24193761.784    81130228.538 8 -94147978.696 8
  24584513.661    24584515.530   -17322641.240 9   6692736.188 9
 86  6 12  4 10 29.0800000  0  4G12G13G 9G 7
  21166579.928    21166582.065     7826415.954 9 -18715574.893 7
  21689047.392    21689048.407    35589652.888 9 -41246678.539 8
  24198522.097    24198523.864    81155256.410 8 -94128476.455 8
                  24582548.415                     6684681.765 8
 86  6 12  4 10 35.0800000  0  4G12G13G 9G 7
  21168289.476    21168291.009     7835403.483 9 -18708571.621 8
  21690797.719    21690799.444    35598852.606 9 -41239509.923 8
  24203285.856    24203287.071    81180286.375 8 -94108972.587 8
  24580586.481    24580587.918   -17369131.560 9   6676652.426 9
 86  6 12  4 10 41.0800000  0  4G12G13G 9G 7
  21170005.392    21170006.472     7844415.214 9 -18701549.486 9
  21692549.210    21692550.930    35608055.741 9 -41232338.646 9
  24208049.677    24208050.610    81205318.457 8 -94089467.071 9
  24578631.346    24578633.553   -17379401.294 9   6668650.046 8
 86  6 12  4 10 47.0800000  0  4G12G13G 9G 7
  21171723.978    21171726.828     7853451.167 9 -18694508.490 8
  21694301.512    21694303.428    35617262.185 9 -41225164.800 8
  24212813.856    24212814.455    81230352.722 9 -94069959.850 9
  24576683.239    24576684.247   -17389639.591 9   6660672.548 9
 86  6 12  4 10 53.0800000  0  4G12G13G 9G 7
  21173448.324    21173451.240     7862511.314 9 -18687448.637 8
  21696053.894    21696055.445    35626471.926 9 -41217988.366 8
  24217577.057    24217579.006    81255389.048 8 -94050451.017 9
  24574739.508    24574741.870   -17399850.123 9   6652716.289 9
 86  6 12  4 10 59.0800000  0  4G12G13G 9G 7
  21175177.369    21175178.949     7871595.621 9 -18680369.956 9
  21697808.102    21697807.087    35635684.976 9 -41210809.368 9
  24222342.123    24222343.547    81280427.285 8 -94030940.701 9
  24572801.965    24572803.015   -17410037.572 9   6644778.011 9
 86  6 12  4 11  5.0800000  0  4G12G13G 9G 7
  21176910.560    21176911.551     7880704.060 9 -18673272.478 7
  21699560.952    21699561.679    35644901.332 9 -41203627.785 9
  24227106.320    24227108.288    81305467.548 8 -94011428.801 9
  24570867.276    24570867.711   -17420204.793 9   6636855.505 9
 86  6 12  4 11 11.0800000  0  4G12G13G 9G 7
  21178647.264    21178650.502     7889836.648 8 -18666156.180 8
  21701315.331    21701316.444    35654120.997 9 -41196443.623 8
  24231871.949    24231872.982    81330509.890 8 -93991915.288 8
  24568935.882    24568937.027   -17430353.795 9   6628947.190 9
 86  6 12  4 11 17.0800000  0  4G12G13G 9G 7
  21180390.706    21180391.702     7898993.333 8 -18659021.090 8
  21703070.574    21703071.241    35663343.964 9 -41189256.904 9
  24236638.346    24236639.622    81355554.102 8 -93972400.314 8
  24567007.788    24567009.321   -17440485.439 9   6621052.407 9
 86  6 12  4 11 23.0800000  0  4G12G13G 9G 7
  21182137.677    21182139.403     7908174.143 9 -18651867.215 8
  21704826.235    21704826.980    35672570.153 9 -41182067.666 8
  24241403.717    24241404.783    81380600.288 8 -93952883.806 9
  24565083.508    24565084.042   -17450597.539 9   6613172.855 9
 86  6 12  4 11 29.0800000  0  4G12G13G 9G 7
  21183889.451    21183891.160     7917378.976 9 -18644694.616 8
  21706582.391    21706583.684    35681799.586 9 -41174875.895 8
  24246170.214    24246172.683    81405648.452 9 -93933365.763 9
                  24563165.710                     6605313.465 8
 86  6 12  4 11 35.0800000  0  4G12G13G 9G 7
  21185645.364    21185648.282     7926607.774 8 -18637503.353 8
  21708339.113    21708340.398    35691032.251 9 -41167681.606 8
  24250936.797    24250938.083    81430698.343 9 -93913846.358 9
  24561251.314    24561252.664   -17497011.915 9   6597479.454 8
 86  6 12  4 11 41.0800000  0  4G12G13G 9G 7
  21187406.276    21187408.141     7935860.586 9 -18630293.366 8
  21710096.760    21710098.368    35700268.191 9 -41160484.774 8
  24255704.634    24255706.211    81455750.421 8 -93894325.263 9
  24559343.989    24559345.729   -17507030.690 9   6589672.601 9
 86  6 12  4 11 47.0800000  0  4G12G13G 9G 7
  21189171.740    21189173.535     7945137.520 9 -18623064.591 7
  21711854.807    21711854.767    35709507.417 9 -41153285.370 8
  24260471.746    24260474.148    81480804.143 9 -93874802.879 8
  24557444.501    24557445.231   -17517017.201 9   6581890.531 9
 86  6 12  4 11 53.0800000  0  4G12G13G 9G 7
  21190940.706    21190942.292     7954438.434 9 -18615817.119 8
  21713614.452    21713614.137    35718749.886 9 -41146083.451 8
  24265240.428    24265241.847    81505859.531 8 -93855279.208 9
  24555548.876    24555548.806   -17526976.886 9   6574129.733 9
 86  6 12  4 11 59.0800000  0  4G12G13G 9G 7
  21192716.375    21192717.600     7963763.268 9 -18608551.023 8
  21715373.750    21715374.655    35727995.549 9 -41138879.030 8
  24270008.422    24270009.927    81530917.119 8 -93835753.816 9
  24553658.010    24553658.660   -17536913.563 9   6566386.872 9
 86  6 12  4 12  5.0800000  0  4G12G13G 9G 7
  21194495.274    21194496.860     7973112.108 9 -18601266.211 8
  21717133.628    21717134.084    35737244.408 9 -41131672.124 8
  24274777.299    24274779.524    81555975.999 9 -93816227.419 9
  24551770.317    24551771.827   -17546829.743 9   6558659.976 9
 86  6 12  4 12 11.0800000  0  4G12G13G 9G 7
  21196278.906    21196279.335     7982484.946 9 -18593962.712 8
  21718893.586    21718894.144    35746496.484 9 -41124462.714 8
  24279545.652    24279546.937    81581036.772 9 -93796699.537 8
  24549887.530    24549888.536   -17556727.750 9   6550947.245 8
 86  6 12  4 12 17.0800000  0  4G12G13G 9G 7
  21198067.212    21198068.420     7991881.700 9 -18586640.570 8
  21720654.676    21720655.715    35755751.704 9 -41117250.851 8
  24284315.163    24284317.317    81606099.227 8 -93777170.346 8
  24548007.973    24548008.694   -17566608.249 9   6543248.161 9
 86  6 12  4 12 23.0800000  0  4G12G13G 9G 7
  21199858.441    21199860.404     8001302.331 9 -18579299.811 8
  21722416.871    21722417.847    35765010.092 9 -41110036.529 9
  24289084.521    24289086.408    81631163.661 9 -93757639.621 9
  24546130.864    24546131.824   -17576468.822 9   6535564.599 8
 86  6 12  4 12 29.0800000  0  4G12G13G 9G 7
  21201656.964    21201657.633     8010746.921 8 -18571940.392 9
  21724179.910    21724181.099    35774271.775 9 -41102819.629 9
  24293855.130    24293855.824    81656228.843 9 -93738108.304 9
                  24544259.910                     6527901.770 9
 86  6 12  4 12 35.0800000  0  4G12G13G 9G 7
  21203458.460    21203461.157     8020215.506 9 -18564562.278 8
  21725942.724    21725942.279    35783536.598 9 -41095600.284 8
  24298625.275    24298625.879    81681295.931 9 -93718575.501 8
  24542394.039    24542394.686   -17622449.251 9   6520264.653 9
 86  6 12  4 12 41.0800000  0  4G12G13G 9G 7
  21205264.230    21205266.889     8029707.990 9 -18557165.534 7
  21727705.882    21727707.577    35792804.537 9 -41088378.505 8
  24303395.822    24303395.715    81706364.752 9 -93699041.348 9
  24540536.574    24540536.847   -17632215.420 9   6512654.654 9
 86  6 12  4 12 47.0800000  0  4G12G13G 9G 7
  21207075.662    21207077.426     8039224.320 9 -18549750.212 8
  21729470.393    21729470.524    35802075.520 9 -41081154.354 8
  24308165.948    24308167.621    81731434.842 9 -93679506.210 9
  24538683.039    24538683.060   -17641950.381 9   6505069.368 9
 86  6 12  4 12 53.0800000  0  4G12G13G 9G 7
  21208891.401    21208892.657     8048764.519 9 -18542316.299 8
  21731235.579    21731236.446    35811349.686 9 -41073927.737 8
  24312937.044    24312938.400    81756506.910 9 -93659969.540 9
  24536835.817    24536837.043   -17651657.625 9   6497505.284 9
 86  6 12  4 12 59.0800000  0  4G12G13G 9G 7
  21210710.319    21210712.846     8058328.596 9 -18534863.774 9
  21733000.741    21733001.544    35820627.039 9 -41066698.637 8
  24317707.943    24317709.915    81781580.399 9 -93640431.767 9
  24534992.993    24534993.589   -17661341.799 9   6489959.166 9
 86  6 12  4 13  5.0800000  0  4G12G13G 9G 7
  21212535.175    21212538.086     8067916.503 9 -18527392.675 9
  21734766.943    21734767.413    35829907.524 9 -41059467.097 8
  24322480.058    24322481.468    81806655.199 9 -93620892.955 9
  24533154.229    24533155.006   -17671005.594 9   6482428.940 9
 86  6 12  4 13 11.0800000  0  4G12G13G 9G 7
  21214364.860    21214366.529     8077528.172 8 -18519903.067 8
  21736532.840    21736535.140    35839191.083 9 -41052233.150 8
  24327251.830    24327253.431    81831731.814 9 -93601352.725 9
  24531318.997    24531319.996   -17680651.076 9   6474912.983 8
 86  6 12  4 13 17.0800000  0  4G12G13G 9G 7
  21216198.213    21216200.330     8087163.653 9 -18512394.900 8
  21738300.263    21738301.554    35848477.820 9 -41044996.735 8
  24332024.032    24332025.556    81856810.019 8 -93581811.272 9
  24529487.281    24529487.888   -17690278.681 9   6467410.959 8
 86  6 12  4 13 23.0800000  0  4G12G13G 9G 7
  21218035.800    21218037.528     8096822.998 9 -18504868.140 8
  21740068.041    21740068.948    35857767.679 9 -41037757.878 8
  24336796.367    24336798.234    81881889.332 9 -93562268.952 9
  24527658.706    24527659.339   -17699885.764 9   6459924.927 8
 86  6 12  4 13 29.0800000  0  4G12G13G 9G 7
  21219880.036    21219879.491     8106506.031 9 -18497322.918 9
  21741836.516    21741837.761    35867060.728 9 -41030516.536 8
  24341569.112    24341570.751    81906970.010 9 -93542725.552 9
                  24525836.270                     6452459.946 8
 86  6 12  4 13 35.0800000  0  4G12G13G 9G 7
  21221726.892    21221728.387     8116212.762 8 -18489759.231 8
  21743604.945    21743606.659    35876356.932 9 -41023272.736 8
  24346342.325    24346343.515    81932052.097 9 -93523181.070 8
  24524018.886    24524020.738   -17745796.454 9   6445021.002 9
 86  6 12  4 13 41.0800000  0  4G12G13G 9G 7
  21223577.929    21223580.204     8125943.337 9 -18482176.964 7
  21745375.247    21745377.052    35885656.308 9 -41016026.472 8
  24351114.812    24351117.071    81957135.552 8 -93503635.506 9
  24522209.092    24522209.408   -17755308.188 9   6437609.273 9
 86  6 12  4 13 47.0800000  0  4G12G13G 9G 7
  21225434.671    21225435.796     8135697.590 9 -18474576.249 8
  21747145.519    21747147.068    35894958.694 9 -41008777.868 8
  24355889.041    24355890.541    81982220.292 9 -93484088.957 9
  24520404.969    24520404.762   -17764788.274 9   6430222.206 9
 86  6 12  4 13 53.0800000  0  4G12G13G 9G 7
  21227295.152    21227295.858     8145475.558 9 -18466957.056 8
  21748915.854    21748917.091    35904264.171 9 -41001526.845 9
  24360662.907    24360664.727    82007306.228 9 -93464541.465 9
  24518606.875    24518606.117   -17774241.364 9   6422856.156 9
 86  6 12  4 13 59.0800000  0  4G12G13G 9G 7
  21229160.212    21229161.352     8155277.151 9 -18459319.447 8
  21750687.248    21750688.534    35913572.657 9 -40994273.474 8
  24365437.313    24365436.813    82032393.369 9 -93444993.057 9
  24516811.367    24516812.312   -17783671.298 9   6415508.157 8
 86  6 12  4 14  5.0800000  0  4G12G13G 9G 7
  21231030.116    21231031.020     8165102.498 9 -18451663.348 8
  21752459.319    21752460.415    35922884.186 9 -40987017.751 8
  24370210.010    24370212.020    82057481.849 9 -93425443.591 8
  24515021.556    24515021.270   -17793080.863 9   6408176.021 9
 86  6 12  4 14 11.0800000  0  4G12G13G 9G 7
  21232904.337    21232906.456     8174951.535 9 -18443988.767 8
  21754232.188    21754233.466    35932198.768 9 -40979759.632 8
  24374985.378    24374986.597    82082571.383 8 -93405893.302 9
  24513233.316    24513235.231   -17802471.986 9   6400858.269 9
 86  6 12  4 14 17.0800000  0  4G12G13G 9G 7
  21234782.211    21234784.040     8184824.178 9 -18436295.803 9
  21756004.830    21756006.169    35941516.477 9 -40972499.081 8
  24379759.645    24379761.479    82107662.330 8 -93386341.915 9
  24511450.304    24511451.417   -17811845.058 9   6393554.585 8
 86  6 12  4 14 23.0800000  0  4G12G13G 9G 7
  21236666.064    21236666.759     8194720.428 8 -18428584.440 8
  21757778.543    21757780.289    35950837.241 9 -40965236.144 9
  24384534.169    24384536.161    82132754.162 9 -93366789.837 9
  24509670.175    24509671.176   -17821197.311 9   6386267.117 8
 86  6 12  4 14 29.0800000  0  4G12G13G 9G 7
  21238553.382    21238555.034     8204640.300 8 -18420854.668 8
  21759553.310    21759554.051    35960161.041 9 -40957970.854 8
  24389308.369    24389311.043    82157847.349 8 -93347236.704 9
                  24507897.587                     6379001.181 8
 86  6 12  4 14 35.0800000  0  4G12G13G 9G 7
  21240445.255    21240447.794     8214583.818 9 -18413106.479 7
  21761328.046    21761329.796    35969487.908 9 -40950703.161 8
  24394084.539    24394085.677    82182941.517 9 -93327682.806 8
  24506128.157    24506128.976   -17866848.741 9   6371761.597 8
 86  6 12  4 14 41.0800000  0  4G12G13G 9G 7
  21242341.774    21242344.049     8224550.910 9 -18405339.908 9
  21763103.203    21763104.420    35978817.819 9 -40943433.108 8
  24398860.790    24398862.266    82208036.888 8 -93308127.959 8
  24504366.879    24504368.430   -17876104.478 9   6364549.335 9
 86  6 12  4 14 47.0800000  0  4G12G13G 9G 7
  21244243.528    21244245.647     8234541.613 9 -18397554.945 8
  21764878.434    21764880.391    35988150.793 9 -40936160.649 9
  24403636.111    24403637.435    82233133.194 9 -93288572.396 8
  24502611.215    24502612.542   -17885328.521 9   6357361.772 9
 86  6 12  4 14 53.0800000  0  4G12G13G 9G 7
  21246149.138    21246151.369     8244555.840 9 -18389751.656 8
  21766656.234    21766656.736    35997486.784 9 -40928885.860 8
  24408411.999    24408413.166    82258230.569 8 -93269015.989 8
  24500861.421    24500862.088   -17894525.641 9   6350195.185 9
 86  6 12  4 14 59.0800000  0  4G12G13G 9G 7
  21248058.740    21248061.067     8254593.613 9 -18381930.020 9
  21768433.119    21768433.794    36006825.775 9 -40921608.724 8
  24413187.244    24413188.821    82283329.023 8 -93249458.757 8
  24499115.933    24499116.859   -17903699.665 9   6343046.601 9
 86  6 12  4 15  5.0800000  0  4G12G13G 9G 7
  21249974.300    21249975.997     8264654.885 8 -18374090.068 8
  21770211.576    21770212.026    36016167.861 9 -40914329.177 7
  24417963.905    24417966.565    82308428.430 9 -93229900.778 9
  24497373.694    24497374.566   -17912853.101 9   6335914.055 8
 86  6 12  4 15 11.0800000  0  4G12G13G 9G 7
  21251893.005    21251895.311     8274739.651 9 -18366231.811 8
  21771988.907    21771990.086    36025512.960 9 -40907047.280 8
  24422740.781    24422742.114    82333528.767 8 -93210342.081 8
  24495635.945    24495635.782   -17921988.048 9   6328795.925 9
 86  6 12  4 15 17.0800000  0  4G12G13G 9G 7
  21253816.595    21253817.493     8284847.905 9 -18358355.253 8
  21773767.929    21773768.232    36034861.040 9 -40899763.058 9
  24427518.005    24427518.656    82358630.019 9 -93190782.653 9
  24493899.987    24493901.783   -17931104.873 9   6321691.912 9
 86  6 12  4 15 23.0800000  0  4G12G13G 9G 7
  21255744.153    21255746.069     8294979.571 9 -18350460.451 9
  21775547.035    21775548.435    36044212.064 9 -40892476.551 8
  24432293.779    24432295.771    82383732.186 8 -93171222.531 9
  24492169.686    24492170.480   -17940200.458 9   6314604.438 8
 86  6 12  4 15 29.0800000  0  4G12G13G 9G 7
  21257676.130    21257678.235     8305134.691 9 -18342547.366 9
  21777327.328    21777327.818    36053566.024 9 -40885187.747 8
  24437071.900    24437073.200    82408835.205 9 -93151661.731 9
                  24490445.474                     6307538.873 8
 86  6 12  4 15 35.0800000  0  4G12G13G 9G 7
  21259613.649    21259615.702     8315313.287 9 -18334615.998 8
  21779108.078    21779110.078    36062922.973 9 -40877896.619 8
  24441848.503    24441849.245    82433939.183 8 -93132100.194 9
  24488725.049    24488725.390   -17985595.145 9   6300500.014 9
 86  6 12  4 15 41.0800000  0  4G12G13G 9G 7
  21261555.118    21261556.773     8325515.240 8 -18326666.426 8
  21780889.071    21780889.658    36072282.850 9 -40870603.212 8
  24446625.604    24446627.161    82459043.882 8 -93112538.078 9
  24487013.440    24487014.159   -17994593.284 9   6293488.487 9
 86  6 12  4 15 47.0800000  0  4G12G13G 9G 7
  21263500.601    21263502.217     8335740.648 9 -18318698.574 8
  21782670.122    21782672.066    36081645.664 9 -40863307.515 9
  24451401.740    24451404.695    82484149.435 8 -93092975.303 8
  24485306.231    24485307.686   -18003559.704 9   6286501.668 9
 86  6 12  4 15 53.0800000  0  4G12G13G 9G 7
  21265451.583    21265452.827     8345989.430 9 -18310712.511 8
  21784452.859    21784453.938    36091011.482 9 -40856009.471 8
  24456180.705    24456181.857    82509255.765 8 -93073411.935 8
  24483605.154    24483606.687   -18012499.300 9   6279535.752 9
 86  6 12  4 15 59.0800000  0  4G12G13G 9G 7
  21267405.759    21267407.766     8356261.642 9 -18302708.197 8
  21786235.956    21786236.887    36100380.255 9 -40848709.132 8
  24460958.507    24460959.038    82534362.783 8 -93053848.015 9
  24481908.665    24481910.878   -18021415.810 9   6272587.835 9
 86  6 12  4 16  5.0800000  0  4G12G13G 9G 7
  21269364.424    21269366.935     8366557.216 9 -18294685.670 8
  21788018.106    21788021.300    36109751.966 9 -40841406.510 9
  24465736.031    24465737.097    82559470.463 8 -93034283.605 9
  24480216.602    24480217.774   -18030311.659 9   6265656.013 9
 86  6 12  4 16 11.0800000  0  4G12G13G 9G 7
  21271328.032    21271330.647     8376876.077 9 -18286645.008 7
  21789803.195    21789803.707    36119126.627 9 -40834101.564 8
  24470513.831    24470515.432    82584578.910 7 -93014718.584 9
  24478526.784    24478527.075   -18039188.978 9   6258738.618 9
 86  6 12  4 16 17.0800000  0  4G12G13G 9G 7
  21273296.543    21273298.784     8387218.253 9 -18278586.165 9
  21791586.662    21791588.471    36128504.201 9 -40826794.372 8
  24475290.641    24475292.413    82609688.049 7 -92995153.024 8
  24476840.949    24476842.407   -18048047.997 9   6251835.488 9
 86  6 12  4 16 23.0800000  0  4G12G13G 9G 7
  21275269.332    21275271.685     8397583.786 9 -18270509.132 8
  21793372.196    21793372.972    36137884.747 9 -40819484.864 9
  24480070.770    24480071.807    82634797.788 9 -92975586.988 8
  24475158.752    24475159.316   -18056885.275 9   6244949.306 9
 86  6 12  4 16 29.0800000  0  4G12G13G 9G 7
  21277245.417    21277247.468     8407972.548 9 -18262413.999 9
  21795157.785    21795158.751    36147268.169 9 -40812173.102 9
  24484848.993    24484850.984    82659908.225 8 -92956020.424 8
                  24473484.816                     6238085.450 8
 86  6 12  4 16 35.0800000  0  4G12G13G 9G 7
  21279227.842    21279229.272     8418384.521 9 -18254300.767 9
  21796943.854    21796944.917    36156654.561 9 -40804859.032 9
  24489627.524    24489628.800    82685019.209 7 -92936453.427 9
  24471813.359    24471814.640   -18101846.032 9   6231248.462 9
 86  6 12  4 16 41.0800000  0  4G12G13G 9G 7
  21281213.633    21281214.892     8428819.813 9 -18246169.370 8
  21798731.174    21798733.331    36166043.824 9 -40797542.725 8
  24494404.297    24494407.717    82710130.781 8 -92916885.971 8
  24470150.442    24470151.054   -18110585.072 9   6224438.825 9
 86  6 12  4 16 47.0800000  0  4G12G13G 9G 7
  21283202.706    21283205.549     8439278.366 9 -18238019.850 8
  21800518.775    21800519.116    36175435.953 9 -40790224.177 8
  24499185.132    24499185.236    82735242.903 7 -92897318.085 9
  24468493.233    24468494.726   -18119292.631 9   6217653.724 9
 86  6 12  4 16 53.0800000  0  4G12G13G 9G 7
  21285197.880    21285200.689     8449760.142 9 -18229852.226 8
  21802305.733    21802307.313    36184830.992 9 -40782903.365 9
  24503962.360    24503964.972    82760355.560 7 -92877749.780 8
  24466840.514    24466842.539   -18127973.179 9   6210889.668 9
 86  6 12  4 16 59.0800000  0  4G12G13G 9G 7
  21287197.304    21287199.273     8460265.149 9 -18221666.511 8
  21804095.287    21804095.444    36194228.951 9 -40775580.290 9
  24508742.906    24508743.030    82785468.620 7 -92858181.179 9
  24465194.269    24465194.821   -18136630.575 9   6204143.643 8
 86  6 12  4 17  5.0800000  0  4G12G13G 9G 7
  21289200.157    21289202.789     8470793.327 9 -18213462.744 9
  21805883.438    21805883.259    36203629.766 9 -40768254.978 9
  24513520.578    24513521.196    82810582.296 7 -92838612.088 8
  24463549.967    24463551.202   -18145267.480 9   6197413.594 8
 86  6 12  4 17 11.0800000  0  4G12G13G 9G 7
  21291207.817    21291211.170     8481344.651 9 -18205240.933 8
  21807672.926    21807673.894    36213033.406 9 -40760927.479 9
  24518299.932    24518302.046    82835696.271 7 -92819042.750 8
  24461910.040    24461911.223   -18153885.714 9   6190698.092 9
 86  6 12  4 17 17.0800000  0  4G12G13G 9G 7
  21293221.159    21293222.785     8491919.174 9 -18197001.043 8
  21809462.724    21809463.990    36222439.911 9 -40753597.732 8
  24523079.343    24523080.338    82860810.782 6 -92799473.001 8
  24460273.542    24460276.690   -18162485.225 9   6183997.187 8
 86  6 12  4 17 23.0800000  0  4G12G13G 9G 7
  21295237.543    21295239.694     8502516.839 8 -18188743.123 8
  21811253.848    21811254.593    36231849.282 9 -40746265.758 8
  24527859.262    24527859.567    82885925.617 8 -92779902.993 9
  24458642.450    24458642.916   -18171062.590 9   6177313.527 9
 86  6 12  4 17 29.0800000  0  4G12G13G 9G 7
  21297258.956    21297260.706     8513137.606 9 -18180467.208 8
  21813044.918    21813045.642    36241261.527 9 -40738931.536 7
  24532637.188    24532639.722    82911040.868 8 -92760332.666 8
                  24457015.758                     6170652.506 8
 86  6 12  4 17 35.0800000  0  4G12G13G 9G 7
  21299283.864    21299286.372     8523781.471 9 -18172173.294 8
  21814836.962    21814837.723    36250676.612 9 -40731595.107 9
  24537416.906    24537418.293    82936156.445 7 -92740762.074 7
  24455395.217    24455396.105   -18215944.863 9   6164018.637 9
 86  6 12  4 17 41.0800000  0  4G12G13G 9G 7
  21301313.909    21301315.902     8534448.371 9 -18163861.427 8
  21816628.636    21816628.956    36260094.575 9 -40724256.436 8
  24542196.174    24542197.481    82961272.379 7 -92721191.226 6
  24453781.741    24453783.430   -18224423.064 9   6157412.246 8
 86  6 12  4 17 47.0800000  0  4G12G13G 9G 7
  21303348.075    21303350.898     8545138.327 9 -18155531.583 9
  21818421.458    21818421.751    36269515.327 9 -40716915.590 9
  24546974.425    24546977.072    82986388.501 8 -92701620.216 7
  24452174.051    24452175.667   -18232869.287 9   6150830.404 8
 86  6 12  4 17 53.0800000  0  4G12G13G 9G 7
  21305386.849    21305388.089     8555851.364 9 -18147183.767 8
  21820214.077    21820215.807    36278938.952 9 -40709572.503 8
  24551756.037    24551755.976    83011505.023 7 -92682048.904 7
  24450572.234    24450571.801   -18241289.231 9   6144269.413 9
 86  6 12  4 17 59.0800000  0  4G12G13G 9G 7
  21307430.641    21307431.852     8566587.433 8 -18138818.004 8
  21822008.408    21822009.609    36288365.373 9 -40702227.239 9
  24556535.602    24556536.438    83036621.704 7 -92662477.481 8
  24448973.693    24448974.566   -18249686.117 9   6137726.378 8
 86  6 12  4 18  5.0800000  0  4G12G13G 9G 7
  21309477.184    21309480.155     8577346.611 9 -18130434.236 8
  21823801.776    21823803.924    36297794.613 9 -40694879.782 8
  24561313.752    24561315.527    83061738.668 7 -92642905.814 7
  24447380.213    24447380.951   -18258062.262 9   6131199.526 9
 86  6 12  4 18 11.0800000  0  4G12G13G 9G 7
  21311528.478    21311530.625     8588128.802 9 -18122032.528 9
  21825596.581    21825598.020    36307226.614 9 -40687530.171 8
  24566093.958    24566095.570    83086855.690 7 -92623334.110 8
  24445789.840    24445790.237   -18266419.710 9   6124687.227 9
 86  6 12  4 18 17.0800000  0  4G12G13G 9G 7
  21313584.256    21313587.371     8598933.957 9 -18113612.928 8
  21827393.340    21827394.391    36316661.548 9 -40680178.270 8
  24570872.563    24570874.365    83111972.985 8 -92603762.193 7
  24444203.147    24444204.429   -18274758.443 9   6118189.526 8
 86  6 12  4 18 23.0800000  0  4G12G13G 9G 7
  21315644.913    21315647.303     8609762.019 9 -18105175.484 9
  21829188.813    21829189.337    36326099.295 9 -40672824.188 8
  24575653.784    24575655.229    83137090.344 8 -92584190.206 8
  24442620.297    24442620.751   -18283074.746 9   6111709.277 9
 86  6 12  4 18 29.0800000  0  4G12G13G 9G 7
  21317710.346    21317712.071     8620612.942 9 -18096720.214 9
  21830984.700    21830987.109    36335539.806 9 -40665467.942 8
  24580432.310    24580435.312    83162207.904 7 -92564618.080 7
                  24441044.769                     6105252.145 8
 86  6 12  4 18 35.0800000  0  4G12G13G 9G 7
  21319778.629    21319781.486     8631486.892 9 -18088247.021 8
  21832782.036    21832783.655    36344983.033 9 -40658109.581 9
  24585211.761    24585212.951    83187325.487 7 -92545045.931 7
  24439474.098    24439474.343   -18327699.429 9   6098822.398 8
 86  6 12  4 18 41.0800000  0  4G12G13G 9G 7
  21321853.042    21321855.566     8642383.769 9 -18079755.946 8
  21834580.173    21834581.547    36354428.926 9 -40650749.151 8
  24589993.616    24589992.841    83212443.186 7 -92525473.692 7
  24437910.769    24437910.899   -18335915.734 9   6092420.085 8
 86  6 12  4 18 47.0800000  0  4G12G13G 9G 7
  21323929.764    21323932.201     8653303.530 9 -18071247.037 9
  21836377.791    21836379.357    36363877.614 9 -40643386.538 8
  24594771.708    24594773.173    83237560.914 7 -92505901.417 7
  24436352.421    24436353.899   -18344101.171 9   6086042.209 9
 86  6 12  4 18 53.0800000  0  4G12G13G 9G 7
  21326012.797    21326014.122     8664246.211 9 -18062720.276 9
  21838175.686    21838177.393    36373329.097 9 -40636021.739 9
  24599551.566    24599553.132    83262678.644 7 -92486329.192 8
  24434799.860    24434800.368   -18352259.241 9   6079685.280 9
 86  6 12  4 18 59.0800000  0  4G12G13G 9G 7
  21328100.112    21328102.357     8675211.777 9 -18054175.685 8
  21839974.871    21839976.260    36382783.380 9 -40628654.771 8
  24604332.293    24604333.979    83287796.438 7 -92466756.876 7
  24433252.154    24433253.579   -18360394.101 9   6073346.438 9
 86  6 12  4 19  5.0800000  0  4G12G13G 9G 7
  21330190.179    21330193.408     8686200.110 9 -18045613.346 9
  21841775.025    21841776.150    36392240.439 9 -40621285.632 9
  24609111.126    24609113.770    83312914.185 7 -92447184.645 8
  24431707.595    24431707.740   -18368508.347 9   6067023.642 9
 86  6 12  4 19 11.0800000  0  4G12G13G 9G 7
  21332286.710    21332289.981     8697211.346 8 -18037033.153 8
  21843575.205    21843576.992    36401700.221 9 -40613914.374 9
  24613890.644    24613892.825    83338031.858 8 -92427612.440 8
  24430167.158    24430168.415   -18376603.726 9   6060715.557 8
 86  6 12  4 19 17.0800000  0  4G12G13G 9G 7
  21334386.093    21334388.615     8708245.375 9 -18028435.222 8
  21845375.631    21845377.490    36411162.683 9 -40606541.040 8
  24618670.103    24618672.954    83363149.448 7 -92408040.289 9
  24428630.297    24428631.357   -18384680.105 9   6054422.283 8
 86  6 12  4 19 23.0800000  0  4G12G13G 9G 7
  21336491.318    21336492.315     8719302.169 9 -18019819.543 8
  21847177.075    21847177.757    36420627.945 9 -40599165.500 8
  24623450.683    24623451.582    83388266.913 8 -92388468.249 8
                  24427099.185                     6048146.880 9
 86  6 12  4 19 29.0800000  0  4G12G13G 9G 7
  21338598.590    21338600.707     8730381.815 9 -18011186.050 9
  21848978.069    21848979.854    36430095.933 9 -40591787.856 8
  24628229.562    24628231.241    83413384.298 8 -92368896.260 9
  24425616.302    24425572.344   -18429105.607 9   6041894.899 8
 86  6 12  4 19 35.0800000  0  4G12G13G 9G 7
  21340712.048    21340713.135     8741484.272 9 -18002534.785 9
  21850781.287    21850781.668    36439566.603 9 -40584408.105 9
  24633011.028    24633011.176    83438501.492 8 -92349324.397 8
  24424051.056    24424052.015   -18437093.726 9   6035670.632 8
 86  6 12  4 19 41.0800000  0  4G12G13G 9G 7
  21342827.777    21342829.579     8752609.415 9 -17993865.851 8
  21852583.325    21852585.237    36449040.032 9 -40577026.218 8
  24637789.872    24637790.103    83463618.541 8 -92329752.689 7
  24422537.560    24422537.994   -18445046.311 9   6029473.824 8
 86  6 12  4 19 47.0800000  0  4G12G13G 9G 7
  21344950.117    21344952.110     8763757.281 9 -17985179.207 9
  21854387.230    21854387.960    36458516.210 9 -40569642.178 9
  24642569.095    24642570.254    83488735.342 8 -92310181.145 7
  24421030.136    24421031.839   -18452967.574 9   6023301.411 8
 86  6 12  4 19 53.0800000  0  4G12G13G 9G 7
  21347075.466    21347078.284     8774927.838 9 -17976474.876 9
  21856190.043    21856192.585    36467995.129 9 -40562256.004 8
  24647348.734    24647349.605    83513851.985 9 -92290609.729 8
  24419528.162    24419528.732   -18460862.163 9   6017149.786 9
 86  6 12  4 19 59.0800000  0  4G12G13G 9G 7
  21349206.262    21349207.664     8786121.076 9 -17967752.878 8
  21857994.903    21857996.076    36477476.667 9 -40554867.807 8
  24652127.635    24652129.138    83538968.311 9 -92271038.578 8
  24418029.915    24418030.807   -18468733.622 9   6011016.186 8
 86  6 12  4 20  5.0800000  0  4G12G13G 9G 7
  21351339.400    21351341.393     8797336.992 9 -17959013.200 9
  21859799.711    21859800.895    36486960.901 9 -40547477.486 9
  24656908.233    24656908.066    83564084.389 9 -92251467.606 8
  24416536.396    24416538.196   -18476584.463 9   6004898.648 9
 86  6 12  4 20 11.0800000  0  4G12G13G 9G 7
  21353478.415    21353480.598     8808575.553 9 -17950255.877 8
  21861604.901    21861605.539    36496447.821 9 -40540085.083 9
  24661687.306    24661686.924    83589200.091 8 -92231896.917 8
  24415045.537    24415047.156   -18484416.222 9   5998795.974 9
 86  6 12  4 20 17.0800000  0  4G12G13G 9G 7
  21355621.278    21355623.467     8819836.733 8 -17941480.948 9
  21863410.849    21863411.133    36505937.413 9 -40532690.580 9
  24666466.401    24666467.389    83614315.488 9 -92212326.483 8
  24413559.613    24413560.386   -18492228.737 9   5992708.314 9
 86  6 12  4 20 23.0800000  0  4G12G13G 9G 7
  21357769.360    21357771.028     8831120.488 9 -17932688.411 8
  21865216.869    21865218.893    36515429.735 9 -40525293.981 8
  24671245.188    24671246.323    83639430.571 8 -92192756.298 8
                  24412077.481                     5986638.851 8
 86  6 12  4 20 29.0800000  0  4G12G13G 9G 7
  21359919.940    21359921.452     8842426.812 9 -17923878.275 9
  21867023.693    21867025.894    36524924.738 9 -40517895.268 8
  24676024.286    24676026.475    83664545.219 9 -92173186.436 8
  24410616.665    24410602.141   -18536391.688 9   5980593.044 8
 86  6 12  4 20 35.0800000  0  4G12G13G 9G 7
  21362075.487    21362077.666     8853755.686 9 -17915050.586 8
  21868831.041    21868831.716    36534422.364 9 -40510494.519 8
  24680803.881    24680804.792    83689659.408 9 -92153616.924 7
  24409131.098    24409132.316   -18544115.164 9   5974575.131 8
 86  6 12  4 20 41.0800000  0  4G12G13G 9G 7
  21364236.948    21364238.335     8865107.132 9 -17906205.306 9
  21870639.137    21870639.737    36543922.585 9 -40503091.751 9
  24685583.823    24685583.402    83714773.179 9 -92134047.758 7
  24407668.060    24407668.749   -18551802.991 9   5968584.612 9
 86  6 12  4 20 47.0800000  0  4G12G13G 9G 7
  21366400.416    21366402.257     8876481.125 9 -17897342.452 8
  21872447.797    21872448.479    36553425.506 9 -40495686.878 9
  24690361.698    24690362.345    83739886.536 9 -92114478.907 7
  24406211.630    24406212.296   -18559459.023 9   5962618.480 9
 86  6 12  4 20 53.0800000  0  4G12G13G 9G 7
  21368569.228    21368571.550     8887877.585 9 -17888462.102 9
  21874255.365    21874256.870    36562931.031 9 -40488279.981 8
  24695139.803    24695141.329    83764999.399 9 -92094910.434 8
  24404759.626    24404760.694   -18567088.929 9   5956673.099 9
 86  6 12  4 20 59.0800000  0  4G12G13G 9G 7
  21370742.436    21370743.762     8899296.531 8 -17879564.222 9
  21876065.680    21876066.296    36572439.165 9 -40480871.040 8
  24699918.751    24699920.461    83790111.670 9 -92075342.419 7
  24403311.524    24403312.421   -18574695.707 9   5950745.744 9
 86  6 12  4 21  5.0800000  0  4G12G13G 9G 7
  21372918.869    21372921.659     8910738.037 9 -17870648.767 8
  21877875.195    21877876.411    36581949.900 9 -40473460.081 8
  24704697.785    24704698.817    83815223.458 9 -92055774.791 8
  24401868.233    24401868.514   -18582281.675 9   5944834.600 9
 86  6 12  4 21 11.0800000  0  4G12G13G 9G 7
  21375101.985    21375102.447     8922202.031 9 -17861715.790 8
  21879685.576    21879687.320    36591463.221 9 -40466047.100 9
  24709476.612    24709477.725    83840334.778 9 -92036207.524 7
  24400428.189    24400429.512   -18589848.541 9   5938938.347 9
 86  6 12  4 21 17.0800000  0  4G12G13G 9G 7
  21377287.113    21377288.471     8933688.409 9 -17852765.356 8
  21881496.292    21881497.631    36600979.162 9 -40458632.084 9
  24714255.066    24714254.823    83865445.513 9 -92016640.720 7
  24398991.526    24398993.342   -18597395.977 9   5933057.225 8
 86  6 12  4 21 23.0800000  0  4G12G13G 9G 7
  21379476.681    21379477.931     8945197.230 9 -17843797.446 9
  21883307.950    21883309.345    36610497.751 9 -40451214.988 8
  24719033.461    24719034.475    83890555.611 8 -91997074.410 9
                  24397561.313                     5927194.693 8
 86  6 12  4 21 29.0800000  0  4G12G13G 9G 7
  21381671.626    21381673.982     8956728.485 9 -17834812.056 9
  21885119.723    21885120.468    36620019.004 9 -40443795.838 9
  24723810.785    24723811.890    83915664.933 9 -91977508.705 8
  24396047.243    24396135.259   -18641100.896 9   5921356.181 8
 86  6 12  4 21 35.0800000  0  4G12G13G 9G 7
  21383870.639    21383871.759     8968282.176 9 -17825809.181 9
  21886932.235    21886931.728    36629542.912 9 -40436374.607 9
  24728589.166    24728590.168    83940773.734 9 -91957943.408 8
  24394715.805    24394716.386   -18648557.488 9   5915545.783 8
 86  6 12  4 21 41.0800000  0  4G12G13G 9G 7
  21386072.904    21386075.222     8979858.219 9 -17816788.894 8
  21888745.144    21888746.153    36639069.386 9 -40428951.382 8
  24733366.643    24733368.238    83965881.851 9 -91938378.630 8
  24393303.893    24393304.467   -18655979.550 9   5909762.749 9
 86  6 12  4 21 47.0800000  0  4G12G13G 9G 7
  21388279.702    21388281.146     8991456.610 9 -17807751.181 8
  21890557.687    21890559.189    36648598.498 9 -40421526.097 8
  24738145.653    24738145.636    83990989.203 9 -91918814.464 8
  24391896.784    24391897.391   -18663369.965 9   5904003.994 9
 86  6 12  4 21 53.0800000  0  4G12G13G 9G 7
  21390491.407    21390492.660     9003077.302 9 -17798696.107 8
  21892372.722    21892373.594    36658130.147 9 -40414098.840 9
  24742922.629    24742923.614    84016095.832 9 -91899250.865 8
  24390495.514    24390496.591   -18670733.673 9   5898266.030 8
 86  6 12  4 21 59.0800000  0  4G12G13G 9G 7
  21392706.661    21392708.677     9014720.215 9 -17789623.707 9
  21894187.539    21894187.659    36667664.432 9 -40406669.521 8
  24747699.750    24747701.259    84041201.668 9 -91879687.872 8
  24389098.736    24389099.682   -18678074.247 9   5892546.105 8
 86  6 12  4 22  5.0800000  0  4G12G13G 9G 7
  21394926.870    21394928.281     9026385.528 9 -17780533.859 8
  21896001.434    21896002.174    36677201.335 9 -40399238.171 9
  24752476.788    24752478.520    84066306.700 9 -91860125.518 8
  24387705.789    24387705.613   -18685394.066 9   5886842.346 8
 86  6 12  4 22 11.0800000  0  4G12G13G 9G 7
  21397150.523    21397152.035     9038073.081 9 -17771426.672 8
  21897817.013    21897817.552    36686740.820 9 -40391804.813 8
  24757254.778    24757255.672    84091410.932 9 -91840563.769 9
  24386316.796    24386317.483   -18692694.733 9   5881153.515 9
 86  6 12  4 22 17.0800000  0  4G12G13G 9G 7
  21399378.779    21399379.880     9049782.842 9 -17762302.184 8
  21899632.475    21899633.648    36696282.876 9 -40384369.437 8
  24762031.637    24762033.259    84116514.332 9 -91821002.688 8
  24384931.535    24384932.148   -18699975.742 9   5875480.012 9
 86  6 12  4 22 23.0800000  0  4G12G13G 9G 7
  21401611.619    21401613.450     9061514.810 9 -17753160.389 8
  21901448.342    21901450.517    36705827.461 9 -40376932.095 7
  24766808.615    24766808.808    84141616.955 8 -91801442.211 9
                  24383551.209                     5869825.341 8
 86  6 12  4 22 29.0800000  0  4G12G13G 9G 7
  21403848.260    21403849.872     9073269.100 9 -17744001.209 9
  21903265.306    21903266.353    36715374.601 9 -40369492.771 9
  24771585.231    24771586.791    84166718.656 9 -91781882.453 9
  24382117.289    24382175.914   -18743608.877 9   5864195.082 8
 86  6 12  4 22 35.0800000  0  4G12G13G 9G 7
  21406088.899    21406090.501     9085045.602 9 -17734824.719 9
  21905082.974    21905084.478    36724924.257 9 -40362051.481 8
  24776362.040    24776362.913    84191819.467 9 -91762323.383 8
  24380807.090    24380807.303   -18750798.185 9   5858593.163 9
 86  6 12  4 22 41.0800000  0  4G12G13G 9G 7
  21408335.032    21408335.823     9096844.347 9 -17725630.890 8
  21906900.404    21906901.287    36734476.471 9 -40354608.183 8
  24781136.872    24781139.011    84216919.414 9 -91742764.979 9
  24379445.639    24379446.053   -18757952.067 9   5853018.716 9
 86  6 12  4 22 47.0800000  0  4G12G13G 9G 7
  21410584.198    21410586.192     9108665.264 9 -17716419.789 9
  21908717.980    21908719.992    36744031.263 9 -40347162.897 8
  24785914.664    24785916.490    84242018.467 9 -91723207.290 9
  24378090.469    24378091.007   -18765074.694 9   5847468.621 8
 86  6 12  4 22 53.0800000  0  4G12G13G 9G 7
  21412838.264    21412839.546     9120508.251 9 -17707191.485 8
  21910537.167    21910537.942    36753588.516 9 -40339715.685 9
  24790690.230    24790690.764    84267116.453 9 -91703650.419 8
  24376739.714    24376740.752   -18772170.979 9   5841939.057 8
 86  6 12  4 22 59.0800000  0  4G12G13G 9G 7
  21415095.434    21415096.573     9132373.236 9 -17697946.046 9
  21912356.938    21912358.410    36763148.356 8 -40332266.456 9
  24795465.753    24795467.857    84292213.404 9 -91684094.351 9
  24375393.100    24375395.357   -18779244.067 9   5836427.552 8
 86  6 12  4 23  5.0800000  0  4G12G13G 9G 7
  21417358.175    21417358.990     9144260.432 9 -17688683.289 9
  21914176.226    21914177.337    36772710.790 9 -40324815.204 9
  24800240.986    24800243.135    84317309.397 8 -91664539.033 8
  24374051.438    24374053.310   -18786296.329 9   5830932.287 9
 86  6 12  4 23 11.0800000  0  4G12G13G 9G 7
  21419623.907    21419625.890     9156169.757 9 -17679403.306 9
  21915995.783    21915997.869    36782275.740 9 -40317362.006 7
  24805017.373    24805017.895    84342404.295 9 -91644984.576 8
  24372713.331    24372714.221   -18793329.305 9   5825452.050 9
 86  6 12  4 23 17.0800000  0  4G12G13G 9G 7
  21421894.127    21421895.996     9168101.089 9 -17670106.158 9
  21917816.566    21917817.658    36791843.159 9 -40309906.866 9
  24809791.735    24809793.398    84367498.123 8 -91625430.950 9
  24371379.028    24371379.597   -18800342.302 9   5819987.367 8
 86  6 12  4 23 23.0800000  0  4G12G13G 9G 7
  21424169.642    21424170.099     9180054.482 9 -17660791.834 8
  21919638.258    21919638.935    36801413.145 9 -40302449.729 9
  24814567.149    24814567.492    84392590.855 8 -91605878.167 8
                  24370049.818                     5814541.873 8
 86  6 12  4 23 29.0800000  0  4G12G13G 9G 7
  21426448.247    21426449.362     9192029.944 9 -17651460.304 9
  21921459.373    21921460.401    36810985.663 9 -40294990.630 9
  24819341.835    24819343.338    84417682.412 9 -91586326.313 8
  24368623.739    24368726.486   -18843707.989 9   5809121.048 8
 86  6 12  4 23 35.0800000  0  4G12G13G 9G 7
  21428732.090    21428732.023     9204027.462 9 -17642111.593 8
  21923281.444    21923282.533    36820560.682 9 -40287529.565 8
  24824116.594    24824118.015    84442772.852 8 -91566775.320 8
  24367408.999    24367409.318   -18850627.956 8   5803728.815 8
 86  6 12  4 23 41.0800000  0  4G12G13G 9G 7
  21431018.212    21431019.337     9216047.000 9 -17632745.711 8
  21925104.442    21925105.294    36830138.196 9 -40280066.563 9
  24828891.430    24828891.769    84467862.080 9 -91547225.280 8
  24366098.236    24366099.352   -18857512.506 9   5798363.841 8
 86  6 12  4 23 47.0800000  0  4G12G13G 9G 7
  21433310.015    21433310.382     9228088.504 9 -17623362.731 9
  21926927.488    21926928.401    36839718.220 9 -40272601.613 9
  24833664.171    24833665.916    84492950.177 9 -91527676.117 9
  24364794.260    24364794.744   -18864366.568 9   5793023.021 9
 86  6 12  4 23 53.0800000  0  4G12G13G 9G 7
  21435605.167    21435606.969     9240151.873 9 -17613962.698 8
  21928751.078    21928752.083    36849300.669 9 -40265134.769 9
  24838439.518    24838439.899    84518036.946 9 -91508127.983 7
  24363494.213    24363494.824   -18871194.040 9   5787702.917 8
 86  6 12  4 23 59.0800000  0  4G12G13G 9G 7
  21437904.888    21437906.342     9252237.206 9 -17604545.562 8
  21930575.099    21930576.385    36858885.621 9 -40257665.970 9
  24843212.866    24843214.257    84543122.487 8 -91488580.814 8
  24362199.970    24362200.905   -18877998.367 9   5782400.851 8
 86  6 12  4 24  5.0800000  0  4G12G13G 9G 7
  21440208.821    21440211.114     9264344.427 9 -17595111.355 9
  21932399.033    21932400.353    36868473.073 9 -40250195.233 8
  24847985.986    24847987.083    84568206.795 9 -91469034.614 9
  24360909.723    24360909.780   -18884781.914 9   5777114.966 9
 86  6 12  4 24 11.0800000  0  4G12G13G 9G 7
  21442517.208    21442519.082     9276473.501 9 -17585660.140 9
  21934223.358    21934225.608    36878062.923 9 -40242722.613 8
  24852759.850    24852760.377    84593289.792 7 -91449489.405 8
  24359621.715    24359621.783   -18891546.149 9   5771844.139 8
 86  6 12  4 24 17.0800000  0  4G12G13G 9G 7
  21444829.182    21444830.789     9288624.424 9 -17576191.888 9
  21936048.810    21936049.914    36887655.219 9 -40235248.100 9
  24857531.617    24857534.987    84618371.407 9 -91429945.294 8
  24358338.001    24358339.182   -18898290.273 9   5766588.979 8
 86  6 12  4 24 23.0800000  0  4G12G13G 9G 7
  21447145.240    21447147.104     9300797.231 9 -17566706.584 8
  21937874.848    21937875.964    36897249.975 9 -40227771.663 8
  24862304.823    24862305.583    84643451.686 9 -91410402.217 9
                  24357059.873                     5761353.337 8
 86  6 12  4 24 29.0800000  0  4G12G13G 9G 7
  21449466.520    21449467.788     9312991.854 9 -17557204.285 8
  21939700.417    21939701.759    36906847.083 9 -40220293.387 9
  24867076.834    24867078.762    84668530.510 8 -91390860.275 9
  24355788.252    24355788.358   -18941389.265 9   5756142.725 8
 86  6 12  4 24 35.0800000  0  4G12G13G 9G 7
  21451790.123    21451792.383     9325208.310 9 -17547684.963 9
  21941527.124    21941528.989    36916446.672 9 -40212813.189 8
  24871849.270    24871850.580    84693608.015 9 -91371319.356 8
  24354522.665    24354523.955   -18948039.487 9   5750960.759 8
 86  6 12  4 24 41.0800000  0  4G12G13G 9G 7
  21454119.054    21454121.176     9337446.580 9 -17538148.654 8
  21943355.306    21943356.442    36926048.646 9 -40205331.133 9
  24876620.663    24876622.374    84718684.024 8 -91351779.611 8
  24353263.333    24353262.941   -18954654.677 9   5745806.072 8
 86  6 12  4 24 47.0800000  0  4G12G13G 9G 7
  21456452.096    21456454.375     9349706.614 9 -17528595.375 9
  21945182.740    21945183.496    36935653.085 9 -40197847.152 9
  24881392.321    24881392.483    84743758.661 8 -91332240.944 8
  24352010.089    24352010.807   -18961238.771 9   5740675.614 9
 86  6 12  4 24 53.0800000  0  4G12G13G 9G 7
  21458789.016    21458792.021     9361988.334 9 -17519025.218 9
  21947010.604    21947012.786    36945259.943 9 -40190361.280 9
  24886162.698    24886165.424    84768831.781 8 -91312703.455 8
  24350762.291    24350763.785   -18967796.484 9   5735565.709 8
 86  6 12  4 24 59.0800000  0  4G12G13G 9G 7
  21461131.422    21461131.822     9374291.801 9 -17509438.105 9
  21948839.777    21948841.696    36954869.243 9 -40182873.518 8
  24890934.683    24890936.426    84793903.443 8 -91293167.105 8
  24349518.961    24349520.715   -18974331.116 9   5730473.782 8
 86  6 12  4 25  5.0800000  0  4G12G13G 9G 7
  21463476.231    21463477.651     9386616.995 8 -17499834.050 8
  21950668.096    21950668.926    36964481.028 9 -40175383.814 8
  24895704.376    24895706.744    84818973.541 7 -91273631.961 9
  24348279.597    24348279.987   -18980844.900 9   5725398.119 8
 86  6 12  4 25 11.0800000  0  4G12G13G 9G 7
  21465826.101    21465827.412     9398963.799 9 -17490213.166 8
  21952498.338    21952500.300    36974095.143 9 -40167892.289 7
  24900475.015    24900477.033    84844042.024 7 -91254098.088 8
  24347043.945    24347045.089   -18987339.282 9   5720337.558 8
 86  6 12  4 25 17.0800000  0  4G12G13G 9G 7
  21468180.607    21468181.541     9411332.382 9 -17480575.310 8
  21954328.477    21954329.414    36983711.760 9 -40160398.818 8
  24905245.692    24905247.262    84869109.056 7 -91234565.347 8
  24345812.651    24345812.208   -18993813.189 9   5715292.965 9
 86  6 12  4 25 23.0800000  0  4G12G13G 9G 7
  21470537.522    21470538.494     9423722.577 9 -17470920.612 9
  21956158.020    21956158.992    36993330.699 9 -40152903.541 9
  24910015.416    24910017.562    84894174.410 7 -91215033.924 8
                  24344584.280                     5710268.257 8
 86  6 12  4 25 29.0800000  0  4G12G13G 9G 7
  21472898.905    21472900.589     9436134.472 9 -17461249.007 8
  21957989.165    21957991.140    37002952.081 8 -40145406.350 8
  24914783.871    24914786.323    84919238.178 7 -91195503.710 8
  24343319.253    24343363.254   -19036649.371 9   5705268.878 8
 86  6 12  4 25 35.0800000  0  4G12G13G 9G 7
  21475264.558    21475267.186     9448567.976 9 -17451560.566 8
  21959820.273    21959821.654    37012575.873 9 -40137907.284 9
  24919552.969    24919554.119    84944300.260 6 -91175974.832 8
  24342149.641    24342150.619   -19043028.459 9   5700298.208 9
 86  6 12  4 25 41.0800000  0  4G12G13G 9G 7
  21477635.553    21477637.294     9461023.094 9 -17441855.289 9
  21961652.527    21961653.463    37022202.064 9 -40130406.363 8
  24924321.561    24924324.787    84969360.840 6 -91156447.128 8
  24340942.484    24340942.954   -19049372.407 9   5695354.875 9
 86  6 12  4 25 47.0800000  0  4G12G13G 9G 7
  21480009.196    21480010.769     9473499.762 9 -17432133.202 9
  21963484.694    21963486.181    37031830.612 9 -40122903.588 8
  24929090.647    24929092.138    84994419.627 6 -91136920.820 9
  24339740.970    24339741.886   -19055685.617 9   5690435.501 9
 86  6 12  4 25 53.0800000  0  4G12G13G 9G 7
  21482388.166    21482389.310     9485997.975 9 -17422394.340 8
  21965318.058    21965318.284    37041461.546 9 -40115398.962 9
  24933857.351    24933861.572    85019476.691 6 -91117395.833 8
  24338545.040    24338545.545   -19061972.515 9   5685536.624 9
 86  6 12  4 25 59.0800000  0  4G12G13G 9G 7
  21484770.246    21484771.695     9498517.649 8 -17412638.755 9
  21967150.682    21967152.429    37051094.830 9 -40107892.514 8
  24938625.517    24938628.382    85044531.944 6 -91097872.272 9
  24337352.781    24337354.312   -19068236.276 9   5680655.772 8
 86  6 12  4 26  5.0800000  0  4G12G13G 9G 7
  21487156.408    21487157.867     9511058.898 9 -17402866.356 8
  21968984.161    21968985.839    37060730.545 9 -40100384.158 9
  24943394.406    24943395.952    85069585.597 5 -91078349.961 8
  24336164.371    24336165.206   -19074479.138 9   5675791.204 9
 86  6 12  4 26 11.0800000  0  4G12G13G 9G 7
  21489547.007    21489549.153     9523621.632 9 -17393077.205 8
  21970818.540    21970819.815    37070368.676 9 -40092873.924 9
  24948161.507    24948163.388    85094637.464 6 -91058829.036 9
  24334980.273    24334981.436   -19080702.420 9   5670941.893 9
 86  6 12  4 26 17.0800000  0  4G12G13G 9G 7
  21491941.860    21491943.882     9536205.861 9 -17383271.323 8
  21972653.080    21972654.365    37080009.124 9 -40085361.889 8
  24952926.995    24952930.596    85119687.460 6 -91039309.587 9
  24333800.299    24333800.905   -19086905.127 9   5666108.611 9
 86  6 12  4 26 23.0800000  0  4G12G13G 9G 7
  21494339.809    21494343.075     9548811.574 9 -17373448.689 9
  21974487.721    21974489.034    37089651.897 9 -40077848.029 9
  24957695.150    24957697.522    85144735.569 6 -91019791.607 9
                  24332625.509                     5661295.523 8
 86  6 12  4 26 29.0800000  0  4G12G13G 9G 7
  21496743.377    21496745.341     9561438.687 9 -17363609.382 9
  21976323.463    21976324.448    37099297.081 9 -40070332.303 9
  24962459.209    24962463.046    85169781.823 7 -91000275.053 8
  24331455.060    24331456.304   -19129265.288 9   5656508.103 9
 86  6 12  4 26 35.0800000  0  4G12G13G 9G 7
  21499150.297    21499152.148     9574087.284 9 -17353753.337 9
  21978159.002    21978160.289    37108944.668 9 -40062814.700 8
  24967226.340    24967228.970    85194826.227 7 -90980759.951 9
  24330293.543    24330293.680   -19135372.194 9   5651749.483 9
 86  6 12  4 26 41.0800000  0  3G12G13G 7
  21501561.325    21501562.893     9586757.291 9 -17343880.607 9
  21979996.187    21979997.076    37118594.584 9 -40055295.287 9
  24329138.268    24329139.136   -19141444.539 9   5647018.189 8
 86  6 12  4 26 47.0800000  0  3G12G13G 7
  21503977.050    21503978.018     9599448.695 9 -17333991.205 8
  21981831.755    21981832.485    37128246.867 9 -40047774.030 9
  24327987.899    24327989.559   -19147485.596 9   5642310.875 8
 86  6 12  4 26 53.0800000  0  3G12G13G 7
  21506395.442    21506397.502     9612161.416 9 -17324085.208 9
  21983669.903    21983670.045    37137901.469 9 -40040250.940 9
  24326844.055    24326845.540   -19153500.441 9   5637623.989 9
 86  6 12  4 26 59.0800000  0  3G12G13G 7
  21508818.718    21508821.394     9624895.508 9 -17314162.521 8
  21985507.441    21985507.460    37147558.463 9 -40032726.026 8
  24325704.822    24325704.879   -19159492.014 8   5632955.237 8
 86  6 12  4 27  5.0800000  0  3G12G13G 7
  21511245.910    21511248.013     9637650.914 8 -17304223.253 8
  21987345.124    21987347.221    37157217.694 9 -40025199.343 9
  24324567.671    24324567.950   -19165462.661 9   5628302.771 9
 86  6 12  4 27 11.0800000  0  3G12G13G 7
  21513678.564    21513679.259     9650427.602 9 -17294267.399 8
  21989184.089    21989184.691    37166879.241 9 -40017670.865 9
  24323435.773    24323436.253   -19171413.712 9   5623665.599 8
 86  6 12  4 27 17.0800000  0  3G12G13G 7
  21516113.287    21516115.171     9663225.590 9 -17284294.934 9
  21991022.675    21991024.268    37176543.185 9 -40010140.526 8
  24322306.908    24322308.014   -19177343.777 9   5619044.769 8
 86  6 12  4 27 23.0800000  0  3G12G13G 7
  21518552.575    21518554.449     9676044.742 9 -17274305.995 8
  21992861.956    21992863.499    37186209.430 9 -40002608.371 9
                  24321183.693   -19183247.558 9
 86  6 12  4 27 29.0800000  0  3G12G13G 7
  21520995.484    21520998.840     9688885.169 9 -17264300.466 8
  21994702.088    21994702.171    37195877.985 9 -39995074.443 9
  24320065.605    24320067.977   -19189117.946 9   5660724.113 8
 86  6 12  4 27 35.0800000  0  3G12G13G 7
  21523443.529    21523445.465     9701746.764 9 -17254278.450 9
  21996542.450    21996542.823    37205548.761 9 -39987538.765 9
  24318956.504    24318957.177   -19194951.163 9   5656178.740 8
 86  6 12  4 27 41.0800000  0  3G12G13G 7
  21525895.194    21525896.954     9714629.600 9 -17244239.873 8
  21998382.425    21998384.926    37215221.850 9 -39980001.286 8
  24317852.844    24317854.176   -19200749.451 9   5651660.597 9
 86  6 12  4 27 47.0800000  0  3G12G13G 7
  21528350.499    21528352.602     9727533.585 8 -17234184.824 8
  22000223.459    22000224.716    37224897.242 9 -39972462.021 9
  24316755.578    24316756.151   -19206517.204 9   5647166.259 8
 86  6 12  4 27 53.0800000  0  3G12G13G 7
  21530809.892    21530811.904     9740458.709 9 -17224113.298 9
  22002065.241    22002066.169    37234574.929 9 -39964920.962 8
  24315662.401    24315663.403   -19212258.676 9   5642692.391 9
 86  6 12  4 27 59.0800000  0  3G12G13G 7
  21533272.933    21533275.317     9753405.032 9 -17214025.254 9
  22003907.803    22003909.819    37244254.981 9 -39957378.061 9
  24314574.207    24314575.476   -19217976.922 9   5638236.608 9
 86  6 12  4 28  5.0800000  0  3G12G13G 7
  21535741.226    21535742.928     9766372.398 9 -17203920.810 9
  22005750.435    22005751.757    37253937.233 9 -39949833.461 9
  24313490.878    24313491.154   -19223674.207 9   5633797.174 9
 86  6 12  4 28 11.0800000  0  3G12G13G 7
  21538212.285    21538215.623     9779360.860 8 -17193799.931 7
  22007593.305    22007592.889    37263621.797 9 -39942287.033 8
  24312409.990    24312410.444   -19229351.665 9   5629373.180 9
 86  6 12  4 28 17.0800000  0  3G12G13G 7
  21540688.672    21540690.713     9792370.439 8 -17183662.610 8
  22009436.261    22009437.583    37273308.612 9 -39934738.863 9
  24311334.520    24311333.878   -19235007.990 9   5624965.651 8
 86  6 12  4 28 23.0800000  0  3G12G13G 7
  21543168.307    21543170.353     9805401.012 9 -17173508.915 8
  22011279.857    22011280.654    37282997.623 9 -39927188.983 9
                  24310261.985   -19240637.545 9
 86  6 12  4 28 29.0800000  0  3G12G13G 7
  21545651.515    21545654.448     9818452.664 9 -17163338.791 9
  22013125.681    22013124.708    37292688.908 9 -39919637.334 9
  24309197.668    24309198.992   -19246233.311 9   5666856.670 8
 86  6 12  4 28 35.0800000  0  3G12G13G 7
  21548139.473    21548141.004     9831525.278 8 -17153152.346 9
  22014968.676    22014969.567    37302382.359 9 -39912083.998 8
  24308139.852    24308140.463   -19251792.133 9   5662525.124 9
 86  6 12  4 28 41.0800000  0  3G12G13G 7
  21550631.252    21550633.084     9844618.868 9 -17142949.554 8
  22016814.135    22016814.106    37312078.087 9 -39904528.889 9
  24307088.821    24307089.007   -19257315.893 9   5658220.891 8
 86  6 12  4 28 47.0800000  0  3G12G13G 7
  21553127.214    21553127.901     9857733.357 8 -17132730.472 9
  22018659.107    22018660.796    37321776.028 9 -39896972.044 9
  24306042.806    24306044.110   -19262809.230 9   5653940.377 8
 86  6 12  4 28 53.0800000  0  3G12G13G 7
  21555626.071    21555628.556     9870868.814 9 -17122495.056 9
  22020506.380    22020505.764    37331476.270 9 -39889413.416 8
  24305003.386    24305002.675   -19268276.333 9   5649680.298 9
 86  6 12  4 28 59.0800000  0  3G12G13G 7
  21558130.447    21558131.186     9884025.234 9 -17112243.294 9
  22022351.064    22022352.105    37341178.807 9 -39881853.000 9
  24303967.712    24303967.045   -19273720.223 9   5645438.313 9
 86  6 12  4 29  5.0800000  0  3G12G13G 7
  21560636.998    21560639.454     9897202.524 9 -17101975.292 9
  22024198.134    22024200.051    37350883.593 9 -39874290.835 8
  24302934.669    24302936.344   -19279143.315 9   5641212.531 8
 86  6 12  4 29 11.0800000  0  3G12G13G 7
  21563149.082    21563151.309     9910400.714 9 -17091690.988 8
  22026046.785    22026047.112    37360590.630 8 -39866726.903 9
  24301906.357    24301906.752   -19284546.600 9   5637002.177 8
 86  6 12  4 29 17.0800000  0  3G12G13G 7
  21565664.237    21565666.769     9923619.670 9 -17081390.505 8
  22027892.957    22027894.312    37370299.779 9 -39859161.330 9
  24300882.007    24300884.084   -19289928.622 9   5632808.396 8
 86  6 12  4 29 23.0800000  0  3G12G13G 7
  21568183.843    21568186.018     9936859.482 9 -17071073.765 8
  22029742.757    22029742.663    37380011.235 9 -39851593.957 9
                  24299864.342                     5628635.851 8
 86  6 12  4 29 29.0800000  0  3G12G13G 7
  21570706.892    21570708.279     9950120.157 9 -17060740.782 8
  22031589.759    22031590.925    37389724.904 9 -39844024.871 8
  24298850.762    24298852.078   -19331679.470 8   5624489.949 9
 86  6 12  4 29 35.0800000  0  3G12G13G 7
  21573234.082    21573236.141     9963401.574 9 -17050391.621 9
  22033438.726    22033440.408    37399440.800 9 -39836454.045 8
  24297845.864    24297846.512   -19336962.956 9   5620372.962 9
 86  6 12  4 29 41.0800000  0  3G12G13G 7
  21575765.425    21575767.915     9976703.823 9 -17040026.240 9
  22035288.478    22035288.420    37409159.088 9 -39828881.349 8
  24296847.197    24296847.414   -19342211.039 9   5616283.161 8
 86  6 12  4 29 47.0800000  0  3G12G13G 7
  21578300.446    21578303.789     9990026.845 9 -17029644.669 8
  22037138.769    22037139.052    37418879.504 8 -39821306.997 8
  24295853.914    24295854.540   -19347429.300 9   5612216.987 9
 86  6 12  4 29 53.0800000  0  3G12G13G 7
  21580840.180    21580842.660    10003370.684 8 -17019246.868 9
  22038987.543    22038988.487    37428602.066 9 -39813730.972 9
  24294866.273    24294866.933   -19352621.459 9   5608171.148 9
 86  6 12  4 29 59.0800000  0  3G12G13G 7
  21583384.231    21583386.415    10016735.165 9 -17008832.994 9
  22040837.765    22040838.361    37438326.771 9 -39806153.274 9
  24293882.704    24293881.911   -19357790.585 9   5604143.262 9
 86  6 12  4 30  5.0800000  0  3G12G13G 7
  21585929.994    21585932.707    10030120.290 9 -16998403.023 8
  22042689.153    22042690.310    37448053.683 9 -39798573.872 9
  24292902.099    24292903.879   -19362938.710 9   5600131.741 9
 86  6 12  4 30 11.0800000  0  3G12G13G 7
  21588481.232    21588484.561    10043526.029 9 -16987957.003 9
  22044539.740    22044542.055    37457782.745 9 -39790992.774 7
  24291927.218    24291927.786   -19368066.910 9   5596135.737 8
 86  6 12  4 30 17.0800000  0  3G12G13G 7
  21591037.507    21591040.145    10056952.339 8 -16977494.941 8
  22046392.583    22046394.530    37467514.006 8 -39783409.977 8
  24290955.182    24290955.767   -19373173.538 9   5592156.555 9
 86  6 12  4 30 23.0800000  0  3G12G13G 7
  21593595.180    21593597.111    10070399.368 9 -16967016.736 9
  22048245.288    22048246.655    37477247.513 9 -39775825.421 9
                  24289989.228                     5588198.837 9
 86  6 12  4 30 29.0800000  0  3G12G13G 7
  21596158.114    21596160.460    10083867.010 9 -16956522.469 8
  22050096.823    22050098.943    37486983.151 9 -39768239.210 9
  24289028.718    24289029.069   -19414643.329 9   5584267.901 8
 86  6 12  4 30 35.0800000  0  3G12G13G 7
  21598724.797    21598727.882    10097355.221 9 -16946012.176 8
  22051950.783    22051952.300    37496721.006 9 -39760651.261 9
  24288075.105    24288076.597   -19419650.615 9   5580366.117 8
 86  6 12  4 30 41.0800000  0  3G12G13G 7
  21601295.438    21601297.803    10110863.964 9 -16935485.879 8
  22053804.269    22053806.197    37506461.005 9 -39753061.665 9
  24287129.480    24287130.869   -19424623.062 9   5576491.477 8
 86  6 12  4 30 47.0800000  0  3G12G13G 7
  21603870.497    21603872.180    10124393.210 8 -16924943.613 9
  22055657.776    22055658.757    37516203.162 9 -39745470.363 8
  24286189.247    24286189.449   -19429565.153 9   5572640.504 8
 86  6 12  4 30 53.0800000  0  3G12G13G 7
  21606448.632    21606450.677    10137943.033 9 -16914385.312 8
  22057512.573    22057513.054    37525947.511 9 -39737877.362 9
  24285254.087    24285254.202   -19434481.196 9   5568809.830 9
 86  6 12  4 30 59.0800000  0  3G12G13G 7
  21609031.250    21609033.000    10151513.313 9 -16903811.070 9
  22059367.071    22059368.272    37535693.962 9 -39730282.730 9
  24284322.707    24284323.508   -19439374.105 9   5564997.180 9
 86  6 12  4 31  5.0800000  0  3G12G13G 7
  21611616.902    21611619.968    10165104.083 9 -16893220.860 8
  22061222.766    22061224.255    37545442.618 9 -39722686.370 8
  24283395.888    24283396.141   -19444246.077 9   5561200.832 9
 86  6 12  4 31 11.0800000  0  3G12G13G 7
  21614207.023    21614209.837    10178715.292 9 -16882614.725 8
  22063077.625    22063079.126    37555193.422 9 -39715088.338 8
  24282471.988    24282471.700   -19449098.235 9   5557419.935 9
 86  6 12  4 31 17.0800000  0  3G12G13G 7
  21616801.743    21616803.979    10192346.952 9 -16871992.650 8
  22064932.710    22064934.289    37564946.386 9 -39707488.621 9
  24281553.404    24281553.873   -19453928.546 9   5553656.051 8
 86  6 12  4 31 23.0800000  0  3G12G13G 7
  21619400.102    21619401.679    10205998.966 9 -16861354.716 9
  22066790.589    22066791.393    37574701.421 9 -39699887.298 8
                  24280640.507                     5549913.958 9
 86  6 12  4 31 29.0800000  0  3G12G13G 7
  21622000.272    21622003.682    10219671.357 9 -16850700.907 8
  22068645.201    22068646.268    37584458.520 9 -39692284.356 8
  24279732.326    24279731.641   -19495125.084 9   5546198.886 9
 86  6 12  4 31 35.0800000  0  3G12G13G 7
  21624607.169    21624608.861    10233364.184 9 -16840031.173 8
  22070503.679    22070504.429    37594217.878 9 -39684679.661 8
  24278831.269    24278831.914   -19499855.298 9   5542513.011 9
 86  6 12  4 31 41.0800000  0  3G12G13G 7
  21627217.027    21627219.583    10247077.348 8 -16829345.597 9
  22072361.787    22072362.614    37603979.405 9 -39677073.281 8
  24277937.452    24277938.729   -19504551.443 9   5538854.077 9
 86  6 12  4 31 47.0800000  0  3G12G13G 7
  21629829.824    21629831.697    10260810.782 9 -16818644.221 8
  22074219.222    22074219.578    37613743.107 9 -39669465.200 9
  24277049.460    24277051.204   -19509216.783 9   5535218.743 9
 86  6 12  4 31 53.0800000  0  3G12G13G 7
  21632446.631    21632449.078    10274564.529 9 -16807927.010 8
  22076077.651    22076078.166    37623508.978 9 -39661855.426 9
  24276166.918    24276167.812   -19513856.116 9   5531603.675 9
 86  6 12  4 31 59.0800000  0  3G12G13G 7
  21635068.085    21635069.978    10288338.599 9 -16797193.974 9
  22077936.393    22077937.481    37633276.927 9 -39654244.040 9
  24275288.771    24275289.161   -19518472.396 9   5528006.584 8
 86  6 12  4 32  5.0800000  0  3G12G13G 7
  21637693.498    21637694.646    10302132.861 8 -16786445.201 8
  22079795.455    22079796.676    37643046.985 9 -39646631.004 9
  24274414.586    24274415.229   -19523067.743 9   5524425.790 9
 86  6 12  4 32 11.0800000  0  3G12G13G 7
  21640321.410    21640323.904    10315947.261 8 -16775680.730 8
  22081655.746    22081656.173    37652819.069 9 -39639016.396 9
  24273544.255    24273544.259   -19527643.011 9   5520860.652 9
 86  6 12  4 32 17.0800000  0  3G12G13G 7
  21642954.983    21642955.926    10329781.893 9 -16764900.493 8
  22083515.501    22083516.200    37662593.364 8 -39631400.062 8
  24272676.803    24272678.512   -19532196.050 9   5517312.828 9
 86  6 12  4 32 23.0800000  0  3G12G13G 7
  21645591.766    21645592.987    10343636.777 8 -16754104.486 9
  22085375.727    22085376.222    37672369.722 9 -39623782.119 7
                  24271817.117                     5513786.999 9
 86  6 12  4 32 29.0800000  0  3G12G13G 7
  21648231.097    21648233.510    10357511.865 9 -16743292.731 8
  22087235.997    22087237.856    37682148.102 9 -39616162.598 9
  24270962.172    24270962.672   -19573116.722 9   5510288.413 9
 86  6 12  4 32 35.0800000  0  3G12G13G 7
  21650876.667    21650877.887    10371407.070 8 -16732465.305 8
  22089097.235    22089098.098    37691928.650 9 -39608541.395 8
  24270114.012    24270114.795   -19577569.122 9   5506819.011 9
 86  6 12  4 32 41.0800000  0  3G12G13G 7
  21653523.361    21653525.659    10385322.321 9 -16721622.247 8
  22090959.029    22090958.755    37701711.221 9 -39600918.615 8
  24269273.735    24269274.584   -19581987.063 9   5503376.460 8
 86  6 12  4 32 47.0800000  0  3G12G13G 7
  21656175.041    21656177.850    10399257.694 9 -16710763.507 8
  22092822.208    22092822.785    37711495.923 8 -39593294.156 8
  24268438.426    24268439.510   -19586374.750 9   5499957.480 8
 86  6 12  4 32 53.0800000  0  3G12G13G 7
  21658830.331    21658832.691    10413213.069 9 -16699889.194 9
  22094683.064    22094683.552    37721282.610 9 -39585668.180 8
  24267608.632    24267609.406   -19590736.629 9   5496558.619 9
 86  6 12  4 32 59.0800000  0  3G12G13G 7
  21661490.668    21661493.209    10427188.437 9 -16688999.304 9
  22096545.751    22096547.378    37731071.457 9 -39578040.502 9
  24266783.106    24266784.195   -19595075.279 9   5493177.857 9
 86  6 12  4 33  5.0800000  0  3G12G13G 7
  21664154.013    21664155.816    10441183.832 9 -16678093.803 8
  22098409.107    22098409.811    37740862.361 9 -39570411.225 8
  24265961.803    24265962.803   -19599393.014 9   5489813.386 8
 86  6 12  4 33 11.0800000  0  3G12G13G 7
  21666820.550    21666823.069    10455199.266 9 -16667172.675 8
  22100272.437    22100274.470    37750655.282 8 -39562780.380 8
  24265143.595    24265143.779   -19603690.639 9   5486464.580 9
 86  6 12  4 33 17.0800000  0  3G12G13G 7
  21669491.252    21669494.366    10469234.820 9 -16656235.892 9
  22102137.151    22102138.895    37760450.363 9 -39555147.846 8
  24264329.880    24264331.372   -19607965.770 9   5483133.299 9
 86  6 12  4 33 23.0800000  0  3G12G13G 7
  21672166.899    21672168.439    10483290.275 9 -16645283.592 8
  22104000.155    22104001.185    37770247.413 9 -39547513.786 9
                  24263522.630                     5479824.377 8
 86  6 12  4 33 29.0800000  0  3G12G13G 7
  21674845.127    21674846.528    10497365.706 9 -16634315.719 8
  22105866.083    22105867.100    37780046.604 9 -39539878.048 8
  24262720.213    24262722.122   -19648621.295 8   5476543.000 9
 86  6 12  4 33 35.0800000  0  3G12G13G 7
  21677527.566    21677528.730    10511461.030 9 -16623332.347 8
  22107731.266    22107732.422    37789847.818 9 -39532240.743 9
  24261925.946    24261927.626   -19652794.939 9   5473290.847 9
 86  6 12  4 33 41.0800000  0  3G12G13G 7
  21680212.591    21680215.128    10525576.191 9 -16612333.521 8
  22109596.415    22109597.140    37799651.136 9 -39524601.790 8
  24261138.510    24261139.602   -19656934.194 9   5470065.448 9
 86  6 12  4 33 47.0800000  0  3G12G13G 7
  21682902.485    21682904.044    10539711.276 8 -16601319.172 9
  22111461.796    22111463.740    37809456.432 9 -39516961.298 8
  24260356.881    24260357.873   -19661043.459 9   5466863.428 9
 86  6 12  4 33 53.0800000  0  3G12G13G 7
  21685596.119    21685598.723    10553866.076 9 -16590289.458 9
  22113328.349    22113328.913    37819263.721 9 -39509319.255 9
  24259579.614    24259580.759   -19665127.021 9   5463681.434 9
 86  6 12  4 33 59.0800000  0  3G12G13G 7
  21688294.136    21688295.386    10568040.803 9 -16579244.212 8
  22115195.121    22115195.458    37829073.137 9 -39501675.550 8
  24258807.809    24258807.772   -19669187.356 9   5460517.527 8
 86  6 12  4 34  5.0800000  0  3G12G13G 7
  21690995.025    21690997.009    10582235.324 9 -16568183.549 8
  22117062.141    22117062.811    37838884.569 9 -39494030.283 8
  24258038.518    24258040.010   -19673226.717 9   5457369.978 9
 86  6 12  4 34 11.0800000  0  3G12G13G 7
  21693699.582    21693701.332    10596449.631 9 -16557107.469 8
  22118929.706    22118931.476    37848698.003 9 -39486383.442 9
  24257273.507    24257274.880   -19677245.874 9   5454238.162 9
 86  6 12  4 34 17.0800000  0  3G12G13G 7
  21696408.627    21696410.443    10610683.760 9 -16546015.933 8
  22120797.995    22120798.946    37858513.457 9 -39478735.030 8
  24256513.019    24256514.429   -19681242.480 9   5451123.933 8
 86  6 12  4 34 23.0800000  0  3G12G13G 7
  21699121.478    21699123.113    10624937.552 9 -16534909.079 8
  22122665.006    22122666.636    37868330.991 9 -39471085.012 7
                  24255759.151                     5448032.312 9
 86  6 12  4 34 29.0800000  0  3G12G13G 7
  21701837.077    21701839.199    10639211.126 9 -16523786.815 8
  22124532.774    22124535.220    37878150.603 9 -39463433.358 9
  24255009.572    24255011.013   -19721399.501 9   5444968.457 9
 86  6 12  4 34 35.0800000  0  3G12G13G 7
  21704557.493    21704558.651    10653504.333 9 -16512649.257 8
  22126403.545    22126405.142    37887972.144 8 -39455780.211 9
  24254268.556    24254269.396   -19725294.003 9   5441933.783 9
 86  6 12  4 34 41.0800000  0  3G12G13G 7
  21707281.691    21707283.188    10667817.201 9 -16501496.371 8
  22128272.308    22128273.232    37897795.701 9 -39448125.493 7
  24253534.282    24253534.564   -19729153.511 9   5438925.974 8
 86  6 12  4 34 47.0800000  0  3G12G13G 7
  21710008.102    21710010.835    10682149.702 9 -16490328.188 8
  22130142.457    22130142.585    37907621.377 8 -39440469.120 8
  24252805.927    24252807.014   -19732983.621 9   5435941.478 9
 86  6 12  4 34 53.0800000  0  3G12G13G 7
  21712738.492    21712740.447    10696501.775 9 -16479144.761 9
  22132012.070    22132013.007    37917448.989 9 -39432811.243 8
  24252081.233    24252081.780   -19736787.965 9   5432977.044 9
 86  6 12  4 34 59.0800000  0  3G12G13G 7
  21715473.484    21715476.326    10710873.554 9 -16467945.970 9
  22133882.537    22133884.352    37927278.742 9 -39425151.685 8
  24251362.191    24251363.498   -19740569.278 9   5430030.578 9
 86  6 12  4 35  5.0800000  0  3G12G13G 7
  21718212.994    21718214.553    10725264.868 9 -16456731.959 7
  22135754.410    22135755.052    37937110.386 9 -39417490.655 9
  24250646.192    24250646.969   -19744329.662 9   5427100.401 9
 86  6 12  4 35 11.0800000  0  3G12G13G 7
  21720954.988    21720956.423    10739675.717 9 -16445502.724 8
  22137624.787    22137626.411    37946944.106 9 -39409828.022 9
  24249934.366    24249936.041   -19748069.621 9   5424186.136 9
 86  6 12  4 35 17.0800000  0  3G12G13G 7
  21723701.174    21723702.366    10754106.112 9 -16434258.262 8
  22139497.402    22139498.276    37956779.771 9 -39402163.862 8
  24249227.165    24249228.212   -19751786.817 9   5421289.619 8
 86  6 12  4 35 23.0800000  0  3G12G13G 7
  21726450.967    21726452.173    10768556.007 8 -16422998.610 9
  22141368.111    22141369.465    37966617.493 9 -39394498.112 9
                  24248526.734                     5418416.154 8
